[[{"header":{"parameterUnit":"m.s-1","parameterCategory":1,"la1":30.6,"la2":29.2853,"lo1":-89.7004,"lo2":-87.6739,"dx":0.0162,"dy":0.0183,"nx":112,"ny":82,"refTime":"2023-01-09T06:00:00:Z","depth":0,"parameterNumber":2,"parameterNumberName":"U-component_of_WINDS"},"data":[0.0,0.0,0.0,0.0,0.0,0.0,0.0,0.0,0.0,0.0,0.0,0.0,0.0,0.0,0.0,0.0,0.0,0.0,0.0,0.0,0.0,0.0,0.0,0.0,0.0,0.0,0.0,0.0,0.0,0.0,0.0,0.0,0.0,0.0,0.0,0.0,0.0,0.0,0.0,0.0,0.0,0.0,0.0,0.0,0.0,0.0,0.0,0.0,0.0,0.0,0.0,0.0,0.0,0.0,0.0,0.0,0.0,0.0,0.0,0.0,0.0,0.0,0.0,0.0,0.0,0.0,0.0,0.0,0.0,0.0,0.0,0.0,0.0,0.0,0.0,0.0,0.0,0.0,0.0,0.0,0.0,0.0,0.0,0.0,0.0,0.0,0.0,0.0,0.0,0.0,5.2569,5.7225,6.32,6.5908,6.3651,6.1459,5.6856,4.9085,0.0,0.0,0.0,0.0,0.0,0.0,0.0,0.0,0.0,0.0,0.0,0.0,0.0,0.0,0.0,0.0,0.0,0.0,0.0,0.0,0.0,0.0,0.0,0.0,0.0,0.0,0.0,0.0,0.0,0.0,0.0,0.0,0.0,0.0,0.0,0.0,0.0,0.0,0.0,0.0,0.0,0.0,0.0,0.0,0.0,0.0,0.0,0.0,0.0,0.0,0.0,0.0,0.0,0.0,0.0,0.0,0.0,0.0,0.0,0.0,0.0,0.0,0.0,0.0,0.0,0.0,0.0,0.0,0.0,0.0,0.0,0.0,0.0,0.0,0.0,0.0,0.0,0.0,0.0,0.0,0.0,0.0,0.0,0.0,0.0,0.0,0.0,0.0,0.0,0.0,0.0,0.0,0.0,0.0,0.0,0.0,0.0,0.0,0.0,0.0,0.0,0.0,0.0,0.0,5.2991,6.3392,6.6105,6.6702,6.562,6.2742,5.7978,5.0832,0.0,0.0,0.0,0.0,0.0,0.0,0.0,0.0,0.0,0.0,0.0,0.0,0.0,0.0,0.0,0.0,0.0,0.0,0.0,0.0,0.0,0.0,0.0,0.0,0.0,0.0,0.0,0.0,0.0,0.0,0.0,0.0,0.0,0.0,0.0,0.0,0.0,0.0,0.0,0.0,0.0,0.0,0.0,0.0,0.0,0.0,0.0,0.0,0.0,0.0,0.0,0.0,0.0,0.0,0.0,0.0,0.0,0.0,0.0,0.0,0.0,0.0,0.0,0.0,0.0,0.0,0.0,0.0,0.0,0.0,0.0,0.0,0.0,0.0,0.0,0.0,0.0,0.0,0.0,0.0,0.0,0.0,0.0,0.0,0.0,0.0,0.0,0.0,0.0,0.0,0.0,0.0,0.0,0.0,0.0,0.0,0.0,0.0,0.0,0.0,0.0,0.0,0.0,5.219,5.7826,6.6014,6.7627,6.7774,6.7012,6.3537,5.8381,5.1266,4.5786,0.0,0.0,0.0,0.0,0.0,0.0,0.0,0.0,0.0,0.0,0.0,0.0,0.0,0.0,0.0,0.0,0.0,0.0,0.0,0.0,0.0,0.0,0.0,0.0,0.0,0.0,0.0,0.0,0.0,0.0,0.0,0.0,0.0,0.0,0.0,0.0,0.0,0.0,0.0,0.0,0.0,0.0,0.0,0.0,0.0,0.0,0.0,0.0,0.0,0.0,0.0,0.0,0.0,0.0,0.0,0.0,0.0,0.0,0.0,0.0,0.0,0.0,0.0,0.0,0.0,0.0,0.0,0.0,0.0,0.0,0.0,0.0,0.0,0.0,0.0,0.0,0.0,0.0,0.0,0.0,0.0,0.0,0.0,0.0,0.0,0.0,0.0,0.0,0.0,0.0,0.0,0.0,0.0,0.0,0.0,0.0,0.0,0.0,0.0,0.0,0.0,0.0,5.8719,6.3132,6.7741,6.8825,6.8788,6.776,6.431,5.8914,5.1279,4.5766,0.0,0.0,0.0,0.0,0.0,0.0,0.0,0.0,0.0,0.0,0.0,0.0,0.0,0.0,0.0,0.0,0.0,0.0,0.0,0.0,0.0,0.0,0.0,0.0,0.0,0.0,0.0,0.0,0.0,0.0,0.0,0.0,0.0,0.0,0.0,0.0,0.0,0.0,0.0,0.0,0.0,0.0,0.0,0.0,0.0,0.0,0.0,0.0,0.0,0.0,0.0,0.0,0.0,0.0,0.0,0.0,0.0,0.0,0.0,0.0,0.0,0.0,0.0,0.0,0.0,0.0,0.0,0.0,0.0,0.0,0.0,0.0,0.0,0.0,0.0,0.0,0.0,0.0,0.0,0.0,0.0,0.0,0.0,0.0,0.0,0.0,0.0,0.0,0.0,0.0,0.0,0.0,0.0,0.0,0.0,0.0,0.0,0.0,0.0,0.0,0.0,0.0,6.063,6.669,6.9614,6.9963,6.9376,6.7834,6.5375,6.0162,5.1353,4.6177,0.0,0.0,0.0,0.0,0.0,0.0,0.0,0.0,0.0,0.0,0.0,0.0,0.0,0.0,0.0,0.0,0.0,0.0,0.0,0.0,0.0,0.0,0.0,0.0,0.0,0.0,0.0,0.0,0.0,0.0,0.0,0.0,0.0,0.0,0.0,0.0,0.0,0.0,0.0,0.0,0.0,0.0,0.0,0.0,0.0,0.0,0.0,0.0,0.0,0.0,0.0,0.0,0.0,0.0,0.0,0.0,0.0,0.0,0.0,0.0,0.0,0.0,0.0,0.0,0.0,0.0,0.0,0.0,0.0,0.0,0.0,0.0,0.0,0.0,0.0,0.0,0.0,0.0,0.0,0.0,0.0,0.0,0.0,0.0,0.0,0.0,0.0,0.0,0.0,0.0,0.0,0.0,0.0,0.0,0.0,0.0,0.0,0.0,0.0,0.0,0.0,0.0,5.9693,6.5778,0.0,7.0844,7.0624,7.0,6.6806,6.1263,5.2821,0.0,0.0,0.0,0.0,0.0,0.0,0.0,0.0,0.0,0.0,0.0,0.0,0.0,0.0,0.0,0.0,0.0,0.0,0.0,0.0,0.0,0.0,0.0,0.0,0.0,0.0,0.0,0.0,0.0,0.0,0.0,0.0,0.0,0.0,0.0,0.0,0.0,0.0,0.0,0.0,0.0,0.0,0.0,0.0,0.0,0.0,0.0,0.0,0.0,0.0,0.0,0.0,0.0,0.0,0.0,0.0,0.0,0.0,0.0,0.0,0.0,0.0,0.0,0.0,0.0,0.0,0.0,0.0,0.0,0.0,0.0,0.0,0.0,0.0,0.0,0.0,0.0,0.0,0.0,0.0,0.0,0.0,0.0,0.0,0.0,0.0,0.0,0.0,0.0,0.0,0.0,0.0,0.0,0.0,0.0,0.0,0.0,0.0,0.0,0.0,0.0,0.0,5.3373,6.0378,6.6549,0.0,7.1688,7.1578,7.1321,6.7871,6.2218,5.4106,0.0,0.0,0.0,0.0,0.0,0.0,0.0,0.0,0.0,0.0,0.0,0.0,0.0,0.0,0.0,0.0,0.0,0.0,0.0,0.0,0.0,0.0,0.0,0.0,0.0,0.0,0.0,0.0,0.0,0.0,0.0,0.0,0.0,0.0,0.0,0.0,0.0,0.0,0.0,0.0,0.0,0.0,0.0,0.0,0.0,0.0,0.0,0.0,0.0,0.0,0.0,0.0,0.0,0.0,0.0,0.0,0.0,0.0,0.0,0.0,0.0,0.0,0.0,0.0,0.0,0.0,0.0,0.0,0.0,0.0,0.0,0.0,0.0,0.0,0.0,0.0,0.0,0.0,0.0,0.0,0.0,0.0,0.0,0.0,0.0,0.0,0.0,0.0,0.0,0.0,0.0,0.0,0.0,0.0,0.0,0.0,0.0,0.0,0.0,0.0,0.0,0.0,5.4876,6.3392,6.9816,7.2239,7.2496,7.2202,7.1394,6.8348,6.3062,0.0,0.0,0.0,0.0,0.0,0.0,0.0,0.0,0.0,0.0,0.0,0.0,0.0,0.0,0.0,0.0,0.0,0.0,0.0,0.0,0.0,0.0,0.0,0.0,0.0,0.0,0.0,0.0,0.0,0.0,0.0,0.0,0.0,0.0,0.0,0.0,0.0,0.0,0.0,0.0,0.0,0.0,0.0,0.0,0.0,0.0,0.0,0.0,0.0,0.0,0.0,0.0,0.0,0.0,0.0,0.0,0.0,0.0,0.0,0.0,0.0,0.0,0.0,0.0,0.0,0.0,0.0,0.0,0.0,0.0,0.0,0.0,0.0,0.0,0.0,0.0,0.0,0.0,0.0,0.0,0.0,0.0,0.0,0.0,0.0,0.0,0.0,0.0,0.0,0.0,0.0,0.0,0.0,0.0,0.0,0.0,0.0,0.0,0.0,0.0,0.0,0.0,0.0,5.5868,6.3759,6.9816,7.2239,7.2496,7.2422,7.2165,6.9192,6.387,5.5757,0.0,0.0,0.0,0.0,0.0,0.0,0.0,0.0,0.0,0.0,0.0,0.0,0.0,0.0,0.0,0.0,0.0,0.0,0.0,0.0,0.0,0.0,0.0,0.0,0.0,0.0,0.0,0.0,0.0,0.0,0.0,0.0,0.0,0.0,0.0,0.0,0.0,0.0,0.0,0.0,0.0,0.0,0.0,0.0,0.0,0.0,0.0,0.0,0.0,0.0,0.0,0.0,0.0,0.0,0.0,0.0,0.0,0.0,0.0,0.0,0.0,0.0,0.0,0.0,0.0,0.0,0.0,0.0,0.0,0.0,0.0,0.0,0.0,0.0,0.0,0.0,0.0,0.0,0.0,0.0,0.0,0.0,0.0,0.0,0.0,0.0,0.0,0.0,0.0,0.0,0.0,0.0,0.0,0.0,0.0,0.0,0.0,0.0,0.0,0.0,0.0,0.0,5.6712,6.4347,7.0183,7.2275,7.2496,7.2386,7.2055,6.9669,6.5118,5.796,0.0,0.0,0.0,0.0,0.0,0.0,0.0,0.0,0.0,0.0,0.0,0.0,0.0,0.0,0.0,0.0,0.0,0.0,0.0,0.0,0.0,0.0,0.0,0.0,0.0,0.0,0.0,0.0,0.0,0.0,0.0,0.0,0.0,0.0,0.0,0.0,0.0,0.0,0.0,0.0,0.0,0.0,0.0,0.0,0.0,0.0,0.0,0.0,0.0,0.0,0.0,0.0,0.0,0.0,0.0,0.0,0.0,0.0,0.0,0.0,0.0,0.0,0.0,0.0,0.0,0.0,0.0,0.0,0.0,0.0,0.0,0.0,0.0,0.0,0.0,0.0,0.0,0.0,0.0,0.0,0.0,0.0,0.0,0.0,0.0,0.0,0.0,0.0,0.0,0.0,0.0,0.0,0.0,0.0,0.0,0.0,0.0,0.0,0.0,0.0,0.0,0.0,5.7593,6.5228,7.0807,7.2349,7.2569,7.2275,7.1394,6.9853,6.6476,6.075,0.0,0.0,0.0,0.0,0.0,0.0,0.0,0.0,0.0,0.0,0.0,0.0,0.0,0.0,0.0,0.0,0.0,0.0,0.0,0.0,0.0,0.0,0.0,0.0,0.0,0.0,0.0,0.0,0.0,0.0,0.0,0.0,0.0,0.0,0.0,0.0,0.0,0.0,0.0,0.0,0.0,0.0,0.0,0.0,0.0,0.0,0.0,0.0,0.0,0.0,0.0,0.0,0.0,0.0,0.0,0.0,0.0,0.0,0.0,0.0,4.0832,0.0,0.0,0.0,0.0,0.0,0.0,0.0,0.0,0.0,0.0,0.0,0.0,0.0,0.0,0.0,0.0,0.0,0.0,0.0,0.0,0.0,0.0,0.0,0.0,0.0,0.0,0.0,0.0,0.0,0.0,0.0,0.0,0.0,0.0,0.0,0.0,0.0,0.0,0.0,0.0,0.0,5.9281,6.6439,7.1431,7.2386,7.3083,7.2863,7.1431,6.9853,6.6476,6.075,5.7189,0.0,0.0,0.0,0.0,0.0,0.0,0.0,0.0,0.0,0.0,0.0,0.0,0.0,0.0,0.0,0.0,0.0,0.0,0.0,0.0,0.0,0.0,0.0,0.0,0.0,0.0,0.0,0.0,0.0,0.0,0.0,0.0,0.0,0.0,0.0,0.0,0.0,0.0,0.0,0.0,0.0,0.0,0.0,0.0,0.0,0.0,0.0,0.0,0.0,0.0,0.0,0.0,0.0,0.0,0.0,0.0,0.0,0.0,0.0,0.0,4.1745,0.0,0.0,0.0,0.0,0.0,0.0,0.0,0.0,0.0,0.0,0.0,0.0,0.0,0.0,0.0,0.0,0.0,0.0,0.0,0.0,0.0,0.0,0.0,0.0,0.0,0.0,0.0,0.0,0.0,0.0,0.0,0.0,0.0,0.0,0.0,0.0,0.0,0.0,0.0,0.0,6.0896,6.7283,7.1908,7.3487,7.367,7.3046,7.1468,7.0183,6.7724,6.3576,6.0309,0.0,0.0,0.0,0.0,0.0,0.0,0.0,0.0,0.0,0.0,0.0,0.0,0.0,0.0,0.0,0.0,0.0,0.0,0.0,0.0,0.0,0.0,0.0,0.0,0.0,0.0,0.0,0.0,0.0,0.0,0.0,0.0,0.0,0.0,0.0,0.0,0.0,0.0,0.0,0.0,0.0,0.0,0.0,0.0,0.0,0.0,0.0,0.0,0.0,0.0,0.0,0.0,0.0,0.0,4.9052,5.0371,5.0371,5.1116,5.2131,4.7665,4.6718,4.8003,0.0,0.0,0.0,0.0,0.0,0.0,0.0,0.0,0.0,0.0,0.0,0.0,0.0,0.0,0.0,0.0,0.0,0.0,0.0,0.0,0.0,0.0,0.0,0.0,0.0,5.2967,5.3339,0.0,0.0,0.0,0.0,0.0,0.0,0.0,0.0,0.0,0.0,0.0,0.0,6.2915,6.8385,7.2569,7.4698,7.4441,7.334,7.1468,7.0697,6.9229,6.6659,6.3319,5.9905,0.0,0.0,0.0,0.0,0.0,0.0,0.0,0.0,0.0,0.0,0.0,0.0,0.0,0.0,0.0,0.0,0.0,0.0,0.0,0.0,0.0,0.0,0.0,0.0,0.0,0.0,0.0,0.0,0.0,0.0,0.0,0.0,4.0865,4.188,0.0,0.0,0.0,0.0,0.0,0.0,0.0,0.0,0.0,0.0,0.0,0.0,0.0,0.0,4.7327,4.9864,5.1251,5.1454,5.3551,5.4972,5.5784,5.5784,5.6224,5.6934,5.5615,0.0,4.9695,4.8477,0.0,0.0,0.0,0.0,0.0,0.0,0.0,0.0,0.0,0.0,0.0,0.0,0.0,0.0,0.0,0.0,0.0,0.0,0.0,0.0,0.0,0.0,5.7549,5.7783,5.9143,6.0215,0.0,5.3263,4.7425,4.6104,0.0,0.0,0.0,0.0,0.0,0.0,0.0,0.0,6.6145,7.0734,7.378,7.4808,7.5432,7.4588,7.1578,7.1211,6.9816,6.6696,6.5999,6.3613,5.8914,5.7666,0.0,0.0,0.0,0.0,0.0,0.0,0.0,0.0,0.0,0.0,0.0,0.0,0.0,0.0,0.0,0.0,0.0,0.0,0.0,0.0,0.0,0.0,0.0,0.0,0.0,0.0,0.0,0.0,0.0,3.9681,4.1948,4.3978,4.1847,4.0358,0.0,0.0,0.0,0.0,0.0,0.0,0.0,0.0,0.0,4.8815,4.956,5.0879,5.2875,5.4194,5.5243,5.6089,5.7103,5.7949,5.866,5.866,5.8829,5.9099,5.8795,5.7306,5.4871,5.2063,4.9695,4.7631,0.0,0.0,0.0,0.0,0.0,4.5436,4.8162,0.0,0.0,0.0,0.0,0.0,0.0,0.0,0.0,0.0,0.0,0.0,0.0,0.0,0.0,6.0618,6.161,6.2224,6.2731,5.9815,5.6164,0.0,5.2123,5.0508,4.6728,0.0,0.0,0.0,0.0,0.0,6.8274,7.1762,7.4368,7.6093,7.5763,7.4661,7.2826,7.1394,6.9816,6.7981,6.743,6.5999,6.3429,6.0346,5.6271,0.0,0.0,0.0,0.0,0.0,0.0,0.0,0.0,0.0,0.0,0.0,0.0,0.0,0.0,0.0,0.0,0.0,0.0,0.0,0.0,0.0,0.0,0.0,0.0,0.0,0.0,0.0,0.0,4.188,4.4045,4.6278,4.4722,4.3403,0.0,0.0,0.0,0.0,0.0,0.0,4.8443,4.868,5.0405,5.389,5.4025,5.5175,5.7611,5.7645,5.822,5.9302,5.9302,5.9674,6.0419,6.0419,6.052,6.0689,6.0486,6.0114,5.9302,5.5615,5.3281,5.1928,5.027,4.9052,4.8436,5.0446,5.0605,5.0333,5.3425,5.3813,5.2874,5.2511,0.0,4.9206,4.8023,0.0,0.0,0.0,0.0,5.3264,5.6867,0.0,5.9523,6.1733,6.2568,6.3135,6.399,6.3883,6.2674,0.0,5.8033,5.5831,5.1573,0.0,0.0,0.0,0.0,6.5301,7.0367,7.2569,7.4551,7.679,7.5763,7.4515,7.3487,7.1762,7.0183,6.8972,6.8348,6.754,6.6549,6.2805,5.9612,5.7152,0.0,0.0,0.0,0.0,0.0,0.0,0.0,0.0,0.0,0.0,0.0,0.0,0.0,0.0,0.0,0.0,0.0,0.0,0.0,0.0,0.0,0.0,0.0,0.0,0.0,0.0,0.0,0.0,0.0,4.8815,4.9323,0.0,0.0,0.0,0.0,4.7597,4.8376,5.0101,5.301,5.3822,5.5581,5.8592,5.866,5.9066,5.9945,5.9945,5.9979,6.0047,6.0047,6.0452,6.1231,6.1231,6.1603,6.2245,6.1535,6.1231,6.1061,5.937,5.7002,5.4397,5.4296,5.3348,5.2198,5.3822,5.4735,5.5547,5.7141,5.7649,5.7442,5.6769,5.436,5.1836,5.1949,5.1227,0.0,0.0,5.6353,5.7991,6.0528,6.1709,6.2119,6.1544,6.2547,6.3867,6.476,6.3786,6.3181,0.0,6.4824,6.3943,6.13,0.0,6.1741,6.3319,6.4494,6.721,7.2789,7.3597,7.4331,7.5983,7.5395,7.4258,7.2679,7.2459,7.1394,6.9045,6.8862,6.8128,6.6549,6.5521,6.2768,5.8033,5.6161,0.0,0.0,0.0,0.0,0.0,0.0,0.0,0.0,0.0,0.0,0.0,0.0,0.0,0.0,0.0,0.0,0.0,0.0,0.0,0.0,0.0,0.0,0.0,0.0,0.0,0.0,0.0,0.0,5.0473,5.1082,0.0,5.0507,5.0845,5.142,5.2164,5.4228,5.6122,5.7679,5.7983,5.8863,6.0452,5.9979,6.008,6.0858,6.0858,6.1095,6.1569,6.1569,6.1738,6.2009,6.2009,6.2144,6.2381,6.211,6.2009,6.1975,6.14,5.9979,5.8152,5.8152,5.7814,5.7374,5.7949,5.8321,5.8626,5.9133,5.9302,5.9201,5.8457,5.745,5.6539,5.6599,5.6747,5.7201,5.8871,6.0046,6.105,6.185,6.2241,6.2404,6.2053,6.2455,6.324,6.4665,6.4557,6.4685,6.6518,6.5595,6.4053,6.2622,6.4567,6.5962,6.5007,6.776,7.1027,7.4074,7.4918,7.5469,7.6056,7.5395,7.4478,7.3377,7.2312,7.1138,6.9743,6.9192,6.8201,6.6549,6.5742,6.4237,6.1961,6.0823,5.6418,0.0,0.0,0.0,0.0,0.0,0.0,0.0,0.0,0.0,0.0,0.0,0.0,0.0,0.0,0.0,0.0,0.0,0.0,0.0,0.0,0.0,0.0,0.0,0.0,0.0,0.0,5.2875,5.2401,5.389,5.4634,5.3923,5.5243,5.6427,5.7171,5.8829,6.0216,6.1197,6.1264,6.1501,6.2042,6.1535,6.14,6.167,6.167,6.1907,6.2381,6.2381,6.2381,6.2381,6.2381,6.2381,6.2381,6.2381,6.2381,6.2381,6.2381,6.1806,6.0858,6.0588,6.052,6.052,6.052,6.0655,6.0892,6.0892,6.0723,6.0419,5.9945,5.9607,5.9438,5.9708,6.0188,6.0758,6.1452,6.2063,6.2473,6.2402,6.2381,6.2448,6.2719,6.2753,6.3299,6.5336,6.5778,6.6303,6.8145,6.6769,6.5228,6.4934,6.71,6.8458,6.7136,7.011,7.2973,7.4331,7.5212,7.5799,7.6056,7.5139,7.4294,7.3744,7.1725,7.0403,7.011,6.8825,6.7614,6.6549,6.4934,6.3686,6.2879,6.1484,5.7776,5.161,0.0,0.0,0.0,0.0,0.0,0.0,0.0,0.0,0.0,0.0,0.0,0.0,0.0,0.0,0.0,0.0,0.0,0.0,0.0,0.0,0.0,0.0,0.0,5.0405,5.2909,5.4837,5.4837,5.8017,5.9911,5.9201,6.0452,6.1637,6.2381,6.1772,6.2042,6.3497,6.3599,6.3565,6.3565,6.3531,6.3193,6.2415,6.2448,6.2448,6.2448,6.2448,6.2448,6.2448,6.2448,6.2448,6.2448,6.2448,6.2448,6.2415,6.2415,6.2415,6.2313,6.1603,6.1332,6.1332,6.1332,6.1772,6.2381,6.2381,6.1907,6.1332,6.1332,6.0825,6.0317,6.1095,6.1332,6.1467,6.2178,6.2381,6.2381,6.2381,6.2415,6.2618,6.3328,6.3531,6.422,6.6743,6.73,6.7873,6.9754,6.8825,6.8017,6.8788,6.8972,6.9302,7.0073,7.1578,0.0,7.367,7.4478,7.5249,7.5946,7.4625,7.367,7.3634,7.077,6.9302,7.0073,6.7944,6.6586,6.6512,6.3429,6.1337,6.0493,5.807,5.6418,5.5574,0.0,0.0,0.0,0.0,0.0,0.0,0.0,0.0,0.0,0.0,0.0,0.0,0.0,0.0,0.0,0.0,0.0,0.0,0.0,0.0,0.0,0.0,5.5784,5.5074,5.8017,6.025,6.025,6.1637,6.2279,6.1535,6.1839,6.2381,6.3159,6.3531,6.4106,6.5019,6.5087,6.485,6.4309,6.4309,6.3937,6.3193,6.3734,6.4005,6.4005,6.4005,6.4005,6.4005,6.4005,6.4005,6.4005,6.4005,6.37,6.3193,6.3193,6.2888,6.2381,6.2178,6.211,6.211,6.211,6.2212,6.2381,6.2381,6.2245,6.211,6.211,6.1941,6.1806,6.2009,6.211,6.2144,6.2347,6.2381,6.2381,6.2381,6.2787,6.326,6.3463,6.3903,6.4834,6.6849,6.73,6.7873,6.9754,6.9743,6.9486,6.9743,7.0734,7.1578,7.1798,7.3707,0.0,7.5395,7.6166,7.6056,7.4515,7.3964,7.323,7.2055,7.1174,7.0734,7.0954,7.0367,6.8935,6.6586,6.5632,6.42,6.2181,5.8621,5.6418,0.0,0.0,0.0,0.0,0.0,0.0,0.0,0.0,0.0,0.0,0.0,0.0,0.0,0.0,0.0,0.0,0.0,0.0,0.0,0.0,0.0,0.0,5.734,5.9945,6.0452,6.2144,6.3328,6.3328,6.3971,6.4241,6.3802,6.4038,6.441,6.485,6.529,6.5831,6.6576,6.6339,6.5967,6.5561,6.5222,6.4715,6.3971,6.4377,6.4613,6.4613,6.4613,6.4613,6.4613,6.4613,6.4613,0.0,6.4613,6.4377,6.3971,6.3971,6.37,0.0,0.0,0.0,0.0,0.0,6.2381,6.2381,6.2381,6.2381,6.2381,6.2381,6.2381,6.2448,6.2753,6.2854,6.2922,6.3226,6.3328,6.3328,6.3328,6.3632,6.4038,6.4343,6.4749,6.5619,6.7834,6.8327,6.898,7.118,0.0,0.0,7.2055,7.2349,7.2606,7.2936,7.4771,7.5983,7.5652,7.6607,7.679,7.5359,7.4918,7.4331,7.3413,7.1762,0.0,0.0,0.0,6.8348,6.5081,6.464,0.0,0.0,0.0,0.0,0.0,0.0,0.0,0.0,5.4838,5.5018,0.0,0.0,0.0,0.0,0.0,0.0,0.0,0.0,0.0,0.0,0.0,0.0,0.0,0.0,0.0,0.0,6.0342,6.3463,6.5527,6.5256,6.485,6.485,6.5425,6.5797,6.5797,6.644,6.6812,6.6812,6.688,6.7184,6.776,0.0,0.0,0.0,0.0,6.5459,6.4715,6.4816,6.485,6.485,6.485,6.485,6.485,6.485,6.485,6.485,6.485,6.4816,6.4715,6.4715,6.4681,6.4478,6.3159,6.2651,6.2651,6.2651,6.2651,0.0,0.0,0.0,0.0,6.2651,6.2651,6.2753,6.3429,6.3632,6.3768,6.441,6.4613,6.4613,6.4613,6.4647,6.4918,6.5628,6.5865,6.6724,6.9347,6.9955,7.0728,7.3337,7.3817,7.4074,7.4918,7.3854,7.3156,7.3854,7.5249,7.5983,7.5285,7.6423,7.7268,7.7084,0.0,0.0,7.5836,7.2569,7.1064,7.2422,6.9486,6.6402,6.3466,6.2475,6.1337,5.9942,5.9098,6.0089,6.2952,6.2218,6.2695,6.4104,5.7367,5.6845,0.0,0.0,0.0,0.0,0.0,0.0,0.0,0.0,0.0,0.0,0.0,0.0,0.0,0.0,0.0,5.9264,6.2762,6.5425,6.644,6.6474,6.6373,6.6373,6.6508,6.6609,6.6609,6.6745,6.6812,6.6812,6.7354,6.7489,6.7049,6.7455,0.0,6.5933,6.6339,6.6237,6.5493,6.6068,6.6373,6.6373,0.0,0.0,6.6373,6.6373,6.6373,6.6373,6.6373,6.6034,6.5493,6.5493,6.5121,6.458,6.4275,6.4174,6.4174,6.4174,6.4174,6.4174,6.4174,6.4174,6.4174,6.4174,6.4174,6.4208,6.4343,6.4377,0.0,6.4546,6.4613,6.4613,6.4613,6.5019,6.5662,6.6406,6.7049,6.8178,7.093,7.1584,7.2191,7.4287,7.4661,7.4918,7.5726,7.5616,7.5469,7.5616,7.646,7.7011,7.6864,7.7121,7.6827,7.5506,7.5249,7.4882,7.4221,7.345,7.2863,7.2532,6.9486,6.7393,6.6769,6.5375,6.4457,6.4127,6.3319,6.3209,6.3833,6.3686,6.4127,6.5007,6.2965,6.3282,0.0,0.0,0.0,0.0,0.0,0.0,0.0,0.0,0.0,0.0,0.0,4.7659,0.0,0.0,5.8906,6.1179,6.4203,6.6373,6.6779,6.6812,6.6812,6.6812,6.6812,6.6948,6.732,6.7354,6.7354,6.7354,6.7692,6.7726,6.7387,6.7354,6.7184,6.6812,6.6812,6.6812,6.6779,6.7184,6.7557,6.7963,6.7963,6.7963,6.7963,6.7963,6.7726,6.7354,6.7354,6.6948,6.6237,6.6237,6.6034,6.5696,6.5696,6.5256,6.4613,6.4613,6.4613,6.4613,6.4613,6.4613,6.4613,6.4613,6.4613,6.4681,6.5019,6.5155,6.5222,6.5595,6.5696,6.5797,6.617,6.6508,6.6981,6.776,6.8591,6.9773,7.1643,7.2371,7.3281,7.5153,7.5506,7.5763,7.657,7.6717,7.6717,7.6717,7.7047,7.7304,7.7304,7.7304,7.7011,7.6203,7.613,7.5946,7.5542,7.4771,7.3634,7.2018,7.0,6.8531,6.7724,6.6549,6.5705,6.5301,6.4897,6.4714,6.4714,6.4714,6.5118,6.5888,6.5888,6.6741,0.0,0.0,0.0,0.0,0.0,0.0,0.0,0.0,4.27,4.5579,4.7775,5.0216,5.3281,5.7066,6.0443,6.2386,6.4794,6.6592,6.6931,6.7015,6.7083,6.7252,6.7117,6.732,6.8064,6.8132,6.8064,6.7895,6.803,6.8064,6.7895,6.7489,6.7523,6.8098,6.7557,6.7523,6.8132,6.8132,6.847,6.9113,6.9113,6.9113,6.9113,6.9113,6.8741,6.8132,6.8132,6.7726,6.7015,6.7015,6.6948,6.6812,6.6812,6.617,6.5222,6.5087,6.5019,6.5019,6.5019,6.5019,6.5019,6.5019,6.5019,6.5155,6.573,6.5899,6.6068,6.6812,6.7015,6.7184,6.7929,6.8132,6.8335,6.9113,7.0119,7.1106,7.2211,7.3259,7.4392,7.5983,7.635,7.6607,7.7414,7.7561,7.7524,7.7341,7.7304,7.7304,7.7304,7.7304,7.7304,7.7304,7.7194,7.7011,7.6864,7.5359,7.3597,7.1688,7.0624,6.9449,6.7981,6.732,6.6586,6.5778,6.5632,6.5521,6.5521,6.5521,6.6035,6.699,6.7797,6.872,3.911,3.8811,3.917,4.0427,4.1243,4.2732,0.0,0.0,4.7858,5.0755,5.3063,5.4885,5.6093,5.8624,6.1081,6.2715,6.4224,6.5758,6.7487,6.7793,6.803,6.8774,6.8199,6.8098,6.8876,6.8977,6.8673,6.7963,6.8571,6.8639,6.7929,6.8504,6.8876,6.8977,6.8876,6.8876,6.8977,6.8977,6.9011,6.9113,6.9113,6.9113,6.9113,6.9113,6.9045,6.8977,6.8977,6.8504,6.7793,6.7793,6.7387,6.6812,6.6812,6.7117,6.7455,6.6812,6.6576,6.6576,6.6576,6.6576,6.6576,6.6576,6.6576,6.6576,6.6677,6.6677,6.6846,6.7557,6.7793,6.7963,6.8774,6.8977,6.9147,6.9891,7.0823,7.2046,7.3693,7.4798,7.5877,7.6935,7.7194,7.7451,7.8295,7.8442,7.8185,7.7451,7.7304,7.7304,7.7304,7.7304,7.7304,7.7304,7.668,7.5946,7.5249,7.3707,7.2642,7.2386,7.0954,6.9706,6.8788,6.8678,6.8238,6.743,6.6733,6.6366,6.6366,6.6366,6.7136,6.8641,6.9449,6.979,4.2312,4.2551,0.0,0.0,4.477,4.5919,4.8455,4.9194,4.9849,5.1809,5.353,5.4972,5.5675,5.8009,6.0359,0.0,6.3844,6.5448,6.7048,6.7252,6.7557,6.8301,6.8098,6.8368,6.962,6.8944,6.8639,6.918,6.9147,6.8944,6.8605,6.891,6.9113,6.9113,6.9113,6.9316,6.9722,6.9722,6.9958,7.0398,7.0398,7.0398,7.0398,7.0398,7.0161,6.9722,6.9282,6.891,6.8605,6.8605,6.8436,6.8132,6.8132,6.8335,6.847,6.7252,6.7083,6.7455,6.7455,6.7455,6.7523,6.7996,6.8132,6.8132,6.8132,6.8132,6.8199,6.8504,6.8605,6.8774,6.9553,6.9722,6.9925,7.0669,7.205,7.328,7.3522,7.5186,7.6793,7.7243,7.7708,7.8332,7.914,7.9286,7.9176,7.8809,7.8736,7.8736,7.8736,7.8369,7.7671,7.6717,7.5873,7.5102,7.4258,7.3597,7.2789,7.1872,7.1174,7.044,6.9633,6.9596,6.9449,6.9082,6.8752,6.8605,6.8605,6.8605,6.9192,7.033,7.066,7.1232,4.4197,4.4915,0.0,4.689,4.7758,4.8716,5.0062,5.072,5.1379,5.2516,5.3683,5.467,5.5329,5.7132,5.9154,6.1184,6.293,6.4647,6.6383,6.6913,6.7387,6.8132,6.803,6.8436,6.9755,6.9079,6.891,6.9823,6.9586,6.9417,6.9417,6.9417,6.9485,6.9688,6.9722,6.9958,7.05,7.05,7.077,7.1312,7.1312,7.1312,7.1312,7.1312,7.1007,7.0466,6.9958,6.9586,6.9417,6.9417,6.9282,6.9113,6.9113,6.9214,6.9248,6.7929,6.776,6.8233,6.8233,6.8233,6.8335,6.891,6.9113,6.9113,6.9113,6.9113,6.9147,6.935,6.9417,6.9553,7.0297,7.05,7.0601,7.0939,7.252,7.3779,7.3,7.4988,7.7047,7.7268,7.8002,7.8919,7.9947,7.9947,7.9874,8.0094,7.991,7.98,7.98,7.9103,7.8038,7.6607,7.5506,7.4588,7.378,7.3487,7.2863,7.1725,7.1651,7.1284,7.0477,7.044,7.033,7.011,7.011,7.011,7.011,7.011,7.0513,7.1321,7.1321,7.2165,4.4317,4.5274,4.6741,4.8686,5.0152,5.1439,5.2755,5.3084,5.3294,5.4012,5.47,5.5359,5.6017,5.6749,5.7794,5.9835,6.1213,6.3027,6.5634,6.71,6.8166,6.8977,6.8368,6.8233,0.0,6.9722,6.9857,6.918,6.9755,7.0161,7.0161,7.0161,7.05,7.121,7.1244,7.1244,7.1278,7.1278,7.1312,7.1312,7.1312,7.1312,7.1312,7.1312,7.1312,7.1278,7.1244,7.0838,7.0161,7.0161,6.9755,6.9113,6.9113,6.9553,7.006,6.9316,6.9045,6.9079,6.9079,6.9079,6.9079,6.9079,6.9113,6.9113,6.9113,6.9113,6.9248,6.9958,7.0161,7.0331,7.1075,7.1278,7.1109,7.0398,7.1688,7.289,7.2221,7.4194,7.6387,7.7157,7.8002,7.9103,8.0681,8.0314,8.0057,8.0865,8.0277,7.98,7.98,7.9103,7.8259,7.7378,7.5873,7.4588,7.378,7.2973,7.2532,7.2459,7.2459,7.2092,7.1321,7.1284,7.0917,7.011,7.011,7.011,7.011,7.011,7.0513,7.1321,7.1321,7.2165,4.6052,4.7578,4.9284,5.084,5.1858,5.2755,5.3653,5.3862,5.4042,5.473,5.5029,5.5269,5.5478,5.6698,5.8375,6.036,6.2095,6.3965,6.6176,6.6895,6.7286,6.7557,6.7354,0.0,0.0,0.0,0.0,6.9722,6.962,6.9891,7.0872,7.0939,7.1041,7.1312,7.1312,7.1312,7.1312,7.1312,7.1312,7.1312,7.1312,7.1312,7.1312,7.1312,7.1312,7.1312,7.1312,7.1176,7.0939,7.0939,7.077,7.0567,7.0567,7.0737,7.0838,7.0094,7.0128,7.05,6.9992,6.9823,6.9891,7.0398,7.0567,7.0567,7.0567,7.0567,7.0635,7.0872,7.0939,7.1007,7.1244,7.0939,7.0643,7.1079,7.1717,7.2474,7.2865,7.4587,7.635,7.7157,7.8002,7.8919,8.0021,7.9984,7.9874,8.0167,7.9947,7.98,7.98,7.8589,7.7635,7.7341,7.5873,7.4588,7.378,7.345,7.3083,7.2532,7.2496,7.2386,7.2129,7.2092,7.1982,7.1688,7.1688,7.1688,7.1688,7.1688,7.1835,7.2092,7.2092,7.2679,4.7878,4.9434,5.096,5.2516,5.3234,5.3713,5.4401,5.4551,5.467,5.5089,5.4999,5.485,5.485,5.6183,5.7868,5.9696,6.1945,6.4079,6.5895,6.6525,6.6812,6.6812,6.7049,6.7184,0.0,0.0,0.0,6.9688,6.9857,7.0297,7.1278,7.1312,7.1312,7.1312,7.1312,7.1447,7.1684,7.1684,7.1853,7.209,7.209,7.209,7.209,7.209,7.1954,7.1684,7.1684,7.1548,7.1312,7.1312,7.1312,7.1278,7.1007,7.0906,7.0838,7.006,7.0128,7.05,7.0263,7.0364,7.0669,7.1142,7.1312,7.1312,7.1312,7.1312,7.1312,7.1312,7.1109,7.0906,7.0906,7.0561,7.0464,7.1145,7.1839,7.2654,7.3308,7.4879,7.635,7.7157,7.8002,7.8846,7.9653,7.9543,7.925,7.8956,7.8919,7.9103,7.969,7.8626,7.7781,7.7781,7.6313,7.5139,7.4588,7.4037,7.3487,7.2973,7.2679,7.2496,7.2496,7.2496,7.2496,7.2496,7.2496,7.2496,7.2496,7.2496,7.2496,7.2496,7.2496,7.2789,4.9643,5.084,5.1828,5.3773,5.4251,5.4431,5.5029,5.5179,5.5179,5.5089,5.4581,5.4132,0.0,0.0,5.6528,5.7928,6.0779,6.3342,6.4761,6.6029,6.6812,0.0,0.0,0.0,0.0,0.0,0.0,6.9147,0.0,7.1278,7.1312,7.1312,7.1312,7.1312,7.1345,7.1684,7.2394,7.2428,7.28,7.3477,7.3477,7.3477,7.3477,7.3477,7.3105,7.2462,7.2462,7.2056,7.1413,7.1379,7.1379,7.1278,7.05,7.0195,7.0094,6.9316,6.9079,6.918,6.9857,7.0567,7.121,7.121,7.121,7.121,7.121,7.121,7.121,7.121,7.0669,7.0128,7.0128,7.0259,7.0465,7.0625,7.2046,7.3374,7.3579,7.4915,7.635,7.7157,7.7965,7.8772,7.9543,7.9029,7.8259,7.7451,7.7304,7.7892,7.9507,7.9029,7.8552,7.8589,7.7157,7.613,7.6093,7.4698,7.378,7.3707,7.2973,7.2532,7.2496,7.2496,7.2496,7.2496,7.2496,7.2496,7.2496,7.2496,7.2496,7.2496,7.2496,7.2496,5.1259,5.2546,5.3683,5.47,5.494,5.497,5.5149,5.5179,5.491,5.3892,5.3563,5.3144,0.0,0.0,0.0,5.8542,6.1817,0.0,6.6119,6.661,0.0,6.7557,0.0,6.8132,6.8741,6.9485,0.0,0.0,7.0263,7.0737,7.1278,7.1312,7.1312,7.1312,7.1853,7.2225,7.2394,7.2935,7.3308,7.3477,7.3477,7.3477,7.3477,7.3477,7.3375,7.3206,7.3206,7.3105,7.2902,7.236,7.2124,7.1988,7.0703,7.0195,7.0026,6.8707,6.8605,6.9045,6.8639,6.9011,6.9654,6.9654,6.9654,6.9654,6.9654,6.9654,6.9654,6.9654,6.9519,6.9383,6.9383,6.9388,6.983,7.1259,7.2009,7.2937,7.4988,7.5788,7.635,7.7157,7.7488,7.7708,7.7928,7.7781,7.7561,7.7341,7.7304,7.7708,7.8772,7.8185,7.7892,7.8516,7.7635,7.6754,7.6166,7.5726,7.4992,7.378,7.3487,7.312,7.2532,7.2496,7.2496,7.2496,7.2496,7.2496,7.2496,7.2496,7.2496,7.2496,7.2496,7.2496,5.2636,5.3832,5.473,5.5089,5.5179,5.5029,5.4461,5.4311,5.3931,5.2849,5.2141,5.1653,5.1122,5.3703,5.6613,0.0,0.0,0.0,6.6559,6.7083,6.7455,0.0,6.8504,0.0,6.9553,7.0263,7.0669,0.0,7.0669,7.0872,7.1312,7.1616,7.1785,7.1785,7.2496,7.3037,7.3375,7.4086,7.4458,7.4458,7.4458,7.4458,7.4458,7.4458,7.4289,7.3984,0.0,7.3781,7.3443,7.3037,7.2868,7.2732,7.1244,7.0669,7.05,6.8977,6.8707,6.9045,6.8571,6.8707,6.9113,6.9113,6.9113,6.9113,6.9113,6.9113,6.9113,6.9113,6.9113,6.9113,6.9113,6.939,7.0196,7.2061,7.2797,7.3754,7.6079,7.6644,7.679,7.7231,7.7304,7.7304,7.7304,7.7304,7.7304,7.7304,7.7304,7.7488,7.7965,7.7598,7.7524,7.8002,7.7598,7.7121,7.668,7.6313,7.5579,7.4294,7.3891,7.334,7.2532,7.2496,7.2496,7.2496,7.2496,7.2496,7.2496,7.2496,7.2496,7.2496,7.2496,7.2496,5.3832,5.476,5.5179,5.5179,5.5179,5.485,5.3503,5.3211,5.2903,5.1656,5.0873,5.0423,5.0646,5.319,5.5821,5.7914,6.1371,6.4627,6.6508,6.7455,6.7929,6.8064,6.9316,7.0229,7.0331,7.0939,7.1345,7.1447,7.1447,7.1447,7.1447,7.2157,7.2597,7.2699,7.3308,7.3984,7.4762,7.5371,7.5709,7.5709,7.5709,7.5709,7.5709,7.5709,7.5337,7.4762,0.0,0.0,7.3747,7.3578,7.3477,7.3341,7.1785,7.1176,7.1007,6.962,6.9113,6.9113,6.9113,6.9113,6.9113,6.9113,6.9113,6.9113,6.9113,6.9113,6.9113,6.9113,6.9113,6.9113,6.9113,6.973,7.0937,7.2776,7.3904,7.506,7.6873,7.7304,7.7304,7.7304,7.7304,7.7304,7.7304,7.7304,7.7304,7.7304,7.7304,7.7304,7.7304,7.7304,7.7304,7.7304,7.7304,7.7304,7.7304,7.668,7.5909,7.5139,7.4404,7.3597,7.2716,7.2679,7.2606,7.2496,7.2496,7.2496,7.2496,7.2496,7.2496,7.2496,7.2496,7.2496,5.461,5.5089,5.5179,5.5179,5.5179,5.485,5.3503,5.3364,5.2855,5.0506,5.059,5.0943,5.0485,5.3534,5.6905,5.9087,6.2232,6.4975,6.6609,6.7455,6.8132,6.8808,6.9654,7.0432,7.1075,7.1244,0.0,0.0,0.0,7.2225,7.2225,7.2902,7.3578,7.4221,7.4356,7.4762,7.5506,7.5642,7.5709,7.5709,7.5709,7.5709,7.5709,7.5709,7.5642,7.5506,0.0,0.0,7.5202,7.3984,7.3477,7.3274,7.1176,7.0398,7.0297,6.9417,6.9113,6.9113,6.9113,6.9113,6.9113,6.9113,6.9113,6.9113,6.9113,6.9113,6.9113,6.9113,6.9113,6.9113,6.9113,6.9693,7.0789,7.273,7.3786,7.4905,7.6856,7.7304,7.7304,7.7304,7.7304,7.7304,7.7304,7.7304,7.7304,7.7304,7.7304,7.7304,7.7304,7.7304,7.7304,7.7304,7.7304,7.7304,7.7304,7.7194,7.6754,7.5946,7.5763,7.5028,7.356,7.3487,7.3193,7.2496,7.2496,7.2496,7.2496,7.2496,7.2496,7.2496,7.2496,7.2496,5.482,5.5179,5.5179,5.5179,5.5179,5.4551,5.2187,5.2154,5.1822,4.9,4.8998,4.9661,4.9969,5.2604,5.5603,5.8162,6.1052,6.3819,6.5917,6.7184,6.8199,6.9011,7.0094,7.0906,7.1278,7.1312,7.1616,0.0,0.0,7.2969,7.2969,7.368,7.4424,7.5168,7.5168,7.5337,7.5709,7.5709,7.5709,7.5709,7.5709,7.5709,7.5709,7.5709,7.5709,7.5709,7.5709,0.0,7.5067,7.4356,7.3849,7.3341,7.1887,7.1345,7.1244,7.0534,7.0263,7.0263,7.0263,7.0263,7.0263,7.0263,6.9722,6.9113,6.9113,6.9113,6.9113,6.9113,6.9383,6.9654,6.9654,7.0229,7.1318,7.3322,7.487,7.613,7.7082,7.7304,7.7304,7.7304,7.7304,7.7304,7.7304,7.7304,7.7304,7.7304,7.7304,7.7304,7.7304,7.7304,7.7304,7.7304,7.7304,7.7304,7.7304,7.7304,7.6974,7.6166,7.6093,7.5579,7.4368,7.3927,7.3523,7.312,7.2716,7.2496,7.2496,7.2496,7.2496,7.2496,7.2496,7.2496,5.482,5.5179,5.5179,5.5179,5.5089,5.4162,5.096,5.0756,5.0474,4.7766,4.7604,4.8417,5.0014,5.1955,5.4341,5.7496,5.996,6.2549,6.5343,6.6948,6.8199,6.9011,7.0398,7.1312,7.1312,7.1312,0.0,0.0,0.0,0.0,7.395,7.4525,7.51,7.5676,7.5709,7.5709,7.5709,7.5709,7.5709,7.5709,7.5709,7.5709,7.5709,7.5709,7.5709,7.5676,7.554,0.0,0.0,7.4255,7.3781,7.3172,7.2462,7.2157,7.209,7.1515,7.1312,7.1312,7.1312,7.1312,7.1312,7.1312,7.0534,6.9586,6.9586,6.9586,6.9586,6.9586,6.9992,7.0432,7.0432,7.0872,7.1864,7.3807,7.5823,7.7304,7.7304,7.7304,7.7304,7.7304,7.7304,7.7304,7.7304,7.7304,7.7304,7.7304,7.7304,7.7304,7.7304,7.7304,7.7304,7.7304,7.7304,7.7304,7.7304,7.7304,7.7047,7.6387,7.635,7.6019,7.5212,7.4551,7.4037,7.3707,7.3083,7.2679,7.2496,7.2496,7.2496,7.2496,7.2496,7.2496,5.482,5.5179,5.5179,5.5179,5.473,5.3593,5.087,5.0056,4.9408,4.7575,4.7293,4.8285,5.1497,5.269,5.4626,5.9178,6.0671,6.2403,6.529,6.6948,6.8199,6.9011,7.0398,7.1312,7.1312,7.1312,0.0,0.0,0.0,0.0,7.5473,7.5574,7.5642,7.5709,7.5709,7.5709,7.5709,7.5709,7.5709,7.5709,7.5709,7.5709,7.5709,7.5709,7.5709,7.5676,0.0,0.0,0.0,7.3172,7.2563,7.2428,7.1684,7.1413,7.1413,7.1345,7.1312,7.1312,7.1312,7.1312,7.1312,7.1312,7.121,7.1109,7.1109,7.1109,7.1109,7.1109,7.1176,7.121,7.121,7.1278,7.1864,7.3807,7.5823,7.7304,7.7304,7.7304,7.7304,7.7304,7.7304,7.7304,7.7304,7.7304,7.7304,7.7304,7.7304,7.7304,7.7304,7.7304,7.7304,7.7304,7.7304,7.7304,7.7304,7.7304,7.7304,7.7194,7.7194,7.6827,7.6019,7.5909,7.5175,7.3707,7.3634,7.323,7.2496,7.2496,7.2496,7.2496,7.2496,7.2496,5.473,5.5179,5.5179,5.5179,5.47,5.3414,5.0361,4.9661,4.9128,4.7002,4.6941,4.8123,5.1093,5.206,5.3772,5.8073,5.9438,6.096,6.3971,6.5628,6.7015,6.8233,6.9722,7.0804,0.0,0.0,0.0,0.0,0.0,0.0,7.5676,7.5709,7.5709,7.5709,7.5709,7.5709,7.5709,7.5709,7.5709,7.5709,7.5709,7.5709,7.5709,7.5709,7.5709,7.5676,0.0,0.0,0.0,7.3003,7.2394,7.2326,7.1616,7.1312,7.1312,7.1312,7.1312,7.1312,7.1312,7.1312,7.1312,7.1312,7.1312,7.1312,7.1312,7.1312,7.1312,7.1312,7.1312,7.1312,7.1312,7.2228,7.3332,7.4082,7.5823,7.7304,7.7304,7.7304,7.7304,7.7304,7.7304,7.7304,7.7304,7.7304,7.7304,7.7304,7.7304,7.7304,7.7304,7.7304,7.7304,7.7304,7.7304,7.7304,7.7304,7.7304,7.7304,7.7304,7.7304,7.7194,7.6864,7.635,7.5579,7.4441,7.4441,7.378,7.2496,7.2973,7.2973,7.2496,7.2496,7.2496,5.4581,5.5179,5.5179,5.5179,5.4251,5.2606,4.9883,4.8849,4.7997,4.6494,4.6244,4.7308,5.0558,5.1386,5.2778,5.6959,5.8389,6.008,6.3091,6.4783,6.6237,6.7726,6.9248,7.0398,0.0,0.0,0.0,0.0,0.0,0.0,0.0,7.5709,7.5709,7.5709,7.5709,7.5709,7.5709,7.5709,7.5709,7.5709,7.5709,7.5709,7.5709,7.5709,7.5709,7.5642,0.0,0.0,0.0,7.2766,7.2191,7.2326,7.1616,7.1312,7.1312,7.1312,7.1312,7.1312,7.1312,7.1312,7.1312,7.1312,7.1312,7.1312,7.1312,7.1312,7.1312,7.1312,7.1312,7.1312,7.1312,7.2832,7.431,7.431,7.5823,7.7304,7.7304,7.7304,7.7304,7.7304,7.7304,7.7304,7.7304,7.7304,7.7304,7.7304,7.7304,7.7304,7.7304,7.7304,7.7304,7.7304,7.7304,7.7304,7.7304,7.7304,7.7304,7.7304,7.7304,7.7304,7.7304,7.6754,7.5983,7.4918,7.4918,7.4111,7.2496,7.3083,7.3046,7.2496,7.2496,7.2496,5.4461,5.5179,5.5179,5.5179,5.3204,5.09,4.9583,4.7219,4.5536,4.6104,4.5232,4.5758,5.0326,5.0862,5.1945,5.614,5.8051,6.008,6.3091,6.4783,6.6237,6.7726,6.9248,7.0195,7.0195,7.1515,0.0,0.0,0.0,0.0,0.0,7.5709,7.5709,7.5709,7.5709,7.5709,7.5709,7.5709,7.5709,7.5709,7.5709,7.5709,7.5709,7.5709,7.5709,0.0,0.0,0.0,0.0,7.2225,7.1751,7.2326,7.1616,7.1312,7.1312,7.1312,7.1312,7.1312,7.1312,7.1312,7.1312,7.1312,7.1312,7.1312,7.1312,7.1312,7.1312,7.1312,7.1312,7.1312,7.1312,7.2832,7.431,7.431,7.5823,7.7304,7.7304,7.7304,7.7304,7.7304,7.7304,7.7304,7.7304,7.7304,7.7304,7.7304,7.7304,7.7304,7.7304,7.7304,7.7304,7.7304,7.7304,7.7304,7.7304,7.7304,7.7304,7.7304,7.7304,7.7304,7.7304,7.7304,7.6533,7.4955,7.4918,7.4111,7.2496,7.2496,7.2496,7.2496,7.2496,7.2496,5.1468,5.2456,5.2935,5.2037,5.0511,4.8865,4.7549,4.6758,4.6113,4.5571,4.5927,4.6948,4.9251,5.0222,5.1888,5.5471,5.7712,5.9877,6.2381,6.4884,6.6812,6.7793,6.9722,7.0973,0.0,0.0,0.0,0.0,0.0,0.0,0.0,7.5709,7.5709,7.5709,7.5709,7.5709,7.5709,7.5709,7.5709,7.5709,7.5709,7.5709,7.5709,7.5709,0.0,0.0,0.0,0.0,0.0,7.2225,7.2022,7.3003,7.1785,7.1312,7.1312,7.1312,7.1312,7.1312,7.1312,7.1312,7.1312,7.1312,7.1312,7.1312,7.1312,7.1312,7.1312,7.1312,7.1312,7.1457,7.2142,7.3332,7.446,7.512,7.633,7.7304,7.7304,7.7304,7.7304,7.7304,7.7304,7.7304,7.7304,7.7304,7.7304,7.7304,7.7304,7.7304,7.7304,7.7304,7.7304,7.7304,7.7304,7.7304,7.7304,7.7304,7.7304,7.7304,7.7304,7.7304,7.7304,7.7304,7.657,7.4955,7.5432,7.4661,7.2496,7.3046,7.3046,7.2496,7.2496,7.2496,4.9045,5.0516,5.1394,5.0577,4.9504,4.8407,4.7548,4.6702,4.5992,4.5713,4.6185,4.7276,4.911,5.0426,5.2175,5.5238,5.7577,5.9708,6.1704,6.4512,6.6981,6.8571,7.0026,0.0,0.0,0.0,0.0,0.0,0.0,0.0,0.0,7.5709,7.5709,7.5709,7.5709,7.5709,7.5709,7.5709,7.5709,7.5709,7.5709,7.5709,7.5676,7.5405,0.0,0.0,0.0,0.0,0.0,7.2124,7.2022,7.2969,7.1785,7.1312,7.1312,7.1312,7.1312,7.1312,7.1312,7.1312,7.1312,7.1312,7.1312,7.1312,7.1312,7.1312,7.1312,7.1312,7.1312,7.1546,7.2498,7.3571,7.4535,7.558,7.6563,7.7304,7.7304,7.7304,7.7304,7.7304,7.7304,7.7304,7.7304,7.7304,7.7304,7.7304,7.7304,7.7304,7.7304,7.7304,7.7304,7.7304,7.7304,7.7304,7.7304,7.7304,7.7304,7.7304,7.7304,7.7304,7.7304,7.7011,7.624,7.4955,7.5102,7.4294,7.2496,7.301,7.2973,7.2496,7.2496,7.2496,0.0,4.9169,5.0406,5.0375,4.9564,4.8935,4.8935,4.6965,0.0,4.6323,4.6348,4.6929,4.9581,5.1094,5.2677,5.5306,5.7577,5.9573,6.1163,6.4005,6.7015,6.9992,7.0297,0.0,0.0,0.0,0.0,0.0,0.0,0.0,0.0,7.5709,7.5709,7.5709,7.5709,7.5709,7.5709,7.5709,7.5709,7.5709,7.5709,7.5709,7.5676,7.4931,0.0,0.0,0.0,0.0,0.0,7.1954,7.1785,7.2326,7.1616,7.1312,7.1312,7.1312,7.1312,7.1312,7.1312,7.1312,7.1312,7.1312,7.1312,7.1312,7.1312,7.1312,7.1312,7.1312,7.1312,7.1546,7.2498,7.3571,7.4535,7.558,7.6563,7.7304,7.7304,7.7304,7.7304,7.7304,7.7304,7.7304,7.7304,7.7304,7.7304,7.7304,7.7304,7.7304,7.7304,7.7304,7.7304,7.7304,7.7304,7.7304,7.7304,7.7304,7.7304,7.7304,7.7304,7.7304,7.7304,7.6533,7.5726,7.4918,7.4037,7.323,7.2496,7.2496,7.2496,7.2496,7.2496,7.2496,4.3973,0.0,4.7552,4.7026,4.6862,4.6909,0.0,4.65,4.6258,4.6453,4.7005,4.8015,4.9767,5.0787,5.2303,5.5207,5.7577,5.9742,6.1839,6.5696,6.918,7.1582,7.1379,0.0,0.0,0.0,0.0,0.0,0.0,0.0,0.0,7.5709,7.5709,7.5709,7.5709,7.5709,7.5709,7.5709,7.5709,7.5709,7.5709,7.5709,7.5676,7.4931,0.0,0.0,0.0,0.0,7.2631,7.2293,7.2225,7.2326,7.1616,7.1312,7.1312,7.1312,7.1312,7.1312,7.1312,7.1312,7.1312,7.1312,7.1312,7.1312,7.1312,7.1312,7.1312,7.1312,7.1312,7.1546,7.2498,7.3571,7.4535,7.558,7.6563,7.7304,7.7304,7.7304,7.7304,7.7304,7.7304,7.7304,7.7304,7.7304,7.7304,7.7304,7.7304,7.7304,7.7304,7.7304,7.7304,7.7304,7.7304,7.7304,7.7304,7.7304,7.7304,7.7304,7.7304,7.7304,7.7304,7.6533,7.5726,7.4918,7.3523,7.2679,7.2496,7.2496,7.2496,7.2496,7.2496,7.2496,4.3273,4.5132,4.7012,4.667,4.7022,4.7506,4.7506,4.7338,4.7158,4.7158,4.7564,4.8477,5.027,5.1522,5.3247,5.6224,5.8592,6.1197,6.4444,6.732,6.9789,7.1684,7.1853,0.0,0.0,0.0,0.0,0.0,0.0,0.0,0.0,7.5709,7.5709,7.5709,7.5709,7.5709,7.5709,7.5709,7.5709,7.5709,7.5709,7.5506,7.5168,7.4424,0.0,0.0,0.0,0.0,7.1921,7.2259,7.2191,7.1853,7.1481,7.1312,7.1312,7.1312,7.1312,7.1312,7.1312,7.1312,7.1312,7.1312,7.1312,7.1312,7.1312,7.1312,7.1312,7.1312,7.1312,7.1546,7.2498,7.3171,7.4005,7.544,7.6197,7.6728,7.7181,7.7304,7.7304,7.7304,7.7304,7.7304,7.7304,7.7304,7.7304,7.7304,7.7304,7.7304,7.7304,7.7304,7.7304,7.7304,7.7304,7.7304,7.7304,7.7304,7.7304,7.7304,7.7304,7.7304,7.7304,7.6533,7.5542,7.4368,7.312,7.2496,7.2496,7.2496,7.2496,7.2496,7.2496,7.2496,4.4235,4.6297,4.82,4.7737,4.8289,4.9018,4.9018,4.8443,4.797,4.8206,4.8173,4.8849,5.142,5.2875,5.4668,5.7712,6.025,6.3226,6.732,6.8707,6.9823,7.1312,7.1921,0.0,0.0,0.0,0.0,0.0,0.0,0.0,0.0,7.5709,7.5709,7.5709,7.5709,7.5709,7.5709,7.5709,7.5709,7.5709,7.5709,7.5371,7.4762,7.3883,7.3138,0.0,0.0,0.0,7.1379,7.209,7.1988,7.1312,7.1312,7.1312,7.1312,7.1312,7.1312,7.1312,7.1312,7.1312,7.1312,7.1312,7.1312,7.1312,7.1312,7.1312,7.1312,7.1312,7.1312,7.1457,7.2364,7.2631,7.3252,7.4903,7.558,7.6063,7.7039,7.7254,7.7378,7.7488,7.7414,7.7304,7.7304,7.7304,7.7304,7.7304,7.7304,7.7304,7.7304,7.7304,7.7304,7.7304,7.7304,7.7304,7.7304,7.7304,7.7304,7.7304,7.7304,7.7268,7.7157,7.635,7.5212,7.3707,7.2899,7.2496,7.2496,7.2496,7.2496,7.2496,7.2496,7.2496,4.6808,4.9327,5.0959,4.8266,4.8289,4.9018,4.9018,4.8443,4.8274,4.9492,4.9255,5.0101,5.4262,5.4702,5.5581,5.9167,0.0,6.4986,0.0,0.0,7.0567,7.2056,0.0,0.0,0.0,0.0,0.0,0.0,0.0,0.0,0.0,0.0,7.5709,7.5709,7.5709,7.5709,7.5709,7.5709,7.5709,7.5709,7.5709,7.5642,7.5473,7.4119,7.3443,0.0,0.0,7.1988,7.1379,7.209,7.1988,7.1312,7.1312,7.1312,7.1312,7.1312,7.1312,7.1312,7.1312,7.1312,7.1312,7.1312,7.1312,7.1312,7.1312,7.1312,7.1312,7.1312,7.1312,7.1312,7.1457,7.2108,7.288,7.3171,7.4535,7.6072,7.6859,7.7166,7.7524,7.8259,7.7818,7.7304,7.7304,7.7304,7.7304,7.7304,7.7304,7.7304,7.7304,7.7304,7.7304,7.7304,7.7304,7.7304,7.7304,7.7304,7.7304,7.7304,7.7304,7.7011,7.6313,7.5506,7.4661,7.3707,7.2899,7.2496,7.2496,7.2496,7.2496,7.2496,7.2496,7.2496,4.7373,4.9024,5.0477,5.0223,5.1428,5.2638,5.2638,5.2672,5.2807,5.3078,5.2875,5.3382,5.5852,5.6664,5.8457,6.299,0.0,6.6576,6.8808,7.0094,0.0,0.0,0.0,0.0,0.0,0.0,0.0,0.0,0.0,0.0,0.0,0.0,7.5709,7.5709,7.5709,7.5709,7.5709,7.5709,7.5709,7.5709,7.5709,7.5506,7.5067,7.3984,7.3274,7.2868,0.0,7.1988,7.1379,7.209,7.1988,7.1312,7.1312,7.1312,7.1312,7.1312,7.1312,7.1312,7.1312,7.1312,7.1312,7.1312,7.1312,7.1312,7.1312,7.1312,7.1312,7.1312,7.1312,7.1312,7.1312,7.16,7.2142,7.2631,7.3492,7.4531,7.6048,7.6415,7.6773,7.7694,7.7598,7.7304,7.7304,7.7304,7.7304,7.7304,7.7304,7.7304,7.7304,7.7304,7.7304,7.7304,7.7304,7.7304,7.7304,7.7304,7.7304,7.7304,7.7304,7.7157,7.679,7.5579,7.4735,7.4368,7.312,7.2496,7.2496,7.2496,7.2496,7.2496,7.2936,7.2936,4.7539,4.8818,5.0168,5.1894,5.3247,5.4431,5.548,5.5716,5.5784,5.5953,5.5987,5.6292,5.7374,5.893,6.1501,6.5831,6.6846,6.7793,0.0,0.0,0.0,0.0,0.0,0.0,0.0,0.0,0.0,0.0,0.0,0.0,0.0,0.0,7.5709,7.5709,7.5709,7.5709,7.5709,7.554,7.554,7.5709,7.5709,7.5405,7.483,7.3916,7.3274,7.2902,7.236,7.1921,7.1616,7.1988,7.1819,7.1312,7.1312,7.1312,7.1312,7.1312,7.1312,7.1312,7.1312,7.1312,7.1312,7.1312,7.1312,7.1312,7.1312,7.1312,7.1312,7.1312,7.1312,7.1312,7.1312,7.1312,7.1457,7.2279,7.2666,7.3287,7.4971,7.5618,7.6063,7.7012,7.7291,7.7304,7.7304,7.7304,7.7304,7.7304,7.7304,7.7304,7.7304,7.7304,7.7304,7.7304,7.7304,7.7304,7.7304,7.7304,7.7304,7.7304,7.7304,7.7304,7.7304,7.5763,7.4918,7.4918,7.334,7.2496,7.2496,7.2496,7.2496,7.2532,7.334,7.3266,4.8249,5.0443,5.2097,5.2266,5.0879,5.0574,5.4769,5.4126,5.3416,5.6156,5.6731,5.7374,5.9471,6.1704,6.3768,6.5493,6.6914,6.8368,0.0,0.0,0.0,0.0,0.0,0.0,0.0,0.0,0.0,0.0,0.0,0.0,0.0,0.0,0.0,7.5709,7.5709,7.5709,7.5709,7.5033,7.5033,7.5709,7.5709,7.5676,7.5574,7.4153,7.3849,7.4356,7.2293,7.1751,7.2259,7.165,7.1379,7.1312,7.1312,7.1312,7.1312,7.1312,7.1312,7.1312,7.1312,7.1312,7.1312,7.1312,7.1312,7.1312,7.1312,7.1312,7.1312,7.1312,7.1312,7.1312,7.1312,7.1312,7.1312,7.1401,7.2142,7.3053,7.3913,7.5032,7.6003,7.6899,7.7138,7.7304,7.7304,7.7304,7.7304,7.7304,7.7304,7.7304,7.7304,7.7304,7.7304,7.7304,7.7304,7.7304,7.7304,7.7304,7.7304,7.7304,7.7304,7.7304,7.7304,7.5763,7.4918,7.4918,7.334,7.2496,7.2496,7.2496,7.2496,7.2532,7.334,7.3266,4.8178,5.0608,5.2435,5.2909,5.2773,5.3416,5.6968,5.7848,5.849,6.0554,6.0588,0.0,0.0,6.3429,6.573,6.6305,6.803,0.0,0.0,0.0,0.0,0.0,0.0,0.0,0.0,0.0,0.0,0.0,0.0,0.0,0.0,0.0,0.0,7.5709,7.5709,7.5709,7.5709,7.4965,7.4762,7.5033,7.5033,7.527,7.5676,7.4661,7.4356,7.4559,7.324,7.2834,7.3037,7.2766,7.2394,7.1954,7.1481,7.1312,7.1312,7.1312,7.1312,7.1312,7.1312,7.1312,7.1312,7.1312,7.1312,7.1312,7.1312,7.1312,7.1312,7.1312,7.1312,7.1312,7.1312,7.1312,7.1312,7.1312,7.16,7.2124,7.3095,7.4139,7.5155,7.6115,7.6846,7.7304,7.7304,7.7304,7.7304,7.7304,7.7304,7.7304,7.7304,7.7304,7.7304,7.7304,7.7304,7.7304,7.7304,7.7304,7.7304,7.7304,7.7304,7.7084,7.657,7.5506,7.4661,7.4147,7.3046,7.2496,7.2496,7.2496,7.2496,7.2532,7.334,7.3266,4.8647,5.0777,5.2604,5.389,5.4228,5.5074,5.8287,5.9471,6.052,6.2719,6.2753,6.2381,6.2347,0.0,0.0,0.0,0.0,0.0,0.0,0.0,0.0,0.0,0.0,0.0,0.0,0.0,0.0,0.0,0.0,0.0,0.0,0.0,0.0,0.0,7.5709,7.5709,7.5709,7.4965,7.4728,7.4965,7.4728,7.4864,7.5337,7.483,7.4728,7.4897,7.3916,7.3612,7.3815,7.3341,7.2699,7.1988,7.1515,7.1312,7.1312,7.1312,7.1312,7.1312,7.1312,7.1312,7.1312,7.1312,7.1312,7.1312,7.1312,7.1312,7.1312,7.1312,7.1312,7.1312,7.1312,7.1312,7.1312,7.1312,7.1312,7.1457,7.2228,7.3125,7.4005,7.4757,7.5891,7.6793,7.6793,7.7082,7.7304,7.7304,7.7304,7.7304,7.7304,7.7304,7.7304,7.7304,7.7304,7.7304,7.7304,7.7304,7.7169,7.6949,7.6913,7.6656,7.613,7.5102,7.4258,7.3707,7.2899,7.2496,7.2496,7.2496,7.2496,7.2532,7.334,7.3266,4.9754,5.1183,5.2875,5.5141,5.4634,5.4532,5.8186,5.7881,5.7915,6.1637,6.2415,6.2888,6.4343,6.5222,0.0,0.0,0.0,0.0,0.0,0.0,0.0,0.0,0.0,0.0,0.0,0.0,0.0,0.0,0.0,0.0,0.0,0.0,0.0,0.0,0.0,0.0,7.5709,7.4965,7.4965,7.5676,7.4965,7.4627,7.4627,7.4627,7.4999,7.5608,7.4153,7.395,7.4525,7.3037,7.1988,7.1312,7.1312,7.1312,7.1312,7.1312,7.1312,7.1312,7.1312,7.1312,7.1312,7.1312,7.1312,7.1312,7.1312,7.1312,7.1312,7.1312,7.1312,7.1312,7.1312,7.1312,7.1312,7.1312,7.1312,7.1312,7.1312,7.2056,7.2797,7.2797,7.446,7.5787,7.5787,7.6628,7.7304,7.7304,7.7304,7.7304,7.7304,7.7304,7.7304,7.7304,7.7304,7.7304,7.7304,7.7304,7.6949,7.613,7.6056,7.6081,7.6093,7.4551,7.3707,7.367,7.2899,7.2496,7.2496,7.2496,7.2496,7.2532,7.3303,7.3266,4.8001,5.1555,5.46,5.4262,5.6968,5.9742,5.9776,5.9877,6.0723,6.3396,6.4783,6.5324,6.4715,0.0,0.0,0.0,0.0,0.0,0.0,0.0,0.0,0.0,0.0,0.0,0.0,0.0,0.0,0.0,0.0,0.0,0.0,0.0,0.0,0.0,0.0,0.0,7.5709,7.4965,7.4458,7.4153,7.4458,7.4864,7.5371,7.5371,7.5506,7.5676,7.5236,7.5168,7.527,7.3781,7.2732,7.2022,7.1515,7.1312,7.1312,7.1312,7.1312,7.1312,7.1312,7.1312,7.1312,7.1312,7.1312,7.1312,7.1312,7.1312,7.1312,7.1312,7.1312,7.1312,7.1312,7.1312,7.1312,7.1312,7.1312,7.1312,7.1312,7.2056,7.2797,7.2797,7.446,7.5787,7.5787,7.6628,7.7304,7.7304,7.7304,7.7304,7.7304,7.7304,7.7304,7.7304,7.7304,7.7304,7.7304,7.7304,7.6949,7.613,7.5602,7.5037,7.4418,7.3942,7.345,7.2863,7.2606,7.2496,7.2496,7.2496,7.2496,7.2496,7.2753,7.2716,5.1528,5.4634,5.7103,5.7408,5.9268,6.1197,6.1772,6.2042,0.0,0.0,6.573,6.6271,6.5967,6.7658,0.0,0.0,0.0,0.0,0.0,0.0,0.0,0.0,0.0,0.0,0.0,0.0,0.0,0.0,0.0,0.0,0.0,0.0,0.0,0.0,0.0,0.0,7.5709,7.527,7.483,7.4356,7.483,7.527,7.5709,7.5709,7.5709,7.5676,7.5405,7.51,7.4728,7.3544,7.2631,7.1921,7.1481,7.1312,7.1312,7.1312,7.1312,7.1312,7.1312,7.1312,7.1312,7.1312,7.1312,7.1312,7.1312,7.1312,7.1312,7.1312,7.1312,7.1312,7.1312,7.1312,7.1312,7.1312,7.1312,7.1312,7.1312,7.1742,7.2193,7.2193,7.3492,7.4757,7.512,7.6027,7.6856,7.7243,7.7304,7.7304,7.7304,7.7304,7.7304,7.7304,7.7304,7.7304,7.7304,7.6986,7.6484,7.5629,7.4867,7.4044,7.3303,7.3208,7.301,7.2496,7.2496,7.2496,7.2496,7.2496,7.2496,7.2496,7.2496,7.2496,5.7257,5.866,5.9742,6.2448,6.1264,6.0351,6.3802,6.414,6.4106,6.5493,0.0,6.6305,6.776,0.0,0.0,0.0,0.0,0.0,0.0,0.0,0.0,0.0,0.0,0.0,0.0,0.0,0.0,0.0,0.0,0.0,0.0,0.0,0.0,0.0,0.0,0.0,7.5709,7.5709,7.5676,0.0,7.5676,7.5676,7.5608,7.5676,7.5676,7.5574,7.483,7.4086,7.3341,7.2665,7.1988,7.1312,7.1312,7.1312,7.1312,7.1312,7.1312,7.1312,7.1312,7.1312,7.1312,7.1312,7.1312,7.1312,7.1312,7.1312,7.1312,7.1312,7.1312,7.1312,7.1312,7.1312,7.1312,7.1312,7.1312,7.1312,7.1312,7.1312,7.1312,7.1312,7.2142,7.309,7.4082,7.512,7.6094,7.7181,7.7304,7.7304,7.7304,7.7304,7.7304,7.7304,7.7304,7.7304,7.7304,7.6594,7.5837,7.497,7.4221,7.3419,7.2532,7.2496,7.2496,7.2496,7.2496,7.2496,7.2496,7.2496,7.2496,7.2496,7.2496,7.2496,5.193,5.5852,5.9877,5.9945,6.1264,6.2922,6.4275,6.4918,6.5493,6.6373,6.7015,0.0,0.0,0.0,0.0,0.0,0.0,0.0,0.0,0.0,0.0,0.0,0.0,0.0,0.0,0.0,0.0,0.0,0.0,0.0,0.0,0.0,0.0,0.0,0.0,7.5709,7.5709,7.5709,7.5405,0.0,7.5439,7.5405,7.4864,7.5439,7.5371,7.4796,7.4052,7.3308,7.2631,7.2462,7.1988,7.1312,7.1312,7.1312,7.1312,7.1312,7.1312,7.1312,7.1312,7.1312,7.1312,7.1312,7.1312,7.1312,7.1312,7.1312,7.1312,7.1312,7.1312,7.1312,7.1312,7.1312,7.1312,7.1312,7.1312,7.1312,7.1312,7.1312,7.1312,7.1312,7.2142,7.309,7.4082,7.512,7.6094,7.7181,7.7304,7.7304,7.7304,7.7304,7.7304,7.7304,7.7304,7.7304,7.7304,7.7133,7.6423,7.4963,7.4748,7.3991,7.2569,7.2496,7.2496,7.2496,7.2496,7.2496,7.2496,7.2496,7.2496,7.2496,7.2496,7.2496,5.345,5.6578,5.9141,6.0376,6.2347,6.414,6.4512,6.5459,6.644,6.7184,6.7929,0.0,0.0,0.0,0.0,0.0,0.0,0.0,0.0,0.0,0.0,0.0,0.0,0.0,0.0,0.0,0.0,0.0,0.0,0.0,0.0,0.0,0.0,0.0,7.5709,7.5709,7.5709,7.5709,7.5506,7.5134,7.5506,7.5506,7.5134,7.5168,7.4965,7.4559,7.3443,7.2766,7.236,7.2022,7.1853,7.1853,7.1853,7.2056,7.236,7.236,7.2124,7.1853,7.1853,7.1616,7.1312,7.1312,7.1312,7.1312,7.1312,7.1312,7.1312,7.1312,7.1312,7.1312,7.1312,7.1312,7.1312,7.1312,7.1312,7.1312,7.1312,7.1312,7.1312,7.1312,7.1688,7.2448,7.3412,7.479,7.6104,7.7118,7.7304,7.7304,7.7304,7.7304,7.7304,7.7304,7.7304,7.7304,7.7304,7.6558,7.5788,7.4955,7.4191,7.3382,7.2532,7.2496,7.2496,7.2496,7.2496,7.2496,7.2496,7.2496,7.2496,7.2496,7.2496,7.2496,5.5492,5.7406,5.8395,6.1706,6.3599,6.4647,6.4749,6.5933,6.7218,6.7963,0.0,0.0,0.0,0.0,0.0,0.0,0.0,0.0,0.0,0.0,0.0,0.0,0.0,0.0,0.0,0.0,0.0,0.0,0.0,0.0,0.0,0.0,7.5709,7.5709,7.5709,7.5709,7.5709,7.5709,7.5709,7.5709,7.5709,7.5709,7.5676,7.4931,7.4559,7.4322,7.2868,7.2225,7.2191,7.1684,7.1853,7.2428,7.2529,7.2969,7.3477,7.3477,7.3037,7.2394,7.2394,7.1921,7.1312,7.1312,7.1312,7.1312,7.1312,7.1312,7.1312,7.1312,7.1312,7.1312,7.1312,7.1312,7.1312,7.1312,7.1312,7.1312,7.1312,7.1312,7.1312,7.1312,7.1457,7.1864,7.2853,7.4593,7.6148,7.7155,7.7304,7.7304,7.7304,7.7304,7.7304,7.7304,7.7304,7.7268,7.7096,7.5873,7.5007,7.4714,7.3465,7.2642,7.2496,7.2496,7.2496,7.2496,7.2496,7.2496,7.2496,7.2496,7.2496,7.2496,7.2496,7.2496,4.9821,5.3724,5.8528,6.238,6.4005,6.4783,6.5392,0.0,6.7996,0.0,0.0,0.0,0.0,0.0,0.0,0.0,0.0,0.0,0.0,0.0,0.0,0.0,0.0,0.0,0.0,0.0,0.0,0.0,0.0,0.0,0.0,7.5337,7.5709,7.5709,7.5709,7.5709,7.5709,7.5709,7.5709,7.5709,7.5709,7.5709,7.5676,7.4931,7.4255,7.3544,7.209,7.1447,7.1515,7.2022,7.2326,7.2462,7.3105,7.3409,7.3477,7.3477,7.3037,7.2394,7.2394,7.1921,7.1312,7.1312,7.1312,7.1312,7.1312,7.1312,7.1312,7.1312,7.1312,7.1312,7.1312,7.1312,7.1312,7.1312,7.1312,7.1312,7.1312,7.1312,7.1312,7.1312,7.1969,7.2936,7.3961,7.5068,7.6148,7.7155,7.7304,7.7304,7.7304,7.7304,7.7304,7.7304,7.7304,7.7023,7.6338,7.6056,7.5312,7.3949,7.3676,7.3214,7.2532,7.2496,7.2496,7.2496,7.2496,7.2496,7.2496,7.2496,7.2496,7.2496,7.2496,7.2496,4.8509,5.3408,5.827,6.115,6.3295,6.4681,6.5019,6.6542,6.8132,0.0,0.0,0.0,0.0,0.0,0.0,0.0,0.0,0.0,0.0,0.0,0.0,0.0,0.0,0.0,0.0,0.0,0.0,0.0,0.0,0.0,7.4627,7.5303,7.5709,7.5709,7.5709,7.5709,7.5709,7.5709,7.5709,7.5709,7.5709,7.5709,7.5676,7.4931,7.4424,7.4018,7.2563,7.1921,7.1954,7.2259,7.2631,7.3071,7.3815,7.4356,7.4728,7.4728,7.4255,7.3646,7.3646,7.2902,7.1921,7.1921,7.165,7.1312,7.1312,7.1312,7.1312,7.1312,7.1312,7.1312,7.1312,7.1312,7.1312,7.1312,7.1312,7.1312,7.1312,7.1312,7.1312,7.1312,7.1688,7.245,7.4031,7.4717,7.5514,7.7039,7.7304,7.7304,7.7304,7.7304,7.7304,7.7304,7.7304,7.6986,7.613,7.5689,7.4963,7.375,7.3309,7.2884,7.2496,7.2496,7.2496,7.2496,7.2496,7.2496,7.2496,7.2496,7.2496,7.2496,7.2496,7.2496,4.7778,5.2365,5.629,5.9383,6.2096,6.4174,6.4749,0.0,6.8368,0.0,0.0,0.0,0.0,0.0,0.0,0.0,0.0,0.0,0.0,0.0,0.0,0.0,0.0,0.0,0.0,0.0,0.0,0.0,0.0,0.0,7.4322,7.5033,7.5506,7.5676,7.5709,7.5709,7.5709,7.5709,7.5709,7.5709,7.5709,7.5709,7.5676,7.5134,7.4897,7.4796,7.3138,7.2394,7.2428,7.2597,7.3003,7.3578,7.4525,7.5236,7.5709,7.5709,7.5236,7.4627,7.4627,7.3646,7.2394,7.2394,7.1921,7.1312,7.1312,7.1312,7.1312,7.1312,7.1312,7.1312,7.1312,7.1312,7.1312,7.1312,7.1312,7.1312,7.1312,7.1312,7.1312,7.1312,7.1312,7.1927,7.3955,7.4309,7.5004,7.6984,7.7304,7.7304,7.7304,7.7304,7.7304,7.7304,7.7096,7.6631,7.5873,7.5051,7.4212,7.3456,7.2847,7.2496,7.2496,7.2496,7.2496,7.2496,7.2496,7.2496,7.2496,7.2496,7.2496,7.2496,7.2496,7.2496,4.6033,4.8568,5.1394,5.7338,6.0671,6.3057,6.5155,0.0,0.0,0.0,0.0,0.0,0.0,0.0,0.0,0.0,0.0,0.0,0.0,0.0,0.0,0.0,0.0,0.0,0.0,0.0,0.0,0.0,0.0,0.0,7.351,7.4255,7.4999,7.5676,7.5709,7.5709,7.5709,7.5709,7.5709,7.5709,7.5709,7.5709,7.5709,7.5676,7.5642,7.5506,7.3341,7.2394,7.2462,7.3138,7.3443,7.3612,7.5067,7.5676,7.5709,7.5709,7.5236,7.4627,7.4627,7.3646,7.2394,7.2394,7.1921,7.1312,7.1312,7.1312,7.1312,7.1312,7.1312,7.1312,7.1312,7.1312,7.1312,7.1312,7.1312,7.1312,7.1312,7.1312,7.1312,7.1312,7.1312,7.1965,7.3967,7.4274,7.5004,7.6984,7.7304,7.7304,7.7304,7.7304,7.7304,7.7304,7.6594,7.5837,7.5019,7.4258,7.3419,7.2606,7.2532,7.2496,7.2496,7.2496,7.2496,7.2496,7.2496,7.2496,7.2496,7.2496,7.2496,7.2496,7.2496,7.2496,4.3457,4.6299,4.9487,5.3193,5.7423,6.114,6.2527,6.6102,6.9113,0.0,0.0,0.0,0.0,0.0,0.0,0.0,0.0,0.0,0.0,0.0,0.0,0.0,0.0,0.0,0.0,0.0,0.0,0.0,0.0,0.0,7.2766,7.395,7.4728,7.4999,7.5439,7.5709,7.5709,7.5709,7.5709,7.5709,7.5709,7.5709,7.5709,7.5709,7.5709,7.5642,7.4356,7.3815,7.3849,7.4119,7.4221,7.4322,7.5303,7.5709,7.5709,7.5709,7.554,7.5236,7.4762,7.395,7.3003,7.2563,7.1921,7.1312,7.1312,7.1312,7.1312,7.1312,7.1312,7.1312,7.1312,7.1312,7.1312,7.1312,7.1312,7.1312,7.1312,7.1312,7.1312,7.1312,7.1312,7.1965,7.3945,7.4272,7.4971,7.7009,7.7304,7.7304,7.7304,7.7304,7.7304,7.7304,7.6558,7.5751,7.4978,7.4154,7.3382,7.2532,7.2496,7.2496,7.2496,7.2496,7.2496,7.2496,7.2496,7.2496,7.2496,7.2496,7.2496,7.2496,7.2496,7.2496,4.1025,4.4035,4.741,5.0026,5.4248,5.8374,6.0885,6.4435,6.7523,0.0,0.0,0.0,0.0,0.0,0.0,0.0,0.0,0.0,0.0,0.0,0.0,0.0,0.0,0.0,0.0,0.0,0.0,0.0,0.0,0.0,7.2394,7.3578,7.4458,7.4965,7.5439,7.5709,7.5709,7.5709,7.5709,7.5709,7.5709,7.5709,7.5709,7.5709,7.5709,7.5676,7.5202,7.483,7.4627,7.4627,7.4627,7.4695,7.5405,7.5709,7.5709,7.5709,7.5709,7.5642,7.5134,7.4322,7.3409,7.2935,7.209,7.1312,7.1312,7.1312,7.1312,7.1312,7.1481,7.1616,7.1379,7.1312,7.1312,7.1312,7.1312,7.1312,7.1312,7.1312,7.1312,7.1312,7.1604,7.2361,7.3979,7.4574,7.5373,7.7023,7.7304,7.7304,7.7304,7.7304,7.7304,7.7304,7.6338,7.5482,7.4932,7.3918,7.3067,7.2532,7.2496,7.2496,7.2496,7.2496,7.2496,7.2496,7.2496,7.2496,7.2496,7.2496,7.2496,7.2496,7.2496,7.2496,0.0,0.0,0.0,4.8075,5.1206,5.4861,6.034,0.0,6.4241,0.0,0.0,0.0,0.0,0.0,0.0,0.0,0.0,0.0,0.0,0.0,0.0,0.0,0.0,0.0,0.0,0.0,0.0,0.0,0.0,7.1548,7.2259,7.3003,7.4052,7.5574,7.5608,7.5642,7.5676,7.5676,7.5709,7.5709,7.5709,7.5709,7.5709,7.5709,7.5709,7.5709,7.5709,7.5303,7.4661,7.4661,7.4661,7.4728,7.5439,7.5709,7.5709,7.5709,7.5709,7.5709,7.5676,7.4728,7.351,7.3477,7.2496,7.1345,7.1312,7.1345,7.1345,7.1345,7.1853,7.2259,7.1548,7.1345,7.1345,7.1312,7.1312,7.1312,7.1312,7.1312,7.1312,7.1312,7.2101,7.3152,7.4082,7.5111,7.613,7.7133,7.7304,7.7304,7.7304,7.7304,7.7304,7.7304,7.5873,7.4945,7.4896,7.3456,7.2496,7.2496,7.2496,7.2496,7.2496,7.2496,7.2496,7.2496,7.2496,7.2496,7.2496,7.2496,7.2496,7.2496,7.2496,7.2496,3.8571,0.0,0.0,0.0,0.0,0.0,0.0,0.0,0.0,0.0,0.0,0.0,0.0,0.0,0.0,0.0,0.0,0.0,0.0,0.0,0.0,0.0,0.0,0.0,0.0,0.0,0.0,0.0,6.9586,6.9789,6.9992,7.0703,7.1785,7.3274,7.3815,7.4356,7.4897,7.5439,7.5709,7.5709,7.5709,7.5709,7.5709,7.5709,7.5709,7.5709,7.5709,7.5574,7.5405,7.5405,7.5405,7.5439,7.5608,7.5709,7.5709,7.5709,7.5709,7.5608,7.51,7.4661,7.4119,7.3037,7.2428,7.1988,7.1481,7.1684,7.209,7.209,7.2631,7.3003,7.2293,7.2124,7.1931,7.1447,7.1312,7.1312,7.1312,7.1312,7.1312,7.1312,7.2101,7.3152,7.4082,7.5111,7.613,7.7133,7.7304,7.7304,7.7304,7.7304,7.7304,7.7304,7.6228,7.5312,7.4932,7.3456,7.2496,7.2496,7.2496,7.2496,7.2496,7.2496,7.2496,7.2496,7.2496,7.2496,7.2496,7.2496,7.2496,7.2496,7.2496,7.2496,3.9013,4.0731,4.2931,0.0,0.0,0.0,0.0,0.0,0.0,0.0,0.0,0.0,0.0,0.0,0.0,0.0,0.0,0.0,0.0,0.0,0.0,0.0,0.0,0.0,0.0,0.0,0.0,0.0,6.891,6.9214,6.9553,6.9958,7.0872,7.236,7.28,7.3409,7.4119,7.4559,7.4762,7.4762,7.4762,7.4762,7.4762,7.4762,7.4762,7.4762,7.4762,7.4762,7.4796,7.51,7.5439,7.5709,7.5709,7.5709,7.5709,7.5709,7.5709,7.5642,7.5202,7.4864,7.4458,7.3612,7.3105,7.2766,7.236,7.2529,7.2868,7.2868,7.3172,7.3375,7.2969,7.2665,7.2201,7.1515,7.1312,7.1312,7.1312,7.1312,7.1413,7.1808,7.2756,7.3738,7.4712,7.5754,7.6594,7.7169,7.7304,7.7304,7.7304,7.7304,7.7304,7.7304,7.6766,7.5983,7.4969,7.3456,7.2496,7.2496,7.2496,7.2496,7.2496,7.2496,7.2496,7.2496,7.2496,7.2496,7.2496,7.2496,7.2496,7.2496,7.2496,7.2496,4.0232,4.129,4.3293,0.0,0.0,0.0,0.0,0.0,0.0,0.0,0.0,0.0,0.0,0.0,0.0,0.0,0.0,0.0,0.0,0.0,0.0,0.0,0.0,0.0,0.0,0.0,6.7793,6.7793,6.8436,6.9113,6.9789,6.9823,7.05,7.1988,7.2124,7.2529,7.3341,7.3443,7.3477,7.3477,7.3477,7.3477,7.3477,7.3477,7.3477,7.3477,7.3477,7.3477,7.3544,7.4221,7.4931,7.5574,7.5574,7.5574,7.5574,7.5473,7.5506,7.5574,7.5574,7.5202,7.4728,7.4627,7.4153,7.3612,7.351,7.3544,7.3612,7.3713,7.368,7.3578,7.351,7.2911,7.2201,7.1515,7.1312,7.1312,7.1312,7.1312,7.1638,7.2756,7.3651,7.4594,7.556,7.6594,7.7304,7.7304,7.7304,7.7304,7.7304,7.7304,7.7304,7.7304,7.7304,7.6704,7.5153,7.3435,7.2496,7.2496,7.2496,7.2496,7.2496,7.2496,7.2496,7.2496,7.2496,7.2496,7.2496,7.2496,7.2496,7.2496,7.2496,7.2496,0.0,0.0,0.0,0.0,0.0,0.0,0.0,0.0,0.0,0.0,0.0,0.0,0.0,0.0,0.0,0.0,0.0,0.0,0.0,0.0,0.0,0.0,0.0,0.0,0.0,0.0,6.7015,6.7015,6.7184,6.732,6.7455,6.7455,6.8166,6.9688,7.0297,7.1278,7.2597,7.3206,7.3477,7.3477,7.3477,7.3477,7.3477,7.3477,7.3477,7.3477,7.3477,7.3477,7.351,7.3646,7.4153,7.483,7.483,7.483,7.4762,7.4153,7.4289,7.483,7.483,7.51,7.5405,7.4796,7.4525,7.4289,7.368,7.3916,7.4525,7.51,7.483,7.4289,7.3688,7.2953,7.2211,7.1424,7.1312,7.1312,7.1312,7.1312,7.1808,7.3617,7.4206,7.4559,7.5269,7.6448,7.7304,7.7304,7.7304,7.7304,7.7304,7.7304,7.7304,7.7304,7.7304,7.6803,7.5641,7.3648,7.2496,7.2496,7.2496,7.2496,7.2496,7.2496,7.2496,7.2496,7.2496,7.2496,7.2496,7.2496,7.2496,7.2496,7.2496,7.2496,0.0,0.0,0.0,4.6007,0.0,0.0,0.0,0.0,5.2769,5.7031,0.0,0.0,0.0,0.0,0.0,0.0,0.0,0.0,0.0,0.0,0.0,0.0,0.0,0.0,0.0,0.0,6.6812,6.6812,6.6812,6.6812,6.6812,6.6812,6.7523,6.9045,6.9451,7.0364,7.1853,7.2225,7.2394,7.2394,7.2394,7.2394,7.2394,7.2394,7.2394,7.2394,7.2394,7.2394,7.2428,7.28,7.3172,7.3544,7.3916,7.4052,7.4018,7.3612,7.3713,7.4086,7.4492,7.4864,7.5168,7.5168,7.5168,7.51,7.4695,7.4864,7.5236,7.5608,7.5168,7.4458,7.3662,7.2894,7.2245,7.1458,7.1312,7.1312,7.1312,7.1312,7.1842,7.3911,7.4321,7.4761,7.6063,7.6876,7.7304,7.7304,7.7304,7.7304,7.7304,7.7304,7.7304,7.7304,7.7304,7.6399,7.4286,7.3098,7.2496,7.2496,7.2496,7.2496,7.2496,7.2496,7.2496,7.2496,7.2496,7.2496,7.2496,7.2496,7.2496,7.2496,7.2496,7.2496,0.0,0.0,0.0,0.0,0.0,4.8512,0.0,0.0,0.0,0.0,0.0,0.0,0.0,0.0,0.0,0.0,0.0,0.0,0.0,0.0,0.0,0.0,0.0,0.0,0.0,0.0,6.6406,6.6981,6.6508,6.644,6.6981,6.688,6.7523,6.9045,6.9113,6.9823,7.1312,7.1312,7.1312,7.1312,7.1312,7.1312,7.1312,7.1312,7.1312,7.1312,7.1312,7.1312,7.1379,7.1954,7.2191,7.2259,7.3003,7.3274,7.3274,7.3105,7.3172,7.3375,7.3984,7.4289,7.4492,7.5067,7.5371,7.5506,7.5676,7.5709,7.5676,7.554,7.4965,7.4255,7.346,7.2785,7.2042,7.1391,7.1312,7.1312,7.1312,7.1413,7.2135,7.3945,7.4429,7.5055,7.6986,7.7304,7.7304,7.7304,7.7304,7.7304,7.7304,7.7304,7.7304,7.7304,7.7304,7.6019,7.2789,7.2496,7.2496,7.2496,7.2496,7.2496,7.2496,7.2496,7.2496,7.2496,7.2496,7.2496,7.2496,7.2496,7.2496,7.2496,7.2496,7.2496,0.0,0.0,0.0,0.0,5.0057,0.0,0.0,0.0,0.0,0.0,0.0,0.0,0.0,0.0,0.0,0.0,0.0,0.0,0.0,0.0,0.0,0.0,0.0,0.0,0.0,0.0,0.0,6.759,6.5358,6.5019,6.7624,6.7151,6.7523,6.9045,6.9113,6.9823,7.1312,7.1312,7.1312,7.1312,7.1312,7.1312,7.1312,7.1312,7.1312,7.1312,7.1312,7.1312,7.1312,7.1413,7.1447,7.1515,7.2225,7.2529,7.2462,7.1785,7.1954,7.2529,7.2631,7.3071,7.3612,7.3713,7.4187,7.4864,7.5506,7.5709,7.5574,7.4931,7.4187,7.3477,7.2751,7.1941,7.1447,7.1345,7.1312,7.1312,7.1312,7.2033,7.2926,7.4048,7.4823,7.5629,7.7059,7.7304,7.7304,7.7304,7.7304,7.7304,7.7304,7.7304,7.7304,7.7304,7.7304,7.6019,7.2789,7.2496,7.2496,7.2496,7.2496,7.2496,7.2496,7.2496,7.2496,7.2496,7.2496,7.2496,7.2496,7.2496,7.2496,7.2496,7.2496,7.2496,0.0,0.0,0.0,0.0,0.0,0.0,5.0079,0.0,4.9864,0.0,0.0,0.0,0.0,0.0,0.0,0.0,0.0,0.0,0.0,0.0,0.0,0.0,0.0,0.0,0.0,0.0,0.0,0.0,0.0,6.4613,6.7151,6.7387,6.7963,6.9079,6.9113,6.9823,7.1312,7.1312,7.1312,7.1312,7.1312,7.1312,7.1312,7.1312,7.1312,7.1312,7.1312,7.1312,7.1312,7.1312,7.1312,7.1345,7.165,7.1751,7.1718,7.1413,7.1515,7.1819,7.2259,7.2597,7.2935,7.3341,7.3713,7.4086,7.483,7.5067,7.4999,7.4695,7.4052,7.3341,7.2616,7.1806,7.1312,7.1312,7.1312,7.1312,7.1312,7.2101,7.3017,7.3557,7.4591,7.5764,7.7059,7.7304,7.7304,7.7304,7.7304,7.7304,7.7304,7.7304,7.7304,7.7304,7.7304,7.6019,7.2789,7.2496,7.2496,7.2496,7.2496,7.2496,7.2496,7.2496,7.2496,7.2496,7.2496,7.2496,7.2496,7.2496,7.2496,7.2496,7.2496,7.2847,5.2507,0.0,0.0,0.0,0.0,0.0,0.0,0.0,0.0,0.0,0.0,0.0,0.0,0.0,0.0,0.0,0.0,0.0,0.0,0.0,0.0,0.0,0.0,0.0,0.0,0.0,0.0,0.0,0.0,0.0,6.7252,6.7557,6.8064,6.9079,6.9113,6.9722,7.1007,7.121,7.1312,7.1312,7.1312,7.1312,7.1312,7.1312,7.1312,7.1312,7.1312,7.1312,7.1312,7.1312,7.1312,7.1312,7.1312,7.1312,7.1312,7.1312,7.1312,7.1379,7.1921,7.209,7.2225,7.2935,7.3206,7.3375,7.4322,7.4627,7.4559,7.4356,7.395,7.3249,7.2312,7.1728,7.1312,7.1312,7.1312,7.1379,7.1672,7.2496,7.3357,7.3885,7.5263,7.6521,7.7169,7.7304,7.7304,7.7304,7.7304,7.7304,7.7304,7.7304,7.7304,7.7304,7.6533,7.5065,7.2716,7.2496,7.2496,7.2496,7.2496,7.2496,7.2496,7.2496,7.2496,7.2496,7.2496,7.2936,7.3817,7.3817,7.3817,7.3817,7.3361,7.3492,0.0,0.0,0.0,5.1184,0.0,0.0,0.0,0.0,5.1792,0.0,0.0,0.0,0.0,0.0,0.0,0.0,0.0,0.0,0.0,0.0,0.0,0.0,0.0,0.0,0.0,0.0,0.0,0.0,0.0,0.0,6.8673,6.7624,6.7523,6.9045,6.9113,6.9451,7.0229,7.0939,7.1312,7.1312,7.1312,7.1312,7.1312,7.1312,7.1312,7.1312,7.1312,7.1312,7.1312,7.1312,7.1312,7.1312,7.1312,7.1312,7.1312,7.1312,7.1312,7.1312,7.1345,7.1345,7.1481,7.2191,7.2428,7.2699,7.4153,7.4627,7.4458,7.3713,7.3519,7.3156,7.1661,7.1345,7.1312,7.1312,7.1312,7.1604,7.253,7.3549,7.4545,7.5495,7.7451,7.8529,7.7488,7.7304,7.7304,7.7304,7.7304,7.7304,7.7304,7.7304,7.7304,7.7304,7.4515,7.2606,7.2496,7.2496,7.2496,7.2496,7.2496,7.2496,7.2496,7.2496,7.2496,7.2496,7.2496,7.4037,7.7157,7.7157,7.7157,7.7121,7.5537,7.4564,0.0,0.0,5.9111,5.5132,0.0,0.0,0.0,0.0,0.0,0.0,0.0,0.0,0.0,0.0,0.0,0.0,0.0,0.0,0.0,0.0,0.0,0.0,0.0,0.0,0.0,0.0,0.0,0.0,0.0,0.0,0.0,6.8064,6.8335,6.8301,6.9282,6.9925,7.0195,7.0939,7.1312,7.1312,7.1312,7.1312,7.1312,7.1312,7.1312,7.1312,7.1312,7.1312,7.1312,7.1312,7.1312,7.1312,7.1312,7.1312,7.1312,7.1312,7.1312,7.1312,7.1312,7.1312,7.1345,7.1616,7.1684,7.1853,7.2834,7.28,7.236,7.2124,7.1728,7.1175,7.0726,7.0591,7.0693,7.112,7.1312,7.1706,7.3254,7.4377,7.5184,7.5406,7.6803,7.8467,8.0241,7.6974,7.4147,7.4147,7.4147,7.4147,7.4147,7.4147,7.4147,7.4147,7.3156,7.2496,7.2496,7.2496,7.2496,7.2496,7.2496,7.2496,7.2496,7.2496,7.2496,7.2496,7.2496,7.3046,7.4147,7.6276,7.7304,7.7304,7.6741,7.5836,5.9192,6.0453,0.0,5.7878,5.7266,0.0,5.3065,0.0,0.0,0.0,0.0,0.0,0.0,0.0,0.0,0.0,0.0,0.0,0.0,0.0,0.0,0.0,0.0,0.0,0.0,0.0,0.0,0.0,0.0,0.0,0.0,0.0,6.8571,6.8335,6.9553,7.0195,7.0195,7.0939,7.1312,7.1312,7.1312,7.1312,7.1312,7.1312,7.1312,7.1312,7.1312,7.1312,7.1312,7.1312,7.1312,7.1312,7.1312,7.1312,7.1312,7.1312,7.1312,7.1312,7.1312,7.1312,7.1312,7.1312,7.1312,7.1413,7.1853,7.1684,7.1278,7.0973,7.0546,7.0153,7.0208,7.0432,7.077,7.1537,7.2169,7.3084,7.4637,7.5707,7.6554,7.6873,7.7609,7.8651,8.0204,7.6985,7.3844,7.2642,7.2496,7.2496,7.2496,7.2496,7.2936,7.4074,7.3193,7.2496,7.2496,7.2496,7.301,7.4147,7.4221,7.4221,7.4221,7.312,7.2496,7.2496,7.2496,7.3083,7.4221,7.6313,7.7304,7.7304,7.7304,7.6766]},{"header":{"parameterUnit":"m.s-1","parameterCategory":1,"la1":30.6,"la2":29.2853,"lo1":-89.7004,"lo2":-87.6739,"dx":0.0162,"dy":0.0183,"nx":112,"ny":82,"refTime":"2023-01-09T06:00:00:Z","depth":0,"parameterNumber":3,"parameterNumberName":"V-component_of_WINDS"},"data":[0.0,0.0,0.0,0.0,0.0,0.0,0.0,0.0,0.0,0.0,0.0,0.0,0.0,0.0,0.0,0.0,0.0,0.0,0.0,0.0,0.0,0.0,0.0,0.0,0.0,0.0,0.0,0.0,0.0,0.0,0.0,0.0,0.0,0.0,0.0,0.0,0.0,0.0,0.0,0.0,0.0,0.0,0.0,0.0,0.0,0.0,0.0,0.0,0.0,0.0,0.0,0.0,0.0,0.0,0.0,0.0,0.0,0.0,0.0,0.0,0.0,0.0,0.0,0.0,0.0,0.0,0.0,0.0,0.0,0.0,0.0,0.0,0.0,0.0,0.0,0.0,0.0,0.0,0.0,0.0,0.0,0.0,0.0,0.0,0.0,0.0,0.0,0.0,0.0,0.0,1.2621,1.4135,1.6934,1.8433,1.7802,1.8351,1.7247,1.3612,0.0,0.0,0.0,0.0,0.0,0.0,0.0,0.0,0.0,0.0,0.0,0.0,0.0,0.0,0.0,0.0,0.0,0.0,0.0,0.0,0.0,0.0,0.0,0.0,0.0,0.0,0.0,0.0,0.0,0.0,0.0,0.0,0.0,0.0,0.0,0.0,0.0,0.0,0.0,0.0,0.0,0.0,0.0,0.0,0.0,0.0,0.0,0.0,0.0,0.0,0.0,0.0,0.0,0.0,0.0,0.0,0.0,0.0,0.0,0.0,0.0,0.0,0.0,0.0,0.0,0.0,0.0,0.0,0.0,0.0,0.0,0.0,0.0,0.0,0.0,0.0,0.0,0.0,0.0,0.0,0.0,0.0,0.0,0.0,0.0,0.0,0.0,0.0,0.0,0.0,0.0,0.0,0.0,0.0,0.0,0.0,0.0,0.0,0.0,0.0,0.0,0.0,0.0,0.0,1.3828,1.9381,2.0526,2.0712,2.0376,1.9632,1.7449,1.3739,0.0,0.0,0.0,0.0,0.0,0.0,0.0,0.0,0.0,0.0,0.0,0.0,0.0,0.0,0.0,0.0,0.0,0.0,0.0,0.0,0.0,0.0,0.0,0.0,0.0,0.0,0.0,0.0,0.0,0.0,0.0,0.0,0.0,0.0,0.0,0.0,0.0,0.0,0.0,0.0,0.0,0.0,0.0,0.0,0.0,0.0,0.0,0.0,0.0,0.0,0.0,0.0,0.0,0.0,0.0,0.0,0.0,0.0,0.0,0.0,0.0,0.0,0.0,0.0,0.0,0.0,0.0,0.0,0.0,0.0,0.0,0.0,0.0,0.0,0.0,0.0,0.0,0.0,0.0,0.0,0.0,0.0,0.0,0.0,0.0,0.0,0.0,0.0,0.0,0.0,0.0,0.0,0.0,0.0,0.0,0.0,0.0,0.0,0.0,0.0,0.0,0.0,0.0,1.4106,1.7679,2.2569,2.3286,2.3337,2.2911,2.1723,1.9534,1.641,1.4436,0.0,0.0,0.0,0.0,0.0,0.0,0.0,0.0,0.0,0.0,0.0,0.0,0.0,0.0,0.0,0.0,0.0,0.0,0.0,0.0,0.0,0.0,0.0,0.0,0.0,0.0,0.0,0.0,0.0,0.0,0.0,0.0,0.0,0.0,0.0,0.0,0.0,0.0,0.0,0.0,0.0,0.0,0.0,0.0,0.0,0.0,0.0,0.0,0.0,0.0,0.0,0.0,0.0,0.0,0.0,0.0,0.0,0.0,0.0,0.0,0.0,0.0,0.0,0.0,0.0,0.0,0.0,0.0,0.0,0.0,0.0,0.0,0.0,0.0,0.0,0.0,0.0,0.0,0.0,0.0,0.0,0.0,0.0,0.0,0.0,0.0,0.0,0.0,0.0,0.0,0.0,0.0,0.0,0.0,0.0,0.0,0.0,0.0,0.0,0.0,0.0,0.0,1.8233,2.097,2.4488,2.505,2.5037,2.4663,2.3407,2.1443,1.8664,1.5982,0.0,0.0,0.0,0.0,0.0,0.0,0.0,0.0,0.0,0.0,0.0,0.0,0.0,0.0,0.0,0.0,0.0,0.0,0.0,0.0,0.0,0.0,0.0,0.0,0.0,0.0,0.0,0.0,0.0,0.0,0.0,0.0,0.0,0.0,0.0,0.0,0.0,0.0,0.0,0.0,0.0,0.0,0.0,0.0,0.0,0.0,0.0,0.0,0.0,0.0,0.0,0.0,0.0,0.0,0.0,0.0,0.0,0.0,0.0,0.0,0.0,0.0,0.0,0.0,0.0,0.0,0.0,0.0,0.0,0.0,0.0,0.0,0.0,0.0,0.0,0.0,0.0,0.0,0.0,0.0,0.0,0.0,0.0,0.0,0.0,0.0,0.0,0.0,0.0,0.0,0.0,0.0,0.0,0.0,0.0,0.0,0.0,0.0,0.0,0.0,0.0,0.0,1.97,2.2153,2.5166,2.5464,2.5251,2.469,2.3794,2.1897,1.8691,1.6693,0.0,0.0,0.0,0.0,0.0,0.0,0.0,0.0,0.0,0.0,0.0,0.0,0.0,0.0,0.0,0.0,0.0,0.0,0.0,0.0,0.0,0.0,0.0,0.0,0.0,0.0,0.0,0.0,0.0,0.0,0.0,0.0,0.0,0.0,0.0,0.0,0.0,0.0,0.0,0.0,0.0,0.0,0.0,0.0,0.0,0.0,0.0,0.0,0.0,0.0,0.0,0.0,0.0,0.0,0.0,0.0,0.0,0.0,0.0,0.0,0.0,0.0,0.0,0.0,0.0,0.0,0.0,0.0,0.0,0.0,0.0,0.0,0.0,0.0,0.0,0.0,0.0,0.0,0.0,0.0,0.0,0.0,0.0,0.0,0.0,0.0,0.0,0.0,0.0,0.0,0.0,0.0,0.0,0.0,0.0,0.0,0.0,0.0,0.0,0.0,0.0,0.0,2.0409,2.3132,0.0,2.5785,2.5705,2.5478,2.4315,2.2298,1.9225,0.0,0.0,0.0,0.0,0.0,0.0,0.0,0.0,0.0,0.0,0.0,0.0,0.0,0.0,0.0,0.0,0.0,0.0,0.0,0.0,0.0,0.0,0.0,0.0,0.0,0.0,0.0,0.0,0.0,0.0,0.0,0.0,0.0,0.0,0.0,0.0,0.0,0.0,0.0,0.0,0.0,0.0,0.0,0.0,0.0,0.0,0.0,0.0,0.0,0.0,0.0,0.0,0.0,0.0,0.0,0.0,0.0,0.0,0.0,0.0,0.0,0.0,0.0,0.0,0.0,0.0,0.0,0.0,0.0,0.0,0.0,0.0,0.0,0.0,0.0,0.0,0.0,0.0,0.0,0.0,0.0,0.0,0.0,0.0,0.0,0.0,0.0,0.0,0.0,0.0,0.0,0.0,0.0,0.0,0.0,0.0,0.0,0.0,0.0,0.0,0.0,0.0,1.8248,2.1529,2.4222,0.0,2.6092,2.6052,2.5959,2.4703,2.2645,1.9693,0.0,0.0,0.0,0.0,0.0,0.0,0.0,0.0,0.0,0.0,0.0,0.0,0.0,0.0,0.0,0.0,0.0,0.0,0.0,0.0,0.0,0.0,0.0,0.0,0.0,0.0,0.0,0.0,0.0,0.0,0.0,0.0,0.0,0.0,0.0,0.0,0.0,0.0,0.0,0.0,0.0,0.0,0.0,0.0,0.0,0.0,0.0,0.0,0.0,0.0,0.0,0.0,0.0,0.0,0.0,0.0,0.0,0.0,0.0,0.0,0.0,0.0,0.0,0.0,0.0,0.0,0.0,0.0,0.0,0.0,0.0,0.0,0.0,0.0,0.0,0.0,0.0,0.0,0.0,0.0,0.0,0.0,0.0,0.0,0.0,0.0,0.0,0.0,0.0,0.0,0.0,0.0,0.0,0.0,0.0,0.0,0.0,0.0,0.0,0.0,0.0,0.0,1.9973,2.3073,2.5411,2.6293,2.6386,2.6279,2.5985,2.4877,2.2953,0.0,0.0,0.0,0.0,0.0,0.0,0.0,0.0,0.0,0.0,0.0,0.0,0.0,0.0,0.0,0.0,0.0,0.0,0.0,0.0,0.0,0.0,0.0,0.0,0.0,0.0,0.0,0.0,0.0,0.0,0.0,0.0,0.0,0.0,0.0,0.0,0.0,0.0,0.0,0.0,0.0,0.0,0.0,0.0,0.0,0.0,0.0,0.0,0.0,0.0,0.0,0.0,0.0,0.0,0.0,0.0,0.0,0.0,0.0,0.0,0.0,0.0,0.0,0.0,0.0,0.0,0.0,0.0,0.0,0.0,0.0,0.0,0.0,0.0,0.0,0.0,0.0,0.0,0.0,0.0,0.0,0.0,0.0,0.0,0.0,0.0,0.0,0.0,0.0,0.0,0.0,0.0,0.0,0.0,0.0,0.0,0.0,0.0,0.0,0.0,0.0,0.0,0.0,2.0334,2.3207,2.5411,2.6293,2.6386,2.636,2.6266,2.5184,2.3247,2.0294,0.0,0.0,0.0,0.0,0.0,0.0,0.0,0.0,0.0,0.0,0.0,0.0,0.0,0.0,0.0,0.0,0.0,0.0,0.0,0.0,0.0,0.0,0.0,0.0,0.0,0.0,0.0,0.0,0.0,0.0,0.0,0.0,0.0,0.0,0.0,0.0,0.0,0.0,0.0,0.0,0.0,0.0,0.0,0.0,0.0,0.0,0.0,0.0,0.0,0.0,0.0,0.0,0.0,0.0,0.0,0.0,0.0,0.0,0.0,0.0,0.0,0.0,0.0,0.0,0.0,0.0,0.0,0.0,0.0,0.0,0.0,0.0,0.0,0.0,0.0,0.0,0.0,0.0,0.0,0.0,0.0,0.0,0.0,0.0,0.0,0.0,0.0,0.0,0.0,0.0,0.0,0.0,0.0,0.0,0.0,0.0,0.0,0.0,0.0,0.0,0.0,0.0,2.0641,2.342,2.5545,2.6306,2.6386,2.6346,2.6226,2.5358,2.3701,2.1096,0.0,0.0,0.0,0.0,0.0,0.0,0.0,0.0,0.0,0.0,0.0,0.0,0.0,0.0,0.0,0.0,0.0,0.0,0.0,0.0,0.0,0.0,0.0,0.0,0.0,0.0,0.0,0.0,0.0,0.0,0.0,0.0,0.0,0.0,0.0,0.0,0.0,0.0,0.0,0.0,0.0,0.0,0.0,0.0,0.0,0.0,0.0,0.0,0.0,0.0,0.0,0.0,0.0,0.0,0.0,0.0,0.0,0.0,0.0,0.0,0.0,0.0,0.0,0.0,0.0,0.0,0.0,0.0,0.0,0.0,0.0,0.0,0.0,0.0,0.0,0.0,0.0,0.0,0.0,0.0,0.0,0.0,0.0,0.0,0.0,0.0,0.0,0.0,0.0,0.0,0.0,0.0,0.0,0.0,0.0,0.0,0.0,0.0,0.0,0.0,0.0,0.0,2.0962,2.3741,2.5772,2.6333,2.6413,2.6306,2.5985,2.5424,2.4195,2.2111,0.0,0.0,0.0,0.0,0.0,0.0,0.0,0.0,0.0,0.0,0.0,0.0,0.0,0.0,0.0,0.0,0.0,0.0,0.0,0.0,0.0,0.0,0.0,0.0,0.0,0.0,0.0,0.0,0.0,0.0,0.0,0.0,0.0,0.0,0.0,0.0,0.0,0.0,0.0,0.0,0.0,0.0,0.0,0.0,0.0,0.0,0.0,0.0,0.0,0.0,0.0,0.0,0.0,0.0,0.0,0.0,0.0,0.0,0.0,0.0,2.3574,0.0,0.0,0.0,0.0,0.0,0.0,0.0,0.0,0.0,0.0,0.0,0.0,0.0,0.0,0.0,0.0,0.0,0.0,0.0,0.0,0.0,0.0,0.0,0.0,0.0,0.0,0.0,0.0,0.0,0.0,0.0,0.0,0.0,0.0,0.0,0.0,0.0,0.0,0.0,0.0,0.0,2.1577,2.4182,2.5999,2.6346,2.66,2.652,2.5999,2.5424,2.4195,2.2111,2.0815,0.0,0.0,0.0,0.0,0.0,0.0,0.0,0.0,0.0,0.0,0.0,0.0,0.0,0.0,0.0,0.0,0.0,0.0,0.0,0.0,0.0,0.0,0.0,0.0,0.0,0.0,0.0,0.0,0.0,0.0,0.0,0.0,0.0,0.0,0.0,0.0,0.0,0.0,0.0,0.0,0.0,0.0,0.0,0.0,0.0,0.0,0.0,0.0,0.0,0.0,0.0,0.0,0.0,0.0,0.0,0.0,0.0,0.0,0.0,0.0,2.4102,0.0,0.0,0.0,0.0,0.0,0.0,0.0,0.0,0.0,0.0,0.0,0.0,0.0,0.0,0.0,0.0,0.0,0.0,0.0,0.0,0.0,0.0,0.0,0.0,0.0,0.0,0.0,0.0,0.0,0.0,0.0,0.0,0.0,0.0,0.0,0.0,0.0,0.0,0.0,0.0,2.2164,2.4489,2.6172,2.6747,2.6814,2.6587,2.6012,2.5545,2.4649,2.314,2.1951,0.0,0.0,0.0,0.0,0.0,0.0,0.0,0.0,0.0,0.0,0.0,0.0,0.0,0.0,0.0,0.0,0.0,0.0,0.0,0.0,0.0,0.0,0.0,0.0,0.0,0.0,0.0,0.0,0.0,0.0,0.0,0.0,0.0,0.0,0.0,0.0,0.0,0.0,0.0,0.0,0.0,0.0,0.0,0.0,0.0,0.0,0.0,0.0,0.0,0.0,0.0,0.0,0.0,0.0,2.832,2.9082,2.9082,2.9512,3.0098,2.7519,2.6973,2.7715,0.0,0.0,0.0,0.0,0.0,0.0,0.0,0.0,0.0,0.0,0.0,0.0,0.0,0.0,0.0,0.0,0.0,0.0,0.0,0.0,0.0,0.0,0.0,0.0,0.0,2.0067,2.0075,0.0,0.0,0.0,0.0,0.0,0.0,0.0,0.0,0.0,0.0,0.0,0.0,2.2899,2.489,2.6413,2.7188,2.7094,2.6694,2.6012,2.5732,2.5197,2.4262,2.3046,2.1804,0.0,0.0,0.0,0.0,0.0,0.0,0.0,0.0,0.0,0.0,0.0,0.0,0.0,0.0,0.0,0.0,0.0,0.0,0.0,0.0,0.0,0.0,0.0,0.0,0.0,0.0,0.0,0.0,0.0,0.0,0.0,0.0,2.3594,2.418,0.0,0.0,0.0,0.0,0.0,0.0,0.0,0.0,0.0,0.0,0.0,0.0,0.0,0.0,2.7324,2.8789,2.959,2.9707,3.0918,3.1738,3.2207,3.2207,3.2461,3.2871,3.2109,0.0,2.8691,2.7988,0.0,0.0,0.0,0.0,0.0,0.0,0.0,0.0,0.0,0.0,0.0,0.0,0.0,0.0,0.0,0.0,0.0,0.0,0.0,0.0,0.0,0.0,2.428,2.6181,2.5716,2.4788,0.0,2.0713,1.7261,1.678,0.0,0.0,0.0,0.0,0.0,0.0,0.0,0.0,2.4075,2.5745,2.6854,2.7228,2.7455,2.7148,2.6052,2.5919,2.5411,2.4275,2.4022,2.3153,2.1443,2.0989,0.0,0.0,0.0,0.0,0.0,0.0,0.0,0.0,0.0,0.0,0.0,0.0,0.0,0.0,0.0,0.0,0.0,0.0,0.0,0.0,0.0,0.0,0.0,0.0,0.0,0.0,0.0,0.0,0.0,2.291,2.4219,2.5391,2.416,2.3301,0.0,0.0,0.0,0.0,0.0,0.0,0.0,0.0,0.0,2.8184,2.8613,2.9375,3.0527,3.1289,3.1894,3.2383,3.2969,3.3457,3.3867,3.3867,3.3965,3.4121,3.3945,3.3086,3.168,3.0059,2.8691,2.75,0.0,0.0,0.0,0.0,0.0,2.4542,2.5071,0.0,0.0,0.0,0.0,0.0,0.0,0.0,0.0,0.0,0.0,0.0,0.0,0.0,0.0,2.8428,2.824,2.7541,2.6466,2.4319,2.1982,0.0,1.8971,1.8384,1.7007,0.0,0.0,0.0,0.0,0.0,2.485,2.6119,2.7068,2.7696,2.7575,2.7175,2.6507,2.5985,2.5411,2.4743,2.4543,2.4022,2.3086,2.1964,2.0481,0.0,0.0,0.0,0.0,0.0,0.0,0.0,0.0,0.0,0.0,0.0,0.0,0.0,0.0,0.0,0.0,0.0,0.0,0.0,0.0,0.0,0.0,0.0,0.0,0.0,0.0,0.0,0.0,2.418,2.543,2.6719,2.582,2.5059,0.0,0.0,0.0,0.0,0.0,0.0,2.7969,2.8105,2.9101,3.1113,3.1191,3.1855,3.3262,3.3281,3.3613,3.4238,3.4238,3.4453,3.4883,3.4883,3.4941,3.5039,3.4922,3.4707,3.4238,3.2109,3.0762,2.998,2.9023,2.832,2.7824,2.7676,2.8195,2.8914,2.931,2.9982,3.0373,2.9107,0.0,2.6439,2.4999,0.0,0.0,0.0,0.0,2.4134,2.7582,0.0,2.9353,3.0611,3.0685,2.9776,2.799,2.6952,2.5481,0.0,2.1122,2.0321,1.8771,0.0,0.0,0.0,0.0,2.3768,2.5611,2.6413,2.7134,2.7949,2.7575,2.7121,2.6747,2.6119,2.5545,2.5104,2.4877,2.4583,2.4222,2.2859,2.1697,2.0802,0.0,0.0,0.0,0.0,0.0,0.0,0.0,0.0,0.0,0.0,0.0,0.0,0.0,0.0,0.0,0.0,0.0,0.0,0.0,0.0,0.0,0.0,0.0,0.0,0.0,0.0,0.0,0.0,0.0,2.8184,2.8476,0.0,0.0,0.0,0.0,2.748,2.793,2.8926,3.0605,3.1074,3.209,3.3828,3.3867,3.4101,3.4609,3.4609,3.4629,3.4668,3.4668,3.4902,3.5351,3.5351,3.5566,3.5937,3.5527,3.5351,3.5254,3.4277,3.291,3.1406,3.1348,3.0801,3.0137,3.0918,3.1601,3.207,3.2825,3.3116,3.3164,3.2611,3.0443,2.8145,2.9391,2.7381,0.0,0.0,2.8096,2.8128,3.1007,3.2124,3.2856,3.4643,3.396,3.2542,3.0543,2.8066,2.5687,0.0,2.3594,2.3273,2.2311,0.0,2.2472,2.3046,2.3474,2.4462,2.6493,2.6787,2.7054,2.7655,2.7442,2.7028,2.6453,2.6373,2.5985,2.513,2.5064,2.4796,2.4222,2.3848,2.2846,2.1122,2.0441,0.0,0.0,0.0,0.0,0.0,0.0,0.0,0.0,0.0,0.0,0.0,0.0,0.0,0.0,0.0,0.0,0.0,0.0,0.0,0.0,0.0,0.0,0.0,0.0,0.0,0.0,0.0,0.0,2.9141,2.9492,0.0,2.916,2.9355,2.9687,3.0117,3.1309,3.2402,3.3301,3.3476,3.3984,3.4902,3.4629,3.4687,3.5137,3.5137,3.5273,3.5547,3.5547,3.5644,3.5801,3.5801,3.5879,3.6016,3.5859,3.5801,3.5781,3.5449,3.4629,3.3574,3.3574,3.3379,3.3125,3.3457,3.3672,3.3848,3.4141,3.4238,3.418,3.375,3.2836,3.1988,3.2513,3.0971,2.9618,3.2298,3.2095,3.1443,3.3932,3.4678,3.4948,3.5646,3.5335,3.4158,3.1017,2.9591,2.7958,2.487,2.3875,2.3313,2.2792,2.35,2.4008,2.3661,2.4663,2.5852,2.6961,2.7268,2.7468,2.7682,2.7442,2.7108,2.6707,2.6319,2.5892,2.5384,2.5184,2.4823,2.4222,2.3928,2.338,2.2552,2.2138,2.0535,0.0,0.0,0.0,0.0,0.0,0.0,0.0,0.0,0.0,0.0,0.0,0.0,0.0,0.0,0.0,0.0,0.0,0.0,0.0,0.0,0.0,0.0,0.0,0.0,0.0,0.0,3.0527,3.0254,3.1113,3.1543,3.1133,3.1894,3.2578,3.3008,3.3965,3.4766,3.5332,3.5371,3.5508,3.582,3.5527,3.5449,3.5605,3.5605,3.5742,3.6016,3.6016,3.6016,3.6016,3.6016,3.6016,3.6016,3.6016,3.6016,3.6016,3.6016,3.5684,3.5137,3.498,3.4941,3.4941,3.4941,3.5019,3.5156,3.5156,3.5059,3.4883,3.4609,3.4414,3.4316,3.4473,3.3707,3.3161,3.5123,3.4757,3.4097,3.5665,3.6016,3.6055,3.6211,3.623,3.5268,3.1514,3.0673,2.952,2.5648,2.4302,2.3741,2.3634,2.4422,2.4917,2.4436,2.5518,2.656,2.7054,2.7375,2.7589,2.7682,2.7348,2.7041,2.6841,2.6106,2.5625,2.5518,2.505,2.4609,2.4222,2.3634,2.318,2.2886,2.2378,2.1029,1.8784,0.0,0.0,0.0,0.0,0.0,0.0,0.0,0.0,0.0,0.0,0.0,0.0,0.0,0.0,0.0,0.0,0.0,0.0,0.0,0.0,0.0,0.0,0.0,2.9101,3.0547,3.166,3.166,3.3496,3.459,3.418,3.4902,3.5586,3.6016,3.5664,3.582,3.666,3.6719,3.6699,3.6699,3.668,3.6484,3.6035,3.6055,3.6055,3.6055,3.6055,3.6055,3.6055,3.6055,3.6055,3.6055,3.6055,3.6055,3.6035,3.6035,3.6035,3.5976,3.5566,3.541,3.541,3.541,3.5664,3.6016,3.6016,3.5742,3.541,3.541,3.5117,3.4824,3.5273,3.541,3.5488,3.5898,3.6016,3.6016,3.6016,3.6035,3.6152,3.6562,3.668,3.5781,3.2193,3.1383,3.0219,2.6254,2.505,2.4756,2.5037,2.5104,2.5224,2.5504,2.6052,0.0,2.6814,2.7108,2.7388,2.7642,2.7161,2.6814,2.68,2.5758,2.5224,2.5504,2.473,2.4235,2.4209,2.3086,2.2325,2.2017,2.1136,2.0535,2.0227,0.0,0.0,0.0,0.0,0.0,0.0,0.0,0.0,0.0,0.0,0.0,0.0,0.0,0.0,0.0,0.0,0.0,0.0,0.0,0.0,0.0,0.0,3.2207,3.1797,3.3496,3.4785,3.4785,3.5586,3.5957,3.5527,3.5703,3.6016,3.6465,3.668,3.7012,3.7539,3.7578,3.7441,3.7129,3.7129,3.6914,3.6484,3.6797,3.6953,3.6953,3.6953,3.6953,3.6953,3.6953,3.6953,3.6953,3.6953,3.6777,3.6484,3.6484,3.6309,3.6016,3.5898,3.5859,3.5859,3.5859,3.5918,3.6016,3.6016,3.5937,3.5859,3.5859,3.5762,3.5684,3.5801,3.5859,3.5879,3.5996,3.6016,3.6016,3.6016,3.625,3.6523,3.6641,3.6894,3.6123,3.2244,3.1383,3.0219,2.6254,2.5384,2.5291,2.5384,2.5745,2.6052,2.6132,2.6827,0.0,2.7442,2.7722,2.7682,2.7121,2.6921,2.6653,2.6226,2.5905,2.5745,2.5825,2.5611,2.509,2.4235,2.3888,2.3367,2.2632,2.1336,2.0535,0.0,0.0,0.0,0.0,0.0,0.0,0.0,0.0,0.0,0.0,0.0,0.0,0.0,0.0,0.0,0.0,0.0,0.0,0.0,0.0,0.0,0.0,3.3105,3.4609,3.4902,3.5879,3.6562,3.6562,3.6934,3.709,3.6836,3.6973,3.7187,3.7441,3.7695,3.8008,3.8437,3.8301,3.8086,3.7851,3.7656,3.7363,3.6934,3.7168,3.7305,3.7305,3.7305,3.7305,3.7305,3.7305,3.7305,0.0,3.7305,3.7168,3.6934,3.6934,3.6777,0.0,0.0,0.0,0.0,0.0,3.6016,3.6016,3.6016,3.6016,3.6016,3.6016,3.6016,3.6055,3.623,3.6289,3.6328,3.6504,3.6562,3.6562,3.6562,3.6738,3.6973,3.7148,3.7383,3.6561,3.2719,3.1861,3.0712,2.679,0.0,0.0,2.6226,2.6333,2.6426,2.6547,2.7215,2.7655,2.7535,2.7883,2.7949,2.7428,2.7268,2.7054,2.672,2.6119,0.0,0.0,0.0,2.4877,2.3688,2.3527,0.0,0.0,0.0,0.0,0.0,0.0,0.0,0.0,1.6766,1.4871,0.0,0.0,0.0,0.0,0.0,0.0,0.0,0.0,0.0,0.0,0.0,0.0,0.0,0.0,0.0,0.0,3.5014,3.6641,3.7832,3.7676,3.7441,3.7441,3.7773,3.7988,3.7988,3.8359,3.8574,3.8574,3.8613,3.8789,3.9121,0.0,0.0,0.0,0.0,3.7793,3.7363,3.7422,3.7441,3.7441,3.7441,3.7441,3.7441,3.7441,3.7441,3.7441,3.7441,3.7422,3.7363,3.7363,3.7344,3.7226,3.6465,3.6172,3.6172,3.6172,3.6172,0.0,0.0,0.0,0.0,3.6172,3.6172,3.623,3.6621,3.6738,3.6816,3.7187,3.7305,3.7305,3.7305,3.7324,3.748,3.7891,3.8027,3.6986,3.3449,3.2621,3.149,2.7602,2.6867,2.6961,2.7268,2.6881,2.6627,2.6881,2.7388,2.7655,2.7402,2.7816,2.8123,2.8056,0.0,0.0,2.7602,2.6413,2.5865,2.636,2.5291,2.4168,2.31,2.2739,2.2325,2.1817,2.151,2.1871,2.2913,2.2645,2.2819,2.3174,1.8363,1.6032,0.0,0.0,0.0,0.0,0.0,0.0,0.0,0.0,0.0,0.0,0.0,0.0,0.0,0.0,0.0,3.7032,3.7525,3.7773,3.8359,3.8379,3.832,3.832,3.8398,3.8457,3.8457,3.8535,3.8574,3.8574,3.8887,3.8965,3.8711,3.8945,0.0,3.8066,3.8301,3.8242,3.7812,3.8144,3.832,3.832,0.0,0.0,3.832,3.832,3.832,3.832,3.832,3.8125,3.7812,3.7812,3.7598,3.7285,3.7109,3.7051,3.7051,3.7051,3.7051,3.7051,3.7051,3.7051,3.7051,3.7051,3.7051,3.707,3.7148,3.7168,0.0,3.7266,3.7305,3.7305,3.7305,3.7539,3.791,3.834,3.8711,3.7987,3.4212,3.338,3.2142,2.796,2.7175,2.7268,2.7562,2.7522,2.7468,2.7522,2.7829,2.803,2.7976,2.807,2.7963,2.7482,2.7388,2.7255,2.7014,2.6734,2.652,2.64,2.5291,2.4529,2.4302,2.3794,2.346,2.334,2.3046,2.3006,2.3233,2.318,2.334,2.3661,2.2297,2.0257,0.0,0.0,0.0,0.0,0.0,0.0,0.0,0.0,0.0,0.0,0.0,3.1395,0.0,0.0,3.6275,3.8975,3.8768,3.832,3.8555,3.8574,3.8574,3.8574,3.8574,3.8652,3.8867,3.8887,3.8887,3.8887,3.9082,3.9101,3.8906,3.8887,3.8789,3.8574,3.8574,3.8574,3.8555,3.8789,3.9004,3.9238,3.9238,3.9238,3.9238,3.9238,3.9101,3.8887,3.8887,3.8652,3.8242,3.8242,3.8125,3.793,3.793,3.7676,3.7305,3.7305,3.7305,3.7305,3.7305,3.7305,3.7305,3.7305,3.7305,3.7344,3.7539,3.7617,3.7656,3.7871,3.793,3.7988,3.8203,3.8398,3.8672,3.9121,3.8609,3.7099,3.4172,3.2791,3.1106,2.8099,2.7482,2.7575,2.7869,2.7923,2.7923,2.7923,2.8043,2.8136,2.8136,2.8136,2.803,2.7736,2.7709,2.7642,2.7495,2.7215,2.68,2.6213,2.5478,2.4943,2.4649,2.4222,2.3915,2.3768,2.3621,2.3554,2.3554,2.3554,2.3701,2.3981,2.3981,2.2493,0.0,0.0,0.0,0.0,0.0,0.0,0.0,0.0,3.2323,3.2963,3.4393,3.615,3.8711,3.9037,3.9252,4.0707,3.99,3.903,3.8837,3.8691,3.873,3.8828,3.875,3.8867,3.9297,3.9336,3.9297,3.9199,3.9277,3.9297,3.9199,3.8965,3.8984,3.9316,3.9004,3.8984,3.9336,3.9336,3.9531,3.9902,3.9902,3.9902,3.9902,3.9902,3.9687,3.9336,3.9336,3.9101,3.8691,3.8691,3.8652,3.8574,3.8574,3.8203,3.7656,3.7578,3.7539,3.7539,3.7539,3.7539,3.7539,3.7539,3.7539,3.7617,3.7949,3.8047,3.8144,3.8574,3.8691,3.8789,3.9219,3.9336,3.9453,3.9902,3.827,3.623,3.425,3.2044,3.0056,2.822,2.7789,2.7883,2.8177,2.823,2.8217,2.815,2.8136,2.8136,2.8136,2.8136,2.8136,2.8136,2.8096,2.803,2.7976,2.7428,2.6787,2.6092,2.5705,2.5277,2.4743,2.4502,2.4235,2.3941,2.3888,2.3848,2.3848,2.3848,2.4035,2.4382,2.4676,2.383,3.2817,3.2566,3.2867,3.3922,3.3547,3.3687,0.0,0.0,3.4612,3.6203,3.7675,3.9694,4.2848,4.2788,4.2571,4.3507,4.2107,4.0494,3.9357,3.9141,3.9277,3.9707,3.9375,3.9316,3.9766,3.9824,3.9648,3.9238,3.959,3.9629,3.9219,3.9551,3.9766,3.9824,3.9766,3.9766,3.9824,3.9824,3.9844,3.9902,3.9902,3.9902,3.9902,3.9902,3.9863,3.9824,3.9824,3.9551,3.9141,3.9141,3.8906,3.8574,3.8574,3.875,3.8945,3.8574,3.8437,3.8437,3.8437,3.8437,3.8437,3.8437,3.8437,3.8437,3.8496,3.8496,3.8594,3.9004,3.9141,3.9238,3.9707,3.9824,3.9922,4.0351,3.8855,3.6709,3.4953,3.2912,3.0656,2.8574,2.8096,2.819,2.8497,2.8551,2.8457,2.819,2.8136,2.8136,2.8136,2.8136,2.8136,2.8136,2.7909,2.7642,2.7388,2.6827,2.644,2.6346,2.5825,2.5371,2.5037,2.4997,2.4836,2.4543,2.4289,2.4155,2.4155,2.4155,2.4436,2.4983,2.5277,2.4201,3.5504,3.5705,0.0,0.0,3.707,3.7517,3.9414,3.9306,3.9298,4.066,4.2011,4.3336,4.5085,4.4714,4.4055,0.0,4.2258,4.0698,3.9101,3.8828,3.9004,3.9434,3.9316,3.9473,4.0195,3.9805,3.9629,3.9941,3.9922,3.9805,3.9609,3.9785,3.9902,3.9902,3.9902,4.0019,4.0254,4.0254,4.0391,4.0644,4.0644,4.0644,4.0644,4.0644,4.0508,4.0254,4.0,3.9785,3.9609,3.9609,3.9512,3.9336,3.9336,3.9453,3.9531,3.8828,3.873,3.8945,3.8945,3.8945,3.8984,3.9258,3.9336,3.9336,3.9336,3.9336,3.9375,3.9551,3.9609,3.9707,4.0156,4.0254,4.0371,4.0801,3.831,3.5543,3.4675,3.1915,2.9286,2.8305,2.8283,2.8511,2.8804,2.8858,2.8818,2.8684,2.8657,2.8657,2.8657,2.8524,2.827,2.7923,2.7615,2.7335,2.7028,2.6787,2.6493,2.6159,2.5905,2.5638,2.5344,2.5331,2.5277,2.5144,2.5024,2.497,2.497,2.497,2.5184,2.5598,2.5718,2.54,3.7086,3.7688,0.0,3.9346,4.0074,4.0877,4.2007,4.2559,4.3112,4.4066,4.5045,4.5874,4.6426,4.6265,4.5596,4.4249,4.2848,4.1383,3.969,3.9023,3.8906,3.9336,3.9277,3.9512,4.0273,3.9883,3.9785,4.0312,4.0176,4.0078,4.0078,4.0078,4.0117,4.0234,4.0254,4.0391,4.0703,4.0703,4.0859,4.1172,4.1172,4.1172,4.1172,4.1172,4.0996,4.0684,4.0391,4.0176,4.0078,4.0078,4.0,3.9902,3.9902,3.9961,3.998,3.9219,3.9121,3.9394,3.9394,3.9394,3.9453,3.9785,3.9902,3.9902,3.9902,3.9902,3.9922,4.0039,4.0078,4.0156,4.0586,4.0703,4.0762,4.0957,3.7751,3.4404,3.4041,3.087,2.8043,2.8123,2.839,2.8724,2.9098,2.9098,2.9072,2.9152,2.9085,2.9045,2.9045,2.8791,2.8404,2.7883,2.7482,2.7148,2.6854,2.6747,2.652,2.6106,2.6079,2.5945,2.5651,2.5638,2.5598,2.5518,2.5518,2.5518,2.5518,2.5518,2.5665,2.5959,2.5959,2.6266,3.7186,3.799,3.922,4.0852,4.2082,4.3162,4.4267,4.4543,4.4719,4.5321,4.5899,4.6451,4.7004,4.7407,4.7431,4.6121,4.4474,4.2914,4.2015,4.0318,3.9355,3.9824,3.9473,3.9394,0.0,4.0254,4.0332,3.9941,4.0273,4.0508,4.0508,4.0508,4.0703,4.1113,4.1133,4.1133,4.1152,4.1152,4.1172,4.1172,4.1172,4.1172,4.1172,4.1172,4.1172,4.1152,4.1133,4.0898,4.0508,4.0508,4.0273,3.9902,3.9902,4.0156,4.0449,4.0019,3.9863,3.9883,3.9883,3.9883,3.9883,3.9883,3.9902,3.9902,3.9902,3.9902,3.998,4.0391,4.0508,4.0605,4.1035,4.1152,4.1055,4.0644,3.7319,3.4183,3.3677,3.0543,2.7802,2.8083,2.839,2.8791,2.9366,2.9232,2.9138,2.9432,2.9219,2.9045,2.9045,2.8791,2.8484,2.8163,2.7615,2.7148,2.6854,2.656,2.64,2.6373,2.6373,2.6239,2.5959,2.5945,2.5812,2.5518,2.5518,2.5518,2.5518,2.5518,2.5665,2.5959,2.5959,2.6266,3.8642,3.9923,4.1354,4.266,4.3514,4.4267,4.502,4.5196,4.5347,4.5924,4.6175,4.6376,4.6552,4.6118,4.5199,4.3854,4.2478,4.1144,3.9959,3.9208,3.8848,3.9004,3.8887,0.0,0.0,0.0,0.0,4.0254,4.0195,4.0351,4.0918,4.0957,4.1016,4.1172,4.1172,4.1172,4.1172,4.1172,4.1172,4.1172,4.1172,4.1172,4.1172,4.1172,4.1172,4.1172,4.1172,4.1094,4.0957,4.0957,4.0859,4.0742,4.0742,4.084,4.0898,4.0469,4.0488,4.0703,4.041,4.0312,4.0351,4.0644,4.0742,4.0742,4.0742,4.0742,4.0781,4.0918,4.0957,4.0996,4.1133,4.0957,4.0376,3.8794,3.6148,3.3411,3.1872,2.9569,2.7789,2.8083,2.839,2.8724,2.9125,2.9112,2.9072,2.9179,2.9098,2.9045,2.9045,2.8604,2.8257,2.815,2.7615,2.7148,2.6854,2.6734,2.66,2.64,2.6386,2.6346,2.6253,2.6239,2.6199,2.6092,2.6092,2.6092,2.6092,2.6092,2.6146,2.6239,2.6239,2.6453,4.0174,4.148,4.276,4.4066,4.4669,4.507,4.5648,4.5773,4.5874,4.6225,4.615,4.6024,4.6024,4.489,4.3805,4.3173,4.1586,4.0236,3.9593,3.8991,3.8574,3.8574,3.8711,3.8789,0.0,0.0,0.0,4.0234,4.0332,4.0586,4.1152,4.1172,4.1172,4.1172,4.1172,4.125,4.1387,4.1387,4.1484,4.1621,4.1621,4.1621,4.1621,4.1621,4.1543,4.1387,4.1387,4.1308,4.1172,4.1172,4.1172,4.1152,4.0996,4.0937,4.0898,4.0449,4.0488,4.0703,4.0566,4.0625,4.0801,4.1074,4.1172,4.1172,4.1172,4.1172,4.1172,4.1172,4.1055,4.0937,4.0937,4.0125,3.8858,3.7431,3.4844,3.2158,3.074,2.8931,2.7789,2.8083,2.839,2.8698,2.8991,2.8951,2.8845,2.8738,2.8724,2.8791,2.9005,2.8617,2.831,2.831,2.7776,2.7348,2.7148,2.6947,2.6747,2.656,2.6453,2.6386,2.6386,2.6386,2.6386,2.6386,2.6386,2.6386,2.6386,2.6386,2.6386,2.6386,2.6386,2.6493,4.1656,4.266,4.3489,4.5121,4.5522,4.5673,4.6175,4.6301,4.6301,4.6225,4.5799,4.5422,0.0,0.0,4.2985,4.4049,4.1772,4.0159,4.1059,3.9674,3.8574,0.0,0.0,0.0,0.0,0.0,0.0,3.9922,0.0,4.1152,4.1172,4.1172,4.1172,4.1172,4.1191,4.1387,4.1797,4.1816,4.2031,4.2422,4.2422,4.2422,4.2422,4.2422,4.2207,4.1836,4.1836,4.1601,4.123,4.1211,4.1211,4.1152,4.0703,4.0527,4.0469,4.0019,3.9883,3.9941,4.0332,4.0742,4.1113,4.1113,4.1113,4.1113,4.1113,4.1113,4.1113,4.1113,4.0801,4.0488,4.0488,3.8745,3.6877,3.6569,3.3405,3.058,3.029,2.8945,2.7789,2.8083,2.8377,2.8671,2.8951,2.8764,2.8484,2.819,2.8136,2.835,2.8938,2.8764,2.8591,2.8604,2.8083,2.7709,2.7696,2.7188,2.6854,2.6827,2.656,2.64,2.6386,2.6386,2.6386,2.6386,2.6386,2.6386,2.6386,2.6386,2.6386,2.6386,2.6386,2.6386,4.3011,4.4091,4.5045,4.5899,4.61,4.6125,4.6276,4.6301,4.6075,4.5221,4.4945,4.4593,0.0,0.0,0.0,4.1565,3.9572,0.0,3.9141,3.8846,0.0,3.9004,0.0,3.9336,3.9687,4.0117,0.0,0.0,4.0566,4.084,4.1152,4.1172,4.1172,4.1172,4.1484,4.1699,4.1797,4.2109,4.2324,4.2422,4.2422,4.2422,4.2422,4.2422,4.2363,4.2266,4.2266,4.2207,4.209,4.1777,4.1641,4.1562,4.082,4.0527,4.043,3.9668,3.9609,3.9863,3.9629,3.9844,4.0215,4.0215,4.0215,4.0215,4.0215,4.0215,4.0215,4.0215,4.0137,4.0059,4.0059,3.9658,3.831,3.5141,3.3578,3.1903,2.8973,2.796,2.7789,2.8083,2.8203,2.8283,2.8364,2.831,2.823,2.815,2.8136,2.8283,2.8671,2.8457,2.835,2.8577,2.8257,2.7936,2.7722,2.7562,2.7295,2.6854,2.6747,2.6613,2.64,2.6386,2.6386,2.6386,2.6386,2.6386,2.6386,2.6386,2.6386,2.6386,2.6386,2.6386,4.4166,4.5171,4.5924,4.6225,4.6301,4.6175,4.5698,4.5573,4.5053,4.2988,4.3173,4.315,4.1583,4.1022,4.0569,0.0,0.0,0.0,3.8622,3.873,3.8945,0.0,3.9551,0.0,4.0156,4.0566,4.0801,0.0,4.0801,4.0918,4.1172,4.1348,4.1445,4.1445,4.1855,4.2168,4.2363,4.2773,4.2988,4.2988,4.2988,4.2988,4.2988,4.2988,4.2891,4.2715,0.0,4.2598,4.2402,4.2168,4.207,4.1992,4.1133,4.0801,4.0703,3.9824,3.9668,3.9863,3.959,3.9668,3.9902,3.9902,3.9902,3.9902,3.9902,3.9902,3.9902,3.9902,3.9902,3.9902,3.9902,3.9259,3.7718,3.4564,3.3175,3.1687,2.8634,2.7896,2.7949,2.811,2.8136,2.8136,2.8136,2.8136,2.8136,2.8136,2.8136,2.8203,2.8377,2.8243,2.8217,2.839,2.8243,2.807,2.7909,2.7776,2.7509,2.7041,2.6894,2.6694,2.64,2.6386,2.6386,2.6386,2.6386,2.6386,2.6386,2.6386,2.6386,2.6386,2.6386,2.6386,4.5171,4.5949,4.6301,4.6301,4.6301,4.6024,4.4895,4.4452,4.3416,4.054,4.0647,4.0832,3.9038,4.0082,4.093,3.9803,4.0046,3.9798,3.8787,3.8945,3.9219,3.9297,4.0019,4.0547,4.0605,4.0957,4.1191,4.125,4.125,4.125,4.125,4.166,4.1914,4.1973,4.2324,4.2715,4.3164,4.3516,4.3711,4.3711,4.3711,4.3711,4.3711,4.3711,4.3496,4.3164,0.0,0.0,4.2578,4.248,4.2422,4.2344,4.1445,4.1094,4.0996,4.0195,3.9902,3.9902,3.9902,3.9902,3.9902,3.9902,3.9902,3.9902,3.9902,3.9902,3.9902,3.9902,3.9902,3.9902,3.9902,3.8652,3.6731,3.4518,3.2711,3.0899,2.8742,2.8136,2.8136,2.8136,2.8136,2.8136,2.8136,2.8136,2.8136,2.8136,2.8136,2.8136,2.8136,2.8136,2.8136,2.8136,2.8136,2.8136,2.8136,2.7909,2.7629,2.7348,2.7081,2.6787,2.6466,2.6453,2.6426,2.6386,2.6386,2.6386,2.6386,2.6386,2.6386,2.6386,2.6386,2.6386,4.5824,4.6225,4.6301,4.6301,4.6301,4.6024,4.4895,4.3407,4.1668,3.9283,3.795,3.7012,3.6177,3.645,3.6955,3.7824,3.7949,3.8082,3.8457,3.8945,3.9336,3.9726,4.0215,4.0664,4.1035,4.1133,0.0,0.0,0.0,4.1699,4.1699,4.209,4.248,4.2851,4.293,4.3164,4.3594,4.3672,4.3711,4.3711,4.3711,4.3711,4.3711,4.3711,4.3672,4.3594,0.0,0.0,4.3418,4.2715,4.2422,4.2305,4.1094,4.0644,4.0586,4.0078,3.9902,3.9902,3.9902,3.9902,3.9902,3.9902,3.9902,3.9902,3.9902,3.9902,3.9902,3.9902,3.9902,3.9902,3.9902,3.9833,3.8836,3.4885,3.4016,3.2959,2.9118,2.8136,2.8136,2.8136,2.8136,2.8136,2.8136,2.8136,2.8136,2.8136,2.8136,2.8136,2.8136,2.8136,2.8136,2.8136,2.8136,2.8136,2.8136,2.8096,2.7936,2.7642,2.7575,2.7308,2.6774,2.6747,2.664,2.6386,2.6386,2.6386,2.6386,2.6386,2.6386,2.6386,2.6386,2.6386,4.5999,4.6301,4.6301,4.6301,4.6301,4.5773,4.379,4.2046,3.9944,3.6424,3.5436,3.4773,3.3704,3.5315,3.6803,3.6875,3.778,3.8346,3.8249,3.8789,3.9375,3.9844,4.0469,4.0937,4.1152,4.1172,4.1348,0.0,0.0,4.2129,4.2129,4.2539,4.2969,4.3398,4.3398,4.3496,4.3711,4.3711,4.3711,4.3711,4.3711,4.3711,4.3711,4.3711,4.3711,4.3711,4.3711,0.0,4.334,4.293,4.2637,4.2344,4.1504,4.1191,4.1133,4.0723,4.0566,4.0566,4.0566,4.0566,4.0566,4.0566,4.0254,3.9902,3.9902,3.9902,3.9902,3.9902,4.0059,4.0215,4.0215,4.0547,3.9736,3.5366,3.2749,3.0759,2.8628,2.8136,2.8136,2.8136,2.8136,2.8136,2.8136,2.8136,2.8136,2.8136,2.8136,2.8136,2.8136,2.8136,2.8136,2.8136,2.8136,2.8136,2.8136,2.8136,2.8016,2.7722,2.7696,2.7509,2.7068,2.6907,2.676,2.6613,2.6466,2.6386,2.6386,2.6386,2.6386,2.6386,2.6386,2.6386,4.5999,4.6301,4.6301,4.6301,4.6225,4.5447,4.276,4.0918,3.8556,3.4071,3.3488,3.3276,3.1709,3.4388,3.6653,3.6102,3.7467,3.833,3.7916,3.8652,3.9375,3.9844,4.0644,4.1172,4.1172,4.1172,0.0,0.0,0.0,0.0,4.2695,4.3027,4.3359,4.3691,4.3711,4.3711,4.3711,4.3711,4.3711,4.3711,4.3711,4.3711,4.3711,4.3711,4.3711,4.3691,4.3613,0.0,0.0,4.2871,4.2598,4.2246,4.1836,4.166,4.1621,4.1289,4.1172,4.1172,4.1172,4.1172,4.1172,4.1172,4.0723,4.0176,4.0176,4.0176,4.0176,4.0176,4.041,4.0664,4.0664,4.0918,4.004,3.5799,3.1407,2.8136,2.8136,2.8136,2.8136,2.8136,2.8136,2.8136,2.8136,2.8136,2.8136,2.8136,2.8136,2.8136,2.8136,2.8136,2.8136,2.8136,2.8136,2.8136,2.8136,2.8136,2.8043,2.7802,2.7789,2.7669,2.7375,2.7134,2.6947,2.6827,2.66,2.6453,2.6386,2.6386,2.6386,2.6386,2.6386,2.6386,4.5999,4.6301,4.6301,4.6301,4.5924,4.497,4.2685,4.0354,3.7571,3.3935,3.3115,3.2569,3.0638,3.2289,3.4134,3.4685,3.5382,3.621,3.7695,3.8652,3.9375,3.9844,4.0644,4.1172,4.1172,4.1172,0.0,0.0,0.0,0.0,4.3574,4.3633,4.3672,4.3711,4.3711,4.3711,4.3711,4.3711,4.3711,4.3711,4.3711,4.3711,4.3711,4.3711,4.3711,4.3691,0.0,0.0,0.0,4.2246,4.1894,4.1816,4.1387,4.123,4.123,4.1191,4.1172,4.1172,4.1172,4.1172,4.1172,4.1172,4.1113,4.1055,4.1055,4.1055,4.1055,4.1055,4.1094,4.1113,4.1113,4.1152,4.004,3.5799,3.1407,2.8136,2.8136,2.8136,2.8136,2.8136,2.8136,2.8136,2.8136,2.8136,2.8136,2.8136,2.8136,2.8136,2.8136,2.8136,2.8136,2.8136,2.8136,2.8136,2.8136,2.8136,2.8136,2.8096,2.8096,2.7963,2.7669,2.7629,2.7362,2.6827,2.68,2.6653,2.6386,2.6386,2.6386,2.6386,2.6386,2.6386,4.5924,4.6301,4.6301,4.6301,4.5899,4.4819,4.2258,4.0035,3.7358,3.3526,3.2869,3.2459,3.0247,3.1747,3.3437,3.3867,3.4316,3.5195,3.6934,3.7891,3.8691,3.9394,4.0254,4.0879,0.0,0.0,0.0,0.0,0.0,0.0,4.3691,4.3711,4.3711,4.3711,4.3711,4.3711,4.3711,4.3711,4.3711,4.3711,4.3711,4.3711,4.3711,4.3711,4.3711,4.3691,0.0,0.0,0.0,4.2148,4.1797,4.1758,4.1348,4.1172,4.1172,4.1172,4.1172,4.1172,4.1172,4.1172,4.1172,4.1172,4.1172,4.1172,4.1172,4.1172,4.1172,4.1172,4.1172,4.1172,4.1172,3.9216,3.6762,3.5137,3.1407,2.8136,2.8136,2.8136,2.8136,2.8136,2.8136,2.8136,2.8136,2.8136,2.8136,2.8136,2.8136,2.8136,2.8136,2.8136,2.8136,2.8136,2.8136,2.8136,2.8136,2.8136,2.8136,2.8136,2.8136,2.8096,2.7976,2.7789,2.7509,2.7094,2.7094,2.6854,2.6386,2.656,2.656,2.6386,2.6386,2.6386,4.5799,4.6301,4.6301,4.6301,4.5522,4.4141,4.1856,3.9734,3.7163,3.3164,3.3444,3.3434,3.0229,3.1799,3.3623,3.3218,3.3711,3.4687,3.6426,3.7402,3.8242,3.9101,3.998,4.0644,0.0,0.0,0.0,0.0,0.0,0.0,0.0,4.3711,4.3711,4.3711,4.3711,4.3711,4.3711,4.3711,4.3711,4.3711,4.3711,4.3711,4.3711,4.3711,4.3711,4.3672,0.0,0.0,0.0,4.2012,4.168,4.1758,4.1348,4.1172,4.1172,4.1172,4.1172,4.1172,4.1172,4.1172,4.1172,4.1172,4.1172,4.1172,4.1172,4.1172,4.1172,4.1172,4.1172,4.1172,4.1172,3.7914,3.4651,3.4651,3.1407,2.8136,2.8136,2.8136,2.8136,2.8136,2.8136,2.8136,2.8136,2.8136,2.8136,2.8136,2.8136,2.8136,2.8136,2.8136,2.8136,2.8136,2.8136,2.8136,2.8136,2.8136,2.8136,2.8136,2.8136,2.8136,2.8136,2.7936,2.7655,2.7268,2.7268,2.6974,2.6386,2.66,2.6587,2.6386,2.6386,2.6386,4.5698,4.6301,4.6301,4.6301,4.4644,4.271,4.1605,3.9622,3.6874,3.3037,3.4865,3.5589,3.0539,3.2559,3.4545,3.3069,3.3516,3.4687,3.6426,3.7402,3.8242,3.9101,3.998,4.0527,4.0527,4.1289,0.0,0.0,0.0,0.0,0.0,4.3711,4.3711,4.3711,4.3711,4.3711,4.3711,4.3711,4.3711,4.3711,4.3711,4.3711,4.3711,4.3711,4.3711,0.0,0.0,0.0,0.0,4.1699,4.1426,4.1758,4.1348,4.1172,4.1172,4.1172,4.1172,4.1172,4.1172,4.1172,4.1172,4.1172,4.1172,4.1172,4.1172,4.1172,4.1172,4.1172,4.1172,4.1172,4.1172,3.7914,3.4651,3.4651,3.1407,2.8136,2.8136,2.8136,2.8136,2.8136,2.8136,2.8136,2.8136,2.8136,2.8136,2.8136,2.8136,2.8136,2.8136,2.8136,2.8136,2.8136,2.8136,2.8136,2.8136,2.8136,2.8136,2.8136,2.8136,2.8136,2.8136,2.8136,2.7856,2.7281,2.7268,2.6974,2.6386,2.6386,2.6386,2.6386,2.6386,2.6386,4.3187,4.4016,4.4418,4.3664,4.2384,4.1003,3.9898,3.8033,3.5705,3.2506,3.3215,3.3333,2.9447,3.123,3.3056,3.2512,3.332,3.457,3.6016,3.7461,3.8574,3.9141,4.0254,4.0976,0.0,0.0,0.0,0.0,0.0,0.0,0.0,4.3711,4.3711,4.3711,4.3711,4.3711,4.3711,4.3711,4.3711,4.3711,4.3711,4.3711,4.3711,4.3711,0.0,0.0,0.0,0.0,0.0,4.1699,4.1582,4.2148,4.1445,4.1172,4.1172,4.1172,4.1172,4.1172,4.1172,4.1172,4.1172,4.1172,4.1172,4.1172,4.1172,4.1172,4.1172,4.1172,4.1172,4.0841,3.9374,3.6762,3.4327,3.2858,3.026,2.8136,2.8136,2.8136,2.8136,2.8136,2.8136,2.8136,2.8136,2.8136,2.8136,2.8136,2.8136,2.8136,2.8136,2.8136,2.8136,2.8136,2.8136,2.8136,2.8136,2.8136,2.8136,2.8136,2.8136,2.8136,2.8136,2.8136,2.7869,2.7281,2.7455,2.7175,2.6386,2.6587,2.6587,2.6386,2.6386,2.6386,4.1153,4.1828,4.1991,4.1323,3.9731,3.8161,3.7484,3.5836,3.3723,3.1418,3.204,3.2038,2.9073,3.075,3.2602,3.2214,3.3242,3.4473,3.5625,3.7246,3.8672,3.959,4.043,0.0,0.0,0.0,0.0,0.0,0.0,0.0,0.0,4.3711,4.3711,4.3711,4.3711,4.3711,4.3711,4.3711,4.3711,4.3711,4.3711,4.3711,4.3691,4.3535,0.0,0.0,0.0,0.0,0.0,4.1641,4.1582,4.2129,4.1445,4.1172,4.1172,4.1172,4.1172,4.1172,4.1172,4.1172,4.1172,4.1172,4.1172,4.1172,4.1172,4.1172,4.1172,4.1172,4.1172,4.0685,3.8548,3.6281,3.4164,3.1887,2.9774,2.8136,2.8136,2.8136,2.8136,2.8136,2.8136,2.8136,2.8136,2.8136,2.8136,2.8136,2.8136,2.8136,2.8136,2.8136,2.8136,2.8136,2.8136,2.8136,2.8136,2.8136,2.8136,2.8136,2.8136,2.8136,2.8136,2.803,2.7749,2.7281,2.7335,2.7041,2.6386,2.6573,2.656,2.6386,2.6386,2.6386,0.0,3.9462,3.9029,3.9005,3.6843,3.4584,3.4584,3.3038,0.0,2.9939,3.0969,3.1505,2.9351,3.1005,3.2757,3.2253,3.3242,3.4394,3.5312,3.6953,3.8691,4.041,4.0586,0.0,0.0,0.0,0.0,0.0,0.0,0.0,0.0,4.3711,4.3711,4.3711,4.3711,4.3711,4.3711,4.3711,4.3711,4.3711,4.3711,4.3711,4.3691,4.3262,0.0,0.0,0.0,0.0,0.0,4.1543,4.1445,4.1758,4.1348,4.1172,4.1172,4.1172,4.1172,4.1172,4.1172,4.1172,4.1172,4.1172,4.1172,4.1172,4.1172,4.1172,4.1172,4.1172,4.1172,4.0685,3.8548,3.6281,3.4164,3.1887,2.9774,2.8136,2.8136,2.8136,2.8136,2.8136,2.8136,2.8136,2.8136,2.8136,2.8136,2.8136,2.8136,2.8136,2.8136,2.8136,2.8136,2.8136,2.8136,2.8136,2.8136,2.8136,2.8136,2.8136,2.8136,2.8136,2.8136,2.7856,2.7562,2.7268,2.6947,2.6653,2.6386,2.6386,2.6386,2.6386,2.6386,2.6386,3.451,0.0,3.6653,3.6248,3.4518,3.2846,0.0,3.1512,3.004,2.9737,2.9229,2.885,2.8878,2.9767,3.0809,3.2035,3.3242,3.4492,3.5703,3.793,3.9941,4.1328,4.1211,0.0,0.0,0.0,0.0,0.0,0.0,0.0,0.0,4.3711,4.3711,4.3711,4.3711,4.3711,4.3711,4.3711,4.3711,4.3711,4.3711,4.3711,4.3691,4.3262,0.0,0.0,0.0,0.0,4.1933,4.1738,4.1699,4.1758,4.1348,4.1172,4.1172,4.1172,4.1172,4.1172,4.1172,4.1172,4.1172,4.1172,4.1172,4.1172,4.1172,4.1172,4.1172,4.1172,4.1172,4.0685,3.8548,3.6281,3.4164,3.1887,2.9774,2.8136,2.8136,2.8136,2.8136,2.8136,2.8136,2.8136,2.8136,2.8136,2.8136,2.8136,2.8136,2.8136,2.8136,2.8136,2.8136,2.8136,2.8136,2.8136,2.8136,2.8136,2.8136,2.8136,2.8136,2.8136,2.8136,2.7856,2.7562,2.7268,2.676,2.6453,2.6386,2.6386,2.6386,2.6386,2.6386,2.6386,3.3055,3.3244,3.3379,3.2983,3.1717,3.0411,3.0411,2.958,2.8757,2.8757,2.8157,2.7988,2.9023,2.9746,3.0742,3.2461,3.3828,3.5332,3.7207,3.8867,4.0293,4.1387,4.1484,0.0,0.0,0.0,0.0,0.0,0.0,0.0,0.0,4.3711,4.3711,4.3711,4.3711,4.3711,4.3711,4.3711,4.3711,4.3711,4.3711,4.3594,4.3398,4.2969,0.0,0.0,0.0,0.0,4.1523,4.1719,4.168,4.1484,4.1269,4.1172,4.1172,4.1172,4.1172,4.1172,4.1172,4.1172,4.1172,4.1172,4.1172,4.1172,4.1172,4.1172,4.1172,4.1172,4.1172,4.0685,3.8548,3.7082,3.5298,3.2217,3.0592,2.9453,2.8473,2.8136,2.8136,2.8136,2.8136,2.8136,2.8136,2.8136,2.8136,2.8136,2.8136,2.8136,2.8136,2.8136,2.8136,2.8136,2.8136,2.8136,2.8136,2.8136,2.8136,2.8136,2.8136,2.8136,2.8136,2.7856,2.7495,2.7068,2.6613,2.6386,2.6386,2.6386,2.6386,2.6386,2.6386,2.6386,3.2881,3.1671,3.0265,3.0266,2.9303,2.8301,2.8301,2.7969,2.7695,2.7832,2.7812,2.8203,2.9687,3.0527,3.1562,3.332,3.4785,3.6504,3.8867,3.9668,4.0312,4.1172,4.1523,0.0,0.0,0.0,0.0,0.0,0.0,0.0,0.0,4.3711,4.3711,4.3711,4.3711,4.3711,4.3711,4.3711,4.3711,4.3711,4.3711,4.3516,4.3164,4.2656,4.2226,0.0,0.0,0.0,4.1211,4.1621,4.1562,4.1172,4.1172,4.1172,4.1172,4.1172,4.1172,4.1172,4.1172,4.1172,4.1172,4.1172,4.1172,4.1172,4.1172,4.1172,4.1172,4.1172,4.1172,4.0841,3.8882,3.8213,3.6922,3.3349,3.1887,3.0925,2.9187,2.8501,2.8163,2.8203,2.8177,2.8136,2.8136,2.8136,2.8136,2.8136,2.8136,2.8136,2.8136,2.8136,2.8136,2.8136,2.8136,2.8136,2.8136,2.8136,2.8136,2.8136,2.8136,2.8123,2.8083,2.7789,2.7375,2.6827,2.6533,2.6386,2.6386,2.6386,2.6386,2.6386,2.6386,2.6386,3.0982,3.0376,3.0167,3.0307,2.9303,2.8301,2.8301,2.7969,2.7871,2.8574,2.8437,2.8926,3.1328,3.1582,3.209,3.416,0.0,3.7519,0.0,0.0,4.0742,4.1601,0.0,0.0,0.0,0.0,0.0,0.0,0.0,0.0,0.0,0.0,4.3711,4.3711,4.3711,4.3711,4.3711,4.3711,4.3711,4.3711,4.3711,4.3672,4.3574,4.2793,4.2402,0.0,0.0,4.1562,4.1211,4.1621,4.1562,4.1172,4.1172,4.1172,4.1172,4.1172,4.1172,4.1172,4.1172,4.1172,4.1172,4.1172,4.1172,4.1172,4.1172,4.1172,4.1172,4.1172,4.1172,4.1172,4.0841,3.9355,3.7737,3.7082,3.4164,3.1316,3.1248,2.9621,2.8217,2.8484,2.8323,2.8136,2.8136,2.8136,2.8136,2.8136,2.8136,2.8136,2.8136,2.8136,2.8136,2.8136,2.8136,2.8136,2.8136,2.8136,2.8136,2.8136,2.8136,2.803,2.7776,2.7482,2.7175,2.6827,2.6533,2.6386,2.6386,2.6386,2.6386,2.6386,2.6386,2.6386,3.0618,2.9748,2.929,3.0028,3.0294,3.0391,3.0391,3.041,3.0488,3.0644,3.0527,3.082,3.2246,3.2715,3.375,3.6367,0.0,3.8437,3.9726,4.0469,0.0,0.0,0.0,0.0,0.0,0.0,0.0,0.0,0.0,0.0,0.0,0.0,4.3711,4.3711,4.3711,4.3711,4.3711,4.3711,4.3711,4.3711,4.3711,4.3594,4.334,4.2715,4.2305,4.207,0.0,4.1562,4.1211,4.1621,4.1562,4.1172,4.1172,4.1172,4.1172,4.1172,4.1172,4.1172,4.1172,4.1172,4.1172,4.1172,4.1172,4.1172,4.1172,4.1172,4.1172,4.1172,4.1172,4.1172,4.1172,4.0509,3.9374,3.8213,3.6442,3.4359,3.2085,3.068,2.9663,2.8663,2.8243,2.8136,2.8136,2.8136,2.8136,2.8136,2.8136,2.8136,2.8136,2.8136,2.8136,2.8136,2.8136,2.8136,2.8136,2.8136,2.8136,2.8136,2.8136,2.8083,2.7949,2.7509,2.7201,2.7068,2.6613,2.6386,2.6386,2.6386,2.6386,2.6386,2.6547,2.6547,3.0286,2.9333,2.8965,2.9961,3.0742,3.1426,3.2031,3.2168,3.2207,3.2305,3.2324,3.25,3.3125,3.4023,3.5508,3.8008,3.8594,3.9141,0.0,0.0,0.0,0.0,0.0,0.0,0.0,0.0,0.0,0.0,0.0,0.0,0.0,0.0,4.3711,4.3711,4.3711,4.3711,4.3711,4.3613,4.3613,4.3711,4.3711,4.3535,4.3203,4.2676,4.2305,4.209,4.1777,4.1523,4.1348,4.1562,4.1465,4.1172,4.1172,4.1172,4.1172,4.1172,4.1172,4.1172,4.1172,4.1172,4.1172,4.1172,4.1172,4.1172,4.1172,4.1172,4.1172,4.1172,4.1172,4.1172,4.1172,4.1172,4.0841,3.904,3.8231,3.694,3.3772,3.2098,3.0925,2.9369,2.8514,2.8136,2.8136,2.8136,2.8136,2.8136,2.8136,2.8136,2.8136,2.8136,2.8136,2.8136,2.8136,2.8136,2.8136,2.8136,2.8136,2.8136,2.8136,2.8136,2.8136,2.7575,2.7268,2.7268,2.6694,2.6386,2.6386,2.6386,2.6386,2.64,2.6694,2.6667,2.8991,2.927,3.0078,3.0176,2.9375,2.9199,3.1621,3.125,3.084,3.2422,3.2754,3.3125,3.4336,3.5625,3.6816,3.7812,3.8633,3.9473,0.0,0.0,0.0,0.0,0.0,0.0,0.0,0.0,0.0,0.0,0.0,0.0,0.0,0.0,0.0,4.3711,4.3711,4.3711,4.3711,4.332,4.332,4.3711,4.3711,4.3691,4.3633,4.2812,4.2637,4.293,4.1738,4.1426,4.1719,4.1367,4.1211,4.1172,4.1172,4.1172,4.1172,4.1172,4.1172,4.1172,4.1172,4.1172,4.1172,4.1172,4.1172,4.1172,4.1172,4.1172,4.1172,4.1172,4.1172,4.1172,4.1172,4.1172,4.1172,4.1016,3.9374,3.7827,3.7864,3.4392,3.1482,3.146,2.9804,2.8136,2.8136,2.8136,2.8136,2.8136,2.8136,2.8136,2.8136,2.8136,2.8136,2.8136,2.8136,2.8136,2.8136,2.8136,2.8136,2.8136,2.8136,2.8136,2.8136,2.7575,2.7268,2.7268,2.6694,2.6386,2.6386,2.6386,2.6386,2.64,2.6694,2.6667,2.8805,2.9219,3.0273,3.0547,3.0469,3.084,3.2891,3.3398,3.3769,3.4961,3.498,0.0,0.0,3.6621,3.7949,3.8281,3.9277,0.0,0.0,0.0,0.0,0.0,0.0,0.0,0.0,0.0,0.0,0.0,0.0,0.0,0.0,0.0,0.0,4.3711,4.3711,4.3711,4.3711,4.3281,4.3164,4.332,4.332,4.3457,4.3691,4.3105,4.293,4.3047,4.2285,4.2051,4.2168,4.2012,4.1797,4.1543,4.1269,4.1172,4.1172,4.1172,4.1172,4.1172,4.1172,4.1172,4.1172,4.1172,4.1172,4.1172,4.1172,4.1172,4.1172,4.1172,4.1172,4.1172,4.1172,4.1172,4.1172,4.1172,4.0509,3.9569,3.8254,3.5561,3.3069,3.1722,2.9691,2.8136,2.8136,2.8136,2.8136,2.8136,2.8136,2.8136,2.8136,2.8136,2.8136,2.8136,2.8136,2.8136,2.8136,2.8136,2.8136,2.8136,2.8136,2.8056,2.7869,2.7482,2.7175,2.6987,2.6587,2.6386,2.6386,2.6386,2.6386,2.64,2.6694,2.6667,2.9086,2.9316,3.0371,3.1113,3.1309,3.1797,3.3652,3.4336,3.4941,3.6211,3.623,3.6016,3.5996,0.0,0.0,0.0,0.0,0.0,0.0,0.0,0.0,0.0,0.0,0.0,0.0,0.0,0.0,0.0,0.0,0.0,0.0,0.0,0.0,0.0,4.3711,4.3711,4.3711,4.3281,4.3144,4.3281,4.3144,4.3223,4.3496,4.3203,4.3144,4.3242,4.2676,4.25,4.2617,4.2344,4.1973,4.1562,4.1289,4.1172,4.1172,4.1172,4.1172,4.1172,4.1172,4.1172,4.1172,4.1172,4.1172,4.1172,4.1172,4.1172,4.1172,4.1172,4.1172,4.1172,4.1172,4.1172,4.1172,4.1172,4.1172,4.0841,3.9216,3.7259,3.5298,3.3676,3.1241,2.9286,2.9286,2.8628,2.8136,2.8136,2.8136,2.8136,2.8136,2.8136,2.8136,2.8136,2.8136,2.8136,2.8136,2.8136,2.8278,2.8197,2.8184,2.809,2.7709,2.7335,2.7028,2.6827,2.6533,2.6386,2.6386,2.6386,2.6386,2.64,2.6694,2.6667,2.9748,2.9551,3.0527,3.1836,3.1543,3.1484,3.3594,3.3418,3.3437,3.5586,3.6035,3.6309,3.7148,3.7656,0.0,0.0,0.0,0.0,0.0,0.0,0.0,0.0,0.0,0.0,0.0,0.0,0.0,0.0,0.0,0.0,0.0,0.0,0.0,0.0,0.0,0.0,4.3711,4.3281,4.3281,4.3691,4.3281,4.3086,4.3086,4.3086,4.3301,4.3652,4.2812,4.2695,4.3027,4.2168,4.1562,4.1172,4.1172,4.1172,4.1172,4.1172,4.1172,4.1172,4.1172,4.1172,4.1172,4.1172,4.1172,4.1172,4.1172,4.1172,4.1172,4.1172,4.1172,4.1172,4.1172,4.1172,4.1172,4.1172,4.1172,4.1172,4.1172,3.9531,3.7896,3.7896,3.4327,3.1392,3.1392,2.9607,2.8136,2.8136,2.8136,2.8136,2.8136,2.8136,2.8136,2.8136,2.8136,2.8136,2.8136,2.8136,2.8197,2.8275,2.8247,2.8068,2.7696,2.7134,2.6827,2.6814,2.6533,2.6386,2.6386,2.6386,2.6386,2.64,2.668,2.6667,2.8416,2.9766,3.1523,3.1328,3.2891,3.4492,3.4512,3.457,3.5059,3.6601,3.7402,3.7715,3.7363,0.0,0.0,0.0,0.0,0.0,0.0,0.0,0.0,0.0,0.0,0.0,0.0,0.0,0.0,0.0,0.0,0.0,0.0,0.0,0.0,0.0,0.0,0.0,4.3711,4.3281,4.2988,4.2812,4.2988,4.3223,4.3516,4.3516,4.3594,4.3691,4.3437,4.3398,4.3457,4.2598,4.1992,4.1582,4.1289,4.1172,4.1172,4.1172,4.1172,4.1172,4.1172,4.1172,4.1172,4.1172,4.1172,4.1172,4.1172,4.1172,4.1172,4.1172,4.1172,4.1172,4.1172,4.1172,4.1172,4.1172,4.1172,4.1172,4.1172,3.9531,3.7896,3.7896,3.4327,3.1392,3.1392,2.9607,2.8136,2.8136,2.8136,2.8136,2.8136,2.8136,2.8136,2.8136,2.8136,2.8136,2.8136,2.8136,2.8197,2.8275,2.733,2.6941,2.727,2.7095,2.6734,2.652,2.6426,2.6386,2.6386,2.6386,2.6386,2.6386,2.648,2.6466,3.0201,3.1543,3.2969,3.3144,3.4219,3.5332,3.5664,3.582,0.0,0.0,3.7949,3.8262,3.8086,3.9062,0.0,0.0,0.0,0.0,0.0,0.0,0.0,0.0,0.0,0.0,0.0,0.0,0.0,0.0,0.0,0.0,0.0,0.0,0.0,0.0,0.0,0.0,4.3711,4.3457,4.3203,4.293,4.3203,4.3457,4.3711,4.3711,4.3711,4.3691,4.3535,4.3359,4.3144,4.2461,4.1933,4.1523,4.1269,4.1172,4.1172,4.1172,4.1172,4.1172,4.1172,4.1172,4.1172,4.1172,4.1172,4.1172,4.1172,4.1172,4.1172,4.1172,4.1172,4.1172,4.1172,4.1172,4.1172,4.1172,4.1172,4.1172,4.1172,4.0178,3.9198,3.9198,3.6442,3.3676,3.2858,3.091,2.9118,2.8305,2.8136,2.8136,2.8136,2.8136,2.8136,2.8136,2.8136,2.8136,2.8136,2.8211,2.8217,2.8276,2.7065,2.6584,2.668,2.6827,2.6573,2.6386,2.6386,2.6386,2.6386,2.6386,2.6386,2.6386,2.6386,2.6386,3.3559,3.3867,3.4492,3.6055,3.5371,3.4844,3.6836,3.7031,3.7012,3.7812,0.0,3.8281,3.9121,0.0,0.0,0.0,0.0,0.0,0.0,0.0,0.0,0.0,0.0,0.0,0.0,0.0,0.0,0.0,0.0,0.0,0.0,0.0,0.0,0.0,0.0,0.0,4.3711,4.3711,4.3691,0.0,4.3691,4.3691,4.3652,4.3691,4.3691,4.3633,4.3203,4.2773,4.2344,4.1953,4.1562,4.1172,4.1172,4.1172,4.1172,4.1172,4.1172,4.1172,4.1172,4.1172,4.1172,4.1172,4.1172,4.1172,4.1172,4.1172,4.1172,4.1172,4.1172,4.1172,4.1172,4.1172,4.1172,4.1172,4.1172,4.1172,4.1172,4.1172,4.1172,4.1172,3.9374,3.7241,3.5137,3.2858,3.0744,2.8473,2.8136,2.8136,2.8136,2.8136,2.8136,2.8136,2.8136,2.8136,2.8136,2.8257,2.8166,2.803,2.7014,2.636,2.64,2.6386,2.6386,2.6386,2.6386,2.6386,2.6386,2.6386,2.6386,2.6386,2.6386,2.6386,3.0133,3.2246,3.457,3.4609,3.5371,3.6328,3.7109,3.748,3.7812,3.832,3.8691,0.0,0.0,0.0,0.0,0.0,0.0,0.0,0.0,0.0,0.0,0.0,0.0,0.0,0.0,0.0,0.0,0.0,0.0,0.0,0.0,0.0,0.0,0.0,0.0,4.3711,4.3711,4.3711,4.3535,0.0,4.3555,4.3535,4.3223,4.3555,4.3516,4.3183,4.2754,4.2324,4.1933,4.1836,4.1562,4.1172,4.1172,4.1172,4.1172,4.1172,4.1172,4.1172,4.1172,4.1172,4.1172,4.1172,4.1172,4.1172,4.1172,4.1172,4.1172,4.1172,4.1172,4.1172,4.1172,4.1172,4.1172,4.1172,4.1172,4.1172,4.1172,4.1172,4.1172,4.1172,3.9374,3.7241,3.5137,3.2858,3.0744,2.8473,2.8136,2.8136,2.8136,2.8136,2.8136,2.8136,2.8136,2.8136,2.8136,2.8265,2.7816,2.6914,2.647,2.6384,2.6413,2.6386,2.6386,2.6386,2.6386,2.6386,2.6386,2.6386,2.6386,2.6386,2.6386,2.6386,3.1171,3.3327,3.536,3.5034,3.5996,3.7031,3.7246,3.7793,3.8359,3.8789,3.9219,0.0,0.0,0.0,0.0,0.0,0.0,0.0,0.0,0.0,0.0,0.0,0.0,0.0,0.0,0.0,0.0,0.0,0.0,0.0,0.0,0.0,0.0,0.0,4.3711,4.3711,4.3711,4.3711,4.3594,4.3379,4.3594,4.3594,4.3379,4.3398,4.3281,4.3047,4.2402,4.2012,4.1777,4.1582,4.1484,4.1484,4.1484,4.1601,4.1777,4.1777,4.1641,4.1484,4.1484,4.1348,4.1172,4.1172,4.1172,4.1172,4.1172,4.1172,4.1172,4.1172,4.1172,4.1172,4.1172,4.1172,4.1172,4.1172,4.1172,4.1172,4.1172,4.1172,4.1172,4.1172,4.0353,3.8724,3.6602,3.3887,3.1135,2.8642,2.8136,2.8136,2.8136,2.8136,2.8136,2.8136,2.8136,2.8136,2.8136,2.8244,2.796,2.7281,2.6637,2.6347,2.64,2.6386,2.6386,2.6386,2.6386,2.6386,2.6386,2.6386,2.6386,2.6386,2.6386,2.6386,3.3014,3.4835,3.6136,3.6166,3.6719,3.7324,3.7383,3.8066,3.8809,3.9238,0.0,0.0,0.0,0.0,0.0,0.0,0.0,0.0,0.0,0.0,0.0,0.0,0.0,0.0,0.0,0.0,0.0,0.0,0.0,0.0,0.0,0.0,4.3711,4.3711,4.3711,4.3711,4.3711,4.3711,4.3711,4.3711,4.3711,4.3711,4.3691,4.3262,4.3047,4.291,4.207,4.1699,4.168,4.1387,4.1484,4.1816,4.1875,4.2129,4.2422,4.2422,4.2168,4.1797,4.1797,4.1523,4.1172,4.1172,4.1172,4.1172,4.1172,4.1172,4.1172,4.1172,4.1172,4.1172,4.1172,4.1172,4.1172,4.1172,4.1172,4.1172,4.1172,4.1172,4.1172,4.1172,4.0841,4.004,3.8127,3.4783,3.1541,2.8655,2.8136,2.8136,2.8136,2.8136,2.8136,2.8136,2.8136,2.8123,2.8251,2.8179,2.8044,2.7934,2.6921,2.644,2.6386,2.6386,2.6386,2.6386,2.6386,2.6386,2.6386,2.6386,2.6386,2.6386,2.6386,2.6386,3.1283,3.3734,3.6218,3.6561,3.6953,3.7402,3.7754,0.0,3.9258,0.0,0.0,0.0,0.0,0.0,0.0,0.0,0.0,0.0,0.0,0.0,0.0,0.0,0.0,0.0,0.0,0.0,0.0,0.0,0.0,0.0,0.0,4.3496,4.3711,4.3711,4.3711,4.3711,4.3711,4.3711,4.3711,4.3711,4.3711,4.3711,4.3691,4.3262,4.2871,4.2461,4.1621,4.125,4.1289,4.1582,4.1758,4.1836,4.2207,4.2383,4.2422,4.2422,4.2168,4.1797,4.1797,4.1523,4.1172,4.1172,4.1172,4.1172,4.1172,4.1172,4.1172,4.1172,4.1172,4.1172,4.1172,4.1172,4.1172,4.1172,4.1172,4.1172,4.1172,4.1172,4.1172,4.1172,3.9688,3.7968,3.7077,3.4408,3.1541,2.8655,2.8136,2.8136,2.8136,2.8136,2.8136,2.8136,2.8136,2.8224,2.8163,2.8247,2.7784,2.6733,2.6452,2.6467,2.64,2.6386,2.6386,2.6386,2.6386,2.6386,2.6386,2.6386,2.6386,2.6386,2.6386,2.6386,3.3966,3.5518,3.6411,3.7473,3.747,3.7344,3.7539,3.8418,3.9336,0.0,0.0,0.0,0.0,0.0,0.0,0.0,0.0,0.0,0.0,0.0,0.0,0.0,0.0,0.0,0.0,0.0,0.0,0.0,0.0,0.0,4.3086,4.3476,4.3711,4.3711,4.3711,4.3711,4.3711,4.3711,4.3711,4.3711,4.3711,4.3711,4.3691,4.3262,4.2969,4.2734,4.1894,4.1523,4.1543,4.1719,4.1933,4.2187,4.2617,4.293,4.3144,4.3144,4.2871,4.2519,4.2519,4.209,4.1523,4.1523,4.1367,4.1172,4.1172,4.1172,4.1172,4.1172,4.1172,4.1172,4.1172,4.1172,4.1172,4.1172,4.1172,4.1172,4.1172,4.1172,4.1172,4.1172,4.0353,3.9133,3.7112,3.7049,3.5213,2.9187,2.8136,2.8136,2.8136,2.8136,2.8136,2.8136,2.8136,2.8211,2.8275,2.7549,2.6914,2.6479,2.632,2.6348,2.6386,2.6386,2.6386,2.6386,2.6386,2.6386,2.6386,2.6386,2.6386,2.6386,2.6386,2.6386,3.584,3.6496,3.6034,3.7649,3.7496,3.7051,3.7383,0.0,3.9473,0.0,0.0,0.0,0.0,0.0,0.0,0.0,0.0,0.0,0.0,0.0,0.0,0.0,0.0,0.0,0.0,0.0,0.0,0.0,0.0,0.0,4.291,4.332,4.3594,4.3691,4.3711,4.3711,4.3711,4.3711,4.3711,4.3711,4.3711,4.3711,4.3691,4.3379,4.3242,4.3183,4.2226,4.1797,4.1816,4.1914,4.2148,4.248,4.3027,4.3437,4.3711,4.3711,4.3437,4.3086,4.3086,4.2519,4.1797,4.1797,4.1523,4.1172,4.1172,4.1172,4.1172,4.1172,4.1172,4.1172,4.1172,4.1172,4.1172,4.1172,4.1172,4.1172,4.1172,4.1172,4.1172,4.1172,4.1172,4.0487,3.8294,3.9719,3.8217,2.9551,2.8136,2.8136,2.8136,2.8136,2.8136,2.8136,2.8251,2.8271,2.8179,2.7131,2.6462,2.6373,2.6334,2.6386,2.6386,2.6386,2.6386,2.6386,2.6386,2.6386,2.6386,2.6386,2.6386,2.6386,2.6386,2.6386,3.4846,3.4964,3.4666,3.6353,3.6455,3.6406,3.7617,0.0,0.0,0.0,0.0,0.0,0.0,0.0,0.0,0.0,0.0,0.0,0.0,0.0,0.0,0.0,0.0,0.0,0.0,0.0,0.0,0.0,0.0,0.0,4.2441,4.2871,4.3301,4.3691,4.3711,4.3711,4.3711,4.3711,4.3711,4.3711,4.3711,4.3711,4.3711,4.3691,4.3672,4.3594,4.2344,4.1797,4.1836,4.2226,4.2402,4.25,4.334,4.3691,4.3711,4.3711,4.3437,4.3086,4.3086,4.2519,4.1797,4.1797,4.1523,4.1172,4.1172,4.1172,4.1172,4.1172,4.1172,4.1172,4.1172,4.1172,4.1172,4.1172,4.1172,4.1172,4.1172,4.1172,4.1172,4.1172,4.1172,4.1132,4.1,4.1171,3.8217,2.9551,2.8136,2.8136,2.8136,2.8136,2.8136,2.8136,2.8257,2.8166,2.8235,2.7028,2.636,2.6426,2.64,2.6386,2.6386,2.6386,2.6386,2.6386,2.6386,2.6386,2.6386,2.6386,2.6386,2.6386,2.6386,2.6386,3.4722,3.5527,3.5625,3.6049,3.6582,3.6737,3.6464,3.8164,3.9902,0.0,0.0,0.0,0.0,0.0,0.0,0.0,0.0,0.0,0.0,0.0,0.0,0.0,0.0,0.0,0.0,0.0,0.0,0.0,0.0,0.0,4.2012,4.2695,4.3144,4.3301,4.3555,4.3711,4.3711,4.3711,4.3711,4.3711,4.3711,4.3711,4.3711,4.3711,4.3711,4.3672,4.293,4.2617,4.2637,4.2793,4.2851,4.291,4.3476,4.3711,4.3711,4.3711,4.3613,4.3437,4.3164,4.2695,4.2148,4.1894,4.1523,4.1172,4.1172,4.1172,4.1172,4.1172,4.1172,4.1172,4.1172,4.1172,4.1172,4.1172,4.1172,4.1172,4.1172,4.1172,4.1172,4.1172,4.1172,4.1132,4.12,3.6627,3.1823,2.8601,2.8136,2.8136,2.8136,2.8136,2.8136,2.8136,2.8244,2.7946,2.7105,2.6624,2.6347,2.64,2.6386,2.6386,2.6386,2.6386,2.6386,2.6386,2.6386,2.6386,2.6386,2.6386,2.6386,2.6386,2.6386,2.6386,3.412,3.4559,3.4762,3.6013,3.5736,3.5422,3.6403,3.7766,3.8984,0.0,0.0,0.0,0.0,0.0,0.0,0.0,0.0,0.0,0.0,0.0,0.0,0.0,0.0,0.0,0.0,0.0,0.0,0.0,0.0,0.0,4.1797,4.248,4.2988,4.3281,4.3555,4.3711,4.3711,4.3711,4.3711,4.3711,4.3711,4.3711,4.3711,4.3711,4.3711,4.3691,4.3418,4.3203,4.3086,4.3086,4.3086,4.3125,4.3535,4.3711,4.3711,4.3711,4.3711,4.3672,4.3379,4.291,4.2383,4.2109,4.1621,4.1172,4.1172,4.1172,4.1172,4.1172,4.1269,4.1348,4.1211,4.1172,4.1172,4.1172,4.1172,4.1172,4.1172,4.1172,4.1172,4.1172,4.1133,4.1148,4.1219,3.3985,2.8181,2.8224,2.8136,2.8136,2.8136,2.8136,2.8136,2.8136,2.8163,2.766,2.6535,2.6357,2.6414,2.64,2.6386,2.6386,2.6386,2.6386,2.6386,2.6386,2.6386,2.6386,2.6386,2.6386,2.6386,2.6386,2.6386,2.6386,0.0,0.0,0.0,3.5899,3.3892,3.2316,3.7522,0.0,3.709,0.0,0.0,0.0,0.0,0.0,0.0,0.0,0.0,0.0,0.0,0.0,0.0,0.0,0.0,0.0,0.0,0.0,0.0,0.0,0.0,4.1308,4.1719,4.2148,4.2754,4.3633,4.3652,4.3672,4.3691,4.3691,4.3711,4.3711,4.3711,4.3711,4.3711,4.3711,4.3711,4.3711,4.3711,4.3476,4.3105,4.3105,4.3105,4.3144,4.3555,4.3711,4.3711,4.3711,4.3711,4.3711,4.3691,4.3144,4.2441,4.2422,4.1855,4.1191,4.1172,4.1191,4.1191,4.1191,4.1484,4.1719,4.1308,4.1191,4.1191,4.1172,4.1172,4.1172,4.1172,4.1172,4.1172,4.1172,4.1209,4.1177,4.1276,3.4032,2.8275,2.8265,2.8136,2.8136,2.8136,2.8136,2.8136,2.8136,2.8179,2.7649,2.6522,2.6373,2.6386,2.6386,2.6386,2.6386,2.6386,2.6386,2.6386,2.6386,2.6386,2.6386,2.6386,2.6386,2.6386,2.6386,2.6386,2.6386,3.2365,0.0,0.0,0.0,0.0,0.0,0.0,0.0,0.0,0.0,0.0,0.0,0.0,0.0,0.0,0.0,0.0,0.0,0.0,0.0,0.0,0.0,0.0,0.0,0.0,0.0,0.0,0.0,4.0176,4.0293,4.041,4.082,4.1445,4.2305,4.2617,4.293,4.3242,4.3555,4.3711,4.3711,4.3711,4.3711,4.3711,4.3711,4.3711,4.3711,4.3711,4.3633,4.3535,4.3535,4.3535,4.3555,4.3652,4.3711,4.3711,4.3711,4.3711,4.3652,4.3359,4.3105,4.2793,4.2168,4.1816,4.1562,4.1269,4.1387,4.1621,4.1621,4.1933,4.2148,4.1738,4.1641,4.1739,4.125,4.1172,4.1172,4.1172,4.1172,4.1172,4.1172,4.1209,4.1177,4.1276,3.4032,2.8275,2.8265,2.8136,2.8136,2.8136,2.8136,2.8136,2.8136,2.8122,2.7784,2.6535,2.6373,2.6386,2.6386,2.6386,2.6386,2.6386,2.6386,2.6386,2.6386,2.6386,2.6386,2.6386,2.6386,2.6386,2.6386,2.6386,2.6386,3.2446,3.269,3.2794,0.0,0.0,0.0,0.0,0.0,0.0,0.0,0.0,0.0,0.0,0.0,0.0,0.0,0.0,0.0,0.0,0.0,0.0,0.0,0.0,0.0,0.0,0.0,0.0,0.0,3.9785,3.9961,4.0156,4.0391,4.0918,4.1777,4.2031,4.2383,4.2793,4.3047,4.3164,4.3164,4.3164,4.3164,4.3164,4.3164,4.3164,4.3164,4.3164,4.3164,4.3183,4.3359,4.3555,4.3711,4.3711,4.3711,4.3711,4.3711,4.3711,4.3672,4.3418,4.3223,4.2988,4.25,4.2207,4.2012,4.1777,4.1875,4.207,4.207,4.2246,4.2363,4.2129,4.1953,4.1896,4.1289,4.1172,4.1172,4.1172,4.1172,4.123,4.125,4.1163,4.0037,3.644,3.1572,2.8257,2.8278,2.8136,2.8136,2.8136,2.8136,2.8136,2.8136,2.813,2.7655,2.6548,2.6373,2.6386,2.6386,2.6386,2.6386,2.6386,2.6386,2.6386,2.6386,2.6386,2.6386,2.6386,2.6386,2.6386,2.6386,2.6386,2.6386,3.2871,3.2991,3.322,0.0,0.0,0.0,0.0,0.0,0.0,0.0,0.0,0.0,0.0,0.0,0.0,0.0,0.0,0.0,0.0,0.0,0.0,0.0,0.0,0.0,0.0,0.0,3.9141,3.9141,3.9512,3.9902,4.0293,4.0312,4.0703,4.1562,4.1641,4.1875,4.2344,4.2402,4.2422,4.2422,4.2422,4.2422,4.2422,4.2422,4.2422,4.2422,4.2422,4.2422,4.2461,4.2851,4.3262,4.3633,4.3633,4.3633,4.3633,4.3574,4.3594,4.3633,4.3633,4.3418,4.3144,4.3086,4.2812,4.25,4.2441,4.2461,4.25,4.2558,4.2539,4.248,4.2441,4.2308,4.1896,4.1289,4.1172,4.1172,4.1172,4.1172,4.1152,4.1163,4.1246,3.8418,2.9764,2.8257,2.8136,2.8136,2.8136,2.8136,2.8136,2.8136,2.8136,2.8136,2.8136,2.7729,2.6613,2.6547,2.6386,2.6386,2.6386,2.6386,2.6386,2.6386,2.6386,2.6386,2.6386,2.6386,2.6386,2.6386,2.6386,2.6386,2.6386,2.6386,0.0,0.0,0.0,0.0,0.0,0.0,0.0,0.0,0.0,0.0,0.0,0.0,0.0,0.0,0.0,0.0,0.0,0.0,0.0,0.0,0.0,0.0,0.0,0.0,0.0,0.0,3.8691,3.8691,3.8789,3.8867,3.8945,3.8945,3.9355,4.0234,4.0586,4.1152,4.1914,4.2266,4.2422,4.2422,4.2422,4.2422,4.2422,4.2422,4.2422,4.2422,4.2422,4.2422,4.2441,4.2519,4.2812,4.3203,4.3203,4.3203,4.3164,4.2812,4.2891,4.3203,4.3203,4.3359,4.3535,4.3183,4.3027,4.2891,4.2539,4.2676,4.3027,4.3359,4.3203,4.2891,4.2758,4.2545,4.2112,4.1445,4.1172,4.1172,4.1172,4.1172,4.125,4.1227,4.1133,3.8401,2.9649,2.8203,2.8136,2.8136,2.8136,2.8136,2.8136,2.8136,2.8136,2.8136,2.8136,2.8144,2.7906,2.6988,2.6386,2.6386,2.6386,2.6386,2.6386,2.6386,2.6386,2.6386,2.6386,2.6386,2.6386,2.6386,2.6386,2.6386,2.6386,2.6386,0.0,0.0,0.0,3.1472,0.0,0.0,0.0,0.0,3.1707,3.3093,0.0,0.0,0.0,0.0,0.0,0.0,0.0,0.0,0.0,0.0,0.0,0.0,0.0,0.0,0.0,0.0,3.8574,3.8574,3.8574,3.8574,3.8574,3.8574,3.8984,3.9863,4.0098,4.0625,4.1484,4.1699,4.1797,4.1797,4.1797,4.1797,4.1797,4.1797,4.1797,4.1797,4.1797,4.1797,4.1816,4.2031,4.2246,4.2461,4.2676,4.2754,4.2734,4.25,4.2558,4.2773,4.3008,4.3223,4.3398,4.3398,4.3398,4.3359,4.3125,4.3223,4.3437,4.3652,4.3398,4.2988,4.2958,4.2724,4.2132,4.1464,4.1172,4.1172,4.1172,4.1172,4.1269,4.1181,3.7664,3.3286,2.9007,2.8171,2.8136,2.8136,2.8136,2.8136,2.8136,2.8136,2.8136,2.8136,2.8136,2.7996,2.7405,2.6786,2.6386,2.6386,2.6386,2.6386,2.6386,2.6386,2.6386,2.6386,2.6386,2.6386,2.6386,2.6386,2.6386,2.6386,2.6386,2.6386,0.0,0.0,0.0,0.0,0.0,3.2721,0.0,0.0,0.0,0.0,0.0,0.0,0.0,0.0,0.0,0.0,0.0,0.0,0.0,0.0,0.0,0.0,0.0,0.0,0.0,0.0,3.834,3.8672,3.8398,3.8359,3.8672,3.8613,3.8984,3.9863,3.9902,4.0312,4.1172,4.1172,4.1172,4.1172,4.1172,4.1172,4.1172,4.1172,4.1172,4.1172,4.1172,4.1172,4.1211,4.1543,4.168,4.1719,4.2148,4.2305,4.2305,4.2207,4.2246,4.2363,4.2715,4.2891,4.3008,4.334,4.3516,4.3594,4.3691,4.3711,4.3691,4.3613,4.3281,4.2871,4.284,4.2447,4.2014,4.1425,4.1172,4.1172,4.1172,4.123,4.1229,4.12,3.4115,2.8249,2.8211,2.8136,2.8136,2.8136,2.8136,2.8136,2.8136,2.8136,2.8136,2.8136,2.8136,2.7669,2.6493,2.6386,2.6386,2.6386,2.6386,2.6386,2.6386,2.6386,2.6386,2.6386,2.6386,2.6386,2.6386,2.6386,2.6386,2.6386,2.6386,2.6386,0.0,0.0,0.0,0.0,3.3923,0.0,0.0,0.0,0.0,0.0,0.0,0.0,0.0,0.0,0.0,0.0,0.0,0.0,0.0,0.0,0.0,0.0,0.0,0.0,0.0,0.0,0.0,3.9023,3.7734,3.7539,3.9043,3.8769,3.8984,3.9863,3.9902,4.0312,4.1172,4.1172,4.1172,4.1172,4.1172,4.1172,4.1172,4.1172,4.1172,4.1172,4.1172,4.1172,4.1172,4.123,4.125,4.1289,4.1699,4.1875,4.1836,4.1445,4.1543,4.1875,4.1933,4.2187,4.25,4.2558,4.2832,4.3223,4.3594,4.3711,4.3633,4.3262,4.2832,4.2422,4.2427,4.1955,4.125,4.1191,4.1172,4.1172,4.1172,4.117,4.126,4.1257,3.4099,2.8276,2.8238,2.8136,2.8136,2.8136,2.8136,2.8136,2.8136,2.8136,2.8136,2.8136,2.8136,2.7669,2.6493,2.6386,2.6386,2.6386,2.6386,2.6386,2.6386,2.6386,2.6386,2.6386,2.6386,2.6386,2.6386,2.6386,2.6386,2.6386,2.6386,2.6386,0.0,0.0,0.0,0.0,0.0,0.0,2.9352,0.0,2.8789,0.0,0.0,0.0,0.0,0.0,0.0,0.0,0.0,0.0,0.0,0.0,0.0,0.0,0.0,0.0,0.0,0.0,0.0,0.0,0.0,3.7305,3.8769,3.8906,3.9238,3.9883,3.9902,4.0312,4.1172,4.1172,4.1172,4.1172,4.1172,4.1172,4.1172,4.1172,4.1172,4.1172,4.1172,4.1172,4.1172,4.1172,4.1172,4.1191,4.1367,4.1426,4.1406,4.123,4.1289,4.1465,4.1719,4.1914,4.2109,4.2344,4.2558,4.2773,4.3203,4.334,4.3301,4.3125,4.2754,4.2344,4.2348,4.1876,4.1172,4.1172,4.1172,4.1172,4.1172,4.1209,3.9645,3.4692,3.0706,2.8139,2.8238,2.8136,2.8136,2.8136,2.8136,2.8136,2.8136,2.8136,2.8136,2.8136,2.8136,2.7669,2.6493,2.6386,2.6386,2.6386,2.6386,2.6386,2.6386,2.6386,2.6386,2.6386,2.6386,2.6386,2.6386,2.6386,2.6386,2.6386,2.6386,2.6334,3.7109,0.0,0.0,0.0,0.0,0.0,0.0,0.0,0.0,0.0,0.0,0.0,0.0,0.0,0.0,0.0,0.0,0.0,0.0,0.0,0.0,0.0,0.0,0.0,0.0,0.0,0.0,0.0,0.0,0.0,3.8828,3.9004,3.9297,3.9883,3.9902,4.0254,4.0996,4.1113,4.1172,4.1172,4.1172,4.1172,4.1172,4.1172,4.1172,4.1172,4.1172,4.1172,4.1172,4.1172,4.1172,4.1172,4.1172,4.1172,4.1172,4.1172,4.1172,4.1211,4.1523,4.1621,4.1699,4.2109,4.2266,4.2363,4.291,4.3086,4.3047,4.293,4.2695,4.2504,4.2171,4.1621,4.1172,4.1172,4.1172,4.1211,4.1172,4.1226,3.8595,2.9851,2.814,2.823,2.8278,2.8136,2.8136,2.8136,2.8136,2.8136,2.8136,2.8136,2.8136,2.8136,2.7856,2.7321,2.6466,2.6386,2.6386,2.6386,2.6386,2.6386,2.6386,2.6386,2.6386,2.6386,2.6386,2.6547,2.6867,2.6867,2.6867,2.6867,2.652,2.6386,0.0,0.0,0.0,3.6341,0.0,0.0,0.0,0.0,2.9902,0.0,0.0,0.0,0.0,0.0,0.0,0.0,0.0,0.0,0.0,0.0,0.0,0.0,0.0,0.0,0.0,0.0,0.0,0.0,0.0,0.0,3.9648,3.9043,3.8984,3.9863,3.9902,4.0098,4.0547,4.0957,4.1172,4.1172,4.1172,4.1172,4.1172,4.1172,4.1172,4.1172,4.1172,4.1172,4.1172,4.1172,4.1172,4.1172,4.1172,4.1172,4.1172,4.1172,4.1172,4.1172,4.1191,4.1191,4.1269,4.168,4.1816,4.1973,4.2812,4.3086,4.2988,4.2558,4.266,4.2663,4.1582,4.1191,4.1172,4.1172,4.1172,4.1133,4.1245,4.1189,3.8599,2.9929,2.819,2.8195,2.8203,2.8136,2.8136,2.8136,2.8136,2.8136,2.8136,2.8136,2.8136,2.8136,2.7121,2.6426,2.6386,2.6386,2.6386,2.6386,2.6386,2.6386,2.6386,2.6386,2.6386,2.6386,2.6386,2.6947,2.8083,2.8083,2.8083,2.807,2.6935,2.6405,0.0,0.0,4.0059,3.6665,0.0,0.0,0.0,0.0,0.0,0.0,0.0,0.0,0.0,0.0,0.0,0.0,0.0,0.0,0.0,0.0,0.0,0.0,0.0,0.0,0.0,0.0,0.0,0.0,0.0,0.0,0.0,3.9297,3.9453,3.9434,4.0,4.0371,4.0527,4.0957,4.1172,4.1172,4.1172,4.1172,4.1172,4.1172,4.1172,4.1172,4.1172,4.1172,4.1172,4.1172,4.1172,4.1172,4.1172,4.1172,4.1172,4.1172,4.1172,4.1172,4.1172,4.1172,4.1191,4.1348,4.1387,4.1484,4.2051,4.2031,4.1777,4.1641,4.1621,4.1717,4.1246,4.1168,4.1227,4.1268,4.1172,4.1191,4.1235,3.6679,3.172,2.8757,2.8144,2.8366,2.9205,2.8016,2.6987,2.6987,2.6987,2.6987,2.6987,2.6987,2.6987,2.6987,2.6627,2.6386,2.6386,2.6386,2.6386,2.6386,2.6386,2.6386,2.6386,2.6386,2.6386,2.6386,2.6386,2.6587,2.6987,2.7762,2.8136,2.8136,2.7742,2.7602,4.3203,4.2922,0.0,3.8673,3.7545,0.0,3.22,0.0,0.0,0.0,0.0,0.0,0.0,0.0,0.0,0.0,0.0,0.0,0.0,0.0,0.0,0.0,0.0,0.0,0.0,0.0,0.0,0.0,0.0,0.0,0.0,0.0,3.959,3.9453,4.0156,4.0527,4.0527,4.0957,4.1172,4.1172,4.1172,4.1172,4.1172,4.1172,4.1172,4.1172,4.1172,4.1172,4.1172,4.1172,4.1172,4.1172,4.1172,4.1172,4.1172,4.1172,4.1172,4.1172,4.1172,4.1172,4.1172,4.1172,4.1172,4.123,4.1484,4.1387,4.1152,4.0976,4.0935,4.0912,4.0739,4.0664,4.0859,4.1094,4.1248,4.1139,4.116,3.4701,2.8813,2.8742,2.8439,2.8433,2.9192,2.764,2.6331,2.644,2.6386,2.6386,2.6386,2.6386,2.6547,2.6961,2.664,2.6386,2.6386,2.6386,2.6573,2.6987,2.7014,2.7014,2.7014,2.6613,2.6386,2.6386,2.6386,2.66,2.7014,2.7776,2.8136,2.8136,2.8136,2.813]}]]